[[[{"header":{"parameterUnit":"kt","parameterCategory":2,"dx":1,"dy":1,"la1":29.587661999999998,"la2":31.0,"lo1":-88.76705300000003,"lo2":-86.6583820000003,"nx":115,"ny":88,"refTime":"2022-09-19T12:00:00:Z","depth":0,"parameterNumber":1,"parameterNumberName":"U-component_of_WINDS"},"data":[10.7342,10.7342,10.7342,10.7342,10.7342,10.7342,10.7342,10.7342,10.7342,10.7342,10.7342,10.7342,10.7342,10.7342,10.7342,10.7063,10.6139,10.3827,10.1232,9.8792,9.5375,9.2976,9.1414,9.0594,9.0118,9.0021,9.0021,9.0021,9.0021,9.0021,9.0021,9.0021,9.0021,9.0021,9.0021,9.0021,9.0021,9.0021,9.0021,9.0021,9.0021,9.0021,9.0021,9.0021,9.0021,9.0021,9.0021,9.0021,9.0021,9.0216,9.0802,9.1455,9.207,9.2588,9.3125,9.3662,9.4718,9.5255,9.5841,9.6151,9.6395,9.6395,9.6395,9.6395,9.6395,9.6395,9.6395,9.6395,9.6395,9.6395,9.6395,9.6395,9.6395,9.6395,9.6395,9.6395,9.6395,9.6395,9.6395,9.6395,9.6395,9.6395,9.6395,9.6395,9.6395,9.6395,9.6395,9.6395,9.6395,9.6395,9.6395,9.6395,9.6395,9.6395,9.6395,9.6395,9.6395,9.6395,9.6395,9.6395,9.6395,9.6395,9.6395,9.6395,9.6395,9.6395,9.6395,9.6395,9.6395,9.6395,9.6395,9.6395,9.6395,9.6395,9.6395,10.7342,10.7342,10.7342,10.7342,10.7342,10.7342,10.7342,10.7342,10.7342,10.7342,10.7342,10.7342,10.7342,10.7342,10.7342,10.7342,10.6585,10.4797,10.3444,10.0867,9.703,9.4842,9.3061,9.1356,9.0527,9.0118,9.0001,9.0021,9.0021,9.0021,9.0021,9.0021,9.0021,9.0021,9.0021,9.0021,9.0021,9.0021,9.0021,9.0021,9.0021,9.0021,9.0021,9.0021,9.0021,9.0021,9.0021,9.0021,9.0021,9.0167,9.0265,9.0606,9.0899,9.1436,9.1894,9.2607,9.3613,9.4522,9.5255,9.5889,9.6151,9.6395,9.6395,9.6395,9.6395,9.6395,9.6395,9.6395,9.6395,9.6395,9.6395,9.6395,9.6395,9.6395,9.6395,9.6395,9.6395,9.6395,9.6395,9.6395,9.6395,9.6395,9.6395,9.6395,9.6395,9.6395,9.6395,9.6395,9.6395,9.6395,9.6395,9.6395,9.6395,9.6395,9.6395,9.6395,9.6395,9.6395,9.6395,9.6395,9.6395,9.6395,9.6395,9.6395,9.6395,9.6395,9.6395,9.6395,9.6395,9.6395,9.6395,9.6395,9.6395,9.6395,9.6395,10.7342,10.7342,10.7342,10.7342,10.7342,10.7342,10.7342,10.7342,10.7342,10.7342,10.7342,10.7342,10.7342,10.7342,10.7342,10.7342,10.7038,10.5808,10.4696,10.3132,10.0207,9.7385,9.4954,9.3061,9.1817,9.0177,9.0031,9.006,9.0021,9.0021,9.0021,9.0021,9.0021,9.0021,9.0021,9.0021,9.0021,9.0021,9.0021,9.0021,9.0021,9.0021,9.0021,9.0021,9.0021,9.0021,9.0021,9.0021,9.0021,9.0021,9.0021,9.0021,9.0167,9.0479,9.0997,9.168,9.2509,9.3564,9.4602,9.5334,9.5743,9.62,9.6395,9.6346,9.6346,9.6395,9.6395,9.6395,9.6395,9.6395,9.6395,9.6395,9.6395,9.6395,9.6395,9.6395,9.6395,9.6395,9.6395,9.6395,9.6395,9.6395,9.6395,9.6395,9.6395,9.6395,9.6395,9.6395,9.6395,9.6395,9.6395,9.6395,9.6395,9.6395,9.6395,9.6395,9.6395,9.6395,9.6395,9.6395,9.6395,9.6395,9.6395,9.6395,9.6395,9.6395,9.6395,9.6395,9.6395,9.6395,9.6395,9.6395,9.6395,9.6395,9.6395,10.7342,10.7342,10.7342,10.7342,10.7342,10.7342,10.7342,10.7342,10.7342,10.7342,10.7342,10.7342,10.7342,10.7342,10.7342,10.7342,10.7342,10.6718,10.5833,10.4646,10.29,9.9995,9.7277,9.596,9.369,9.1904,9.0827,9.0943,9.0235,9.0021,9.0021,9.0021,9.0021,9.0021,9.0021,9.0021,9.0021,9.0021,9.0021,9.0021,9.0021,9.0021,9.0021,9.0021,9.0021,9.0021,9.0021,9.0021,9.0021,9.0021,9.0021,9.0021,9.0021,9.0021,9.046,9.1094,9.1552,9.2509,9.3467,9.415,9.4913,9.5517,9.5956,9.6182,9.6329,9.6395,9.6395,9.6395,9.6395,9.6395,9.6395,9.6395,9.6395,9.6395,9.6395,9.6395,9.6395,9.6395,9.6395,9.6395,9.6395,9.6395,9.6395,9.6395,9.6395,9.6395,9.6395,9.6395,9.6395,9.6395,9.6395,9.6395,9.6395,9.6395,9.6395,9.6395,9.6395,9.6395,9.6395,9.6395,9.6395,9.6395,9.6395,9.6395,9.6395,9.6395,9.6395,9.6395,9.6395,9.6395,9.6395,9.6395,9.6395,9.6395,9.6395,10.7342,10.7342,10.7342,10.7342,10.7342,10.7342,10.7342,10.7342,10.7342,10.7342,10.7342,10.7342,10.7342,10.7342,10.7342,10.7342,10.7342,10.7342,10.6767,10.689,10.4747,10.2874,10.0759,9.9434,9.6703,9.4818,9.3487,9.2284,9.0739,9.0021,9.0021,9.0021,9.0021,9.0021,9.0021,9.0021,9.0021,9.0021,9.0021,9.0021,9.0021,9.0021,9.0021,9.0021,9.0021,9.0021,9.0021,9.0021,9.0021,9.0021,9.0021,9.0021,9.0021,9.0021,9.0021,9.0411,9.0997,9.1729,9.2284,9.2948,9.3808,9.4522,9.5011,9.5499,9.5889,9.6053,9.6298,9.6346,9.6395,9.6395,9.6395,9.6395,9.6395,9.6395,9.6395,9.6395,9.6395,9.6395,9.6395,9.6395,9.6395,9.6395,9.6395,9.6395,9.6395,9.6395,9.6395,9.6395,9.6395,9.6395,9.6395,9.6395,9.6395,9.6395,9.6395,9.6395,9.6395,9.6395,9.6395,9.6395,9.6395,9.6395,9.6395,9.6395,9.6395,9.6395,9.6395,9.6395,9.6395,9.6395,9.6395,9.6395,9.6395,9.6395,9.6395,10.7342,10.7342,10.7342,10.7342,10.7342,10.7342,10.7342,10.7342,10.7342,10.7342,10.7342,10.7342,10.7342,10.7342,10.7342,10.7342,10.7342,10.7342,10.7284,10.7087,10.6156,10.4664,10.3285,10.1493,9.9488,9.7059,9.5209,9.4197,9.2656,9.1327,9.0001,9.0001,9.0021,9.0021,9.0021,9.0021,9.0021,9.0021,9.0021,9.0021,9.0021,9.0021,9.0021,9.0021,9.0021,9.0021,9.0021,9.0021,9.0021,9.0021,9.0021,9.0021,9.0021,9.0021,9.0021,9.007,9.0558,9.087,9.1406,9.1973,9.2704,9.3613,9.4474,9.4913,9.5255,9.545,9.5841,9.6151,9.6298,9.6395,9.6395,9.6395,9.6395,9.6395,9.6395,9.6395,9.6395,9.6395,9.6395,9.6395,9.6395,9.6395,9.6395,9.6395,9.6395,9.6395,9.6395,9.6395,9.6395,9.6395,9.6395,9.6395,9.6395,9.6395,9.6395,9.6395,9.6395,9.6395,9.6395,9.6395,9.6395,9.6395,9.6395,9.6395,9.6395,9.6395,9.6395,9.6395,9.6395,9.6395,9.6395,9.6395,9.6395,9.6395,9.6395,10.7342,10.7342,10.7342,10.7342,10.7342,10.7342,10.7342,10.7342,10.7342,10.7342,10.7342,10.7342,10.7342,10.7342,10.7342,10.7342,10.7342,10.7342,10.7342,10.721,10.6964,10.5833,10.4948,10.4133,10.238,10.0126,9.8119,9.684,9.5209,9.2684,9.1348,9.0177,8.9972,9.0021,9.0021,9.0021,9.0021,9.0021,9.0021,9.0021,9.0021,9.0021,9.0021,9.0021,9.0021,9.0021,9.0021,9.0021,9.0021,9.0021,9.0021,9.0021,9.0021,9.0021,9.0021,9.0021,9.007,9.0235,9.0918,9.1113,9.1582,9.2607,9.3271,9.3839,9.4034,9.4229,9.4815,9.5352,9.5743,9.6102,9.6298,9.6346,9.6395,9.6395,9.6395,9.6395,9.6395,9.6395,9.6395,9.6395,9.6395,9.6395,9.6395,9.6395,9.6395,9.6395,9.6395,9.6395,9.6395,9.6395,9.6395,9.6395,9.6395,9.6395,9.6395,9.6395,9.6395,9.6395,9.6395,9.6395,9.6395,9.6395,9.6395,9.6395,9.6395,9.6395,9.6395,9.6395,9.6395,9.6395,9.6395,9.6395,9.6395,9.6395,9.6395,10.7342,10.7342,10.7342,10.7342,10.7342,10.7342,10.7342,10.7342,10.7342,10.7342,10.7342,10.7342,10.7342,10.7342,10.7342,10.7342,10.7342,10.7342,10.7342,10.7342,10.7342,10.7161,10.6783,10.6561,10.4948,10.3521,10.1835,9.9781,9.8254,9.557,9.2713,9.0972,9.0294,9.0021,9.0021,9.0021,9.0021,9.0021,9.0021,9.0021,9.0021,9.0021,9.0021,9.0021,9.0021,9.0021,9.0021,9.0021,9.0021,9.0021,9.0021,9.0021,9.0021,9.0021,9.0021,9.0021,9.0021,9.0021,9.0265,9.0314,9.0802,9.1485,9.1826,9.1748,9.2119,9.2881,9.3711,9.4474,9.5206,9.5694,9.62,9.6298,9.6395,9.6395,9.6395,9.6395,9.6395,9.6395,9.6395,9.6395,9.6395,9.6395,9.6395,9.6395,9.6395,9.6395,9.6395,9.6395,9.6395,9.6395,9.6395,9.6395,9.6395,9.6395,9.6395,9.6395,9.6395,9.6395,9.6395,9.6395,9.6395,9.6395,9.6395,9.6395,9.6395,9.6395,9.6395,9.6395,9.6395,9.6395,9.6395,9.6395,9.6395,9.6395,9.6298,10.7342,10.7342,10.7342,10.7342,10.7342,10.7342,10.7342,10.7342,10.7342,10.7342,10.7342,10.7342,10.7342,10.7342,10.7342,10.7342,10.7342,10.7342,10.7342,10.7342,10.7342,10.7342,10.7342,10.7087,10.6412,10.5658,10.4133,10.2823,10.1336,9.8497,9.5791,9.3175,9.1001,9.0399,8.9972,8.9884,8.9826,8.9728,8.9728,8.9777,8.9777,8.9923,8.9923,8.9923,8.9972,9.0021,9.0021,9.0021,9.0021,9.0021,9.0021,9.0021,9.0021,9.0021,9.0021,9.0021,9.0021,9.0021,9.0021,9.0021,9.0167,9.0606,9.0558,9.087,9.1552,9.1826,9.2656,9.3564,9.4474,9.4962,9.5401,9.628,9.6329,9.6395,9.6395,9.6395,9.6395,9.6395,9.6395,9.6395,9.6395,9.6395,9.6395,9.6395,9.6151,9.6249,9.6298,9.6395,9.6395,9.6395,9.6395,9.6395,9.6346,9.6298,9.6249,9.6249,9.6249,9.6395,9.6395,9.6395,9.6395,9.6395,9.6395,9.6395,9.6395,9.6395,9.6395,9.6346,9.6169,9.6169,9.6102,9.6102,9.6395,9.6249,9.6085,10.7342,10.7342,10.7342,10.7051,10.6736,10.7085,10.7342,10.7342,10.7342,10.7342,10.7342,10.7342,10.7342,10.7342,10.7342,10.7342,10.7342,10.7342,10.7342,10.7342,10.7342,10.7284,10.7342,10.7342,10.721,10.6742,10.5833,10.4589,10.4203,10.1548,9.89,9.6564,9.4034,9.1333,9.0349,8.911,8.8928,8.8928,8.8947,8.8947,8.8899,8.922,8.9464,8.9416,8.9855,8.9972,9.0021,9.0021,9.0021,9.0021,9.0021,9.0021,9.0021,9.0021,9.0021,9.0021,9.0021,9.0021,9.0021,8.9972,8.9972,9.0021,9.0118,9.0382,9.0821,9.0967,9.1601,9.246,9.3095,9.3692,9.4358,9.5206,9.5694,9.5792,9.6182,9.62,9.6151,9.62,9.6151,9.6102,9.6395,9.6395,9.6395,9.6395,9.5663,9.5419,9.4833,9.4882,9.5175,9.537,9.5712,9.5712,9.5761,9.5907,9.5956,9.5663,9.5645,9.6053,9.6298,9.62,9.6298,9.6395,9.6346,9.6249,9.6298,9.6395,9.6395,9.6346,9.612,9.5534,9.4949,9.4754,9.4882,9.498,9.5108,10.7284,10.7284,10.7284,10.6503,10.534,10.662,10.6993,10.6819,10.6852,10.6935,10.7027,10.7284,10.7342,10.7284,10.6993,10.7109,10.7168,10.6993,10.6935,10.6819,10.6644,10.6877,10.6877,10.6702,10.6411,10.7051,10.6262,10.5702,10.6377,10.3473,10.2366,10.0213,9.6645,9.3694,9.1049,8.8389,8.6893,8.6801,8.6919,8.7016,8.7289,8.7972,8.8264,8.8508,8.8996,8.924,8.924,8.924,8.924,8.924,8.9338,8.9338,8.9484,8.9533,8.9728,8.9826,8.9874,9.0021,8.9923,8.9874,8.9631,8.9406,8.9143,8.9358,8.9728,8.9874,9.0118,9.0479,9.1309,9.1924,9.2881,9.3888,9.4327,9.4766,9.545,9.5743,9.5614,9.5565,9.5419,9.529,9.5858,9.6249,9.6249,9.5956,9.4931,9.415,9.3369,9.3223,9.3515,9.3857,9.4248,9.4345,9.4394,9.4638,9.498,9.4913,9.5108,9.5809,9.6005,9.5614,9.5565,9.5468,9.5663,9.6053,9.5809,9.5273,9.5712,9.62,9.5242,9.4266,9.3778,9.3534,9.3369,9.3369,9.3515,10.676,10.6096,10.691,10.5514,10.2839,10.3013,10.3735,10.4433,10.4632,10.5015,10.598,10.6935,10.7342,10.6993,10.6445,10.6271,10.6503,10.5631,10.5398,10.534,10.5165,10.4608,10.455,10.4666,10.4957,10.4573,10.455,10.4666,10.4816,10.3805,10.2383,10.0639,9.8467,9.7295,9.5161,9.2218,8.8589,8.716,8.6675,8.6675,8.6654,8.7045,8.724,8.7337,8.763,8.7923,8.7972,8.802,8.7972,8.7923,8.7874,8.7825,8.802,8.8313,8.8781,8.9123,8.9513,8.9972,8.9533,8.885,8.765,8.7943,8.7923,8.7874,8.765,8.7679,8.8118,8.848,8.9045,8.9464,8.9708,9.1612,9.2686,9.332,9.4052,9.4718,9.4638,9.4687,9.4589,9.4461,9.4296,9.4345,9.4394,9.4443,9.3662,9.3125,9.2637,9.2509,9.2539,9.2637,9.2979,9.3125,9.3027,9.3467,9.4004,9.3857,9.3906,9.4559,9.4784,9.454,9.4443,9.3973,9.3973,9.454,9.4638,9.4199,9.4101,9.4119,9.3631,9.2997,9.3046,9.2997,9.2735,9.2442,9.2442,10.3828,10.3164,10.4002,10.3188,10.1443,10.1443,10.2222,10.3293,10.341,10.391,10.4666,10.5422,10.5771,10.5597,10.4957,10.5131,10.5422,10.391,10.4142,10.4084,10.391,10.3502,10.3386,10.3526,10.3351,10.3526,10.3468,10.341,10.3351,10.3405,10.1624,10.0076,9.9305,9.8862,9.744,9.4061,9.0525,8.828,8.6995,8.6271,8.6059,8.5776,8.6118,8.6166,8.6313,8.6675,8.6626,8.6626,8.6675,8.6724,8.6772,8.687,8.7016,8.7435,8.7707,8.7854,8.8167,8.846,8.8216,8.7553,8.6675,8.6675,8.6626,8.6772,8.6919,8.6772,8.6675,8.6821,8.7484,8.8216,8.8439,8.9874,9.1113,9.1699,9.2412,9.3125,9.3418,9.3613,9.3564,9.368,9.332,9.2881,9.293,9.2979,9.2588,9.2119,9.1973,9.1826,9.1631,9.1661,9.1924,9.207,9.171,9.1954,9.3223,9.3095,9.2674,9.3046,9.3369,9.3515,9.3662,9.3125,9.2802,9.3125,9.332,9.3369,9.3095,9.246,9.1924,9.1533,9.1631,9.207,9.1973,9.168,9.1387,9.942,9.9152,9.9174,9.9791,10.0884,10.1036,10.1699,10.2455,10.2886,10.3037,10.327,10.3386,10.356,10.3526,10.3584,10.3444,10.3502,10.3211,10.3119,10.3119,10.3119,10.2746,10.263,10.2571,10.2804,10.2804,10.2571,10.263,10.2979,10.2455,10.1385,9.9862,9.9507,9.7989,9.6708,9.5575,9.2611,9.0103,8.7659,8.6365,8.5378,8.4706,8.5078,8.5218,8.5874,8.6459,8.6459,8.6215,8.6069,8.6069,8.602,8.602,8.5971,8.6361,8.6605,8.6703,8.6996,8.6947,8.6605,8.6138,8.6313,8.641,8.6264,8.602,8.5874,8.6264,8.6382,8.6166,8.6048,8.678,8.7854,8.9123,8.9923,9.0606,9.1338,9.1905,9.2149,9.2344,9.2539,9.2802,9.2656,9.2217,9.2149,9.2002,9.1661,9.1094,9.0899,9.0948,9.0753,9.0802,9.1045,9.1045,9.0558,9.1045,9.2412,9.2314,9.1777,9.1826,9.2002,9.2246,9.2588,9.2588,9.2198,9.2295,9.21,9.246,9.2607,9.168,9.0899,9.0265,9.0118,9.0704,9.0802,9.085,9.0606,9.7872,9.5335,9.5277,9.6055,9.7241,9.7241,9.8033,9.921,10.0198,10.1071,10.1734,10.199,10.249,10.3037,10.2455,10.2397,10.3153,10.1326,10.121,10.1326,10.1094,10.0664,10.0803,10.0687,10.0664,10.0489,10.0919,10.0861,10.0722,10.0547,10.0431,9.9617,9.9559,9.902,9.8109,9.6757,9.5466,9.2912,8.9883,8.7697,8.6383,8.5103,8.4358,8.4183,8.4193,8.4367,8.434,8.4437,8.4437,8.4514,8.4584,8.4681,8.4758,8.5218,8.5511,8.5657,8.6069,8.5874,8.5023,8.4633,8.4367,8.4367,8.434,8.4633,8.4535,8.4367,8.4416,8.4584,8.4611,8.5072,8.5853,8.7024,8.8264,8.9387,9.0441,9.0558,9.0753,9.0899,9.1094,9.1338,9.1387,9.1192,9.1192,9.1026,9.0685,9.0167,9.0021,9.007,9.0118,9.0216,9.0362,9.046,9.0167,9.0411,9.0997,9.085,9.0704,9.0558,9.0558,9.0753,9.0997,9.1045,9.1319,9.1026,9.0636,9.0997,9.1485,9.0704,9.0021,9.0021,9.0021,9.0021,9.0021,9.007,9.0021,9.6418,9.5372,9.3707,9.4405,9.6382,9.6019,9.6812,9.8315,9.9187,9.9966,10.0489,10.0628,10.0977,10.1385,10.1036,10.1094,10.1245,10.0256,10.0024,10.0315,10.0024,9.9617,9.9559,9.9559,9.9559,9.9733,9.9559,9.9559,9.9559,9.9617,9.9559,9.9559,9.9559,9.9559,9.9066,9.7959,9.747,9.6086,9.3422,9.054,8.8861,8.6859,8.5345,8.5268,8.4209,8.3819,8.3684,8.3586,8.3586,8.3586,8.3586,8.3586,8.3781,8.4123,8.4486,8.4535,8.5072,8.4779,8.383,8.3684,8.3684,8.3635,8.3635,8.3586,8.3586,8.3684,8.3684,8.3586,8.3586,8.4172,8.5169,8.6097,8.717,8.8342,8.9708,9.0001,9.0216,9.0021,8.9923,8.9972,9.007,9.0314,9.046,9.0411,9.0265,9.0021,9.0021,9.0021,9.0021,9.0021,9.0021,9.0021,9.0021,9.0021,9.0021,9.0021,9.0118,9.0167,9.0167,9.0118,9.0021,9.0021,9.0314,9.0216,8.9972,8.9972,9.007,9.0021,9.0021,9.0021,9.0021,9.0021,9.0021,8.9972,8.9972,9.5742,9.7304,9.4013,9.4499,9.7152,9.6499,9.7335,9.9129,9.9361,9.9559,9.971,9.9617,9.9652,9.9791,9.9652,9.9617,9.9675,9.9559,9.9675,9.9791,9.9594,9.9559,9.9559,9.9559,9.9559,9.9559,9.9559,9.9559,9.9559,9.9559,9.9559,9.9559,9.9559,9.9559,9.9559,9.9089,9.9559,9.9066,9.7109,9.4642,9.2042,8.9347,8.7905,8.6885,8.5455,8.4159,8.3667,8.3586,8.3586,8.3586,8.3586,8.3586,8.3586,8.3586,8.3586,8.3586,8.3586,8.3586,8.3635,8.3586,8.3586,8.3586,8.3586,8.3586,8.3586,8.3586,8.3586,8.3586,8.3586,8.4074,8.5072,8.5922,8.6975,8.7951,8.8684,8.9143,8.9708,8.9416,8.9679,8.9728,8.9484,8.9582,8.9826,8.9923,8.9972,8.9972,9.0021,9.0021,9.0021,9.0021,9.0021,9.0021,9.0021,9.0021,9.0021,9.0021,9.007,9.0021,9.0021,9.0021,9.0021,9.0021,8.9972,8.9777,8.966,8.9611,8.9826,9.0021,9.0021,9.0021,9.0021,9.0021,8.9923,8.9923,8.9874,9.8105,9.7537,9.6723,9.6897,9.7479,9.7304,9.7537,9.814,9.9071,9.9559,9.9559,9.9559,9.9559,9.9559,9.9559,9.9559,9.9559,9.9559,9.9559,9.9559,9.9559,9.9559,9.9559,9.9559,9.9559,9.9559,9.9559,9.9559,9.9559,9.9559,9.9559,9.95,9.9559,9.9559,9.9384,9.9152,9.9559,9.9422,9.8814,9.7423,9.4811,9.2141,8.9833,8.7566,8.6991,8.5647,8.4079,8.373,8.3644,8.3737,8.3521,8.3537,8.3586,8.3586,8.3586,8.3586,8.3586,8.3586,8.3488,8.3439,8.3293,8.3418,8.3537,8.3613,8.3613,8.3586,8.3586,8.3586,8.3586,8.4025,8.4779,8.5337,8.6048,8.6878,8.7337,8.7679,8.8439,8.8781,8.8996,8.8928,8.9025,8.9123,8.9387,8.9455,8.924,8.924,8.9143,8.924,8.9191,8.9338,8.9338,8.9533,8.9582,8.9582,8.9484,8.9338,8.924,8.9143,8.9191,8.9191,8.9435,8.9631,8.9728,8.9513,8.9318,8.8879,8.9679,9.0021,8.9484,8.9309,8.9777,8.9826,8.9387,8.9289,8.9094,9.8176,9.7537,9.6942,9.6731,9.6825,9.7326,9.7595,9.7769,9.8954,9.9559,9.9559,9.9559,9.9559,9.9559,9.9559,9.9559,9.9559,9.9559,9.9559,9.9559,9.9559,9.9559,9.9559,9.9559,9.9559,9.95,9.95,9.9559,9.9559,9.95,9.9559,9.9361,9.8838,9.8606,9.8489,9.8105,9.7742,9.7684,9.7595,9.6908,9.5565,9.454,9.2249,8.9875,8.8294,8.7018,8.5463,8.4663,8.4076,8.4162,8.296,8.2792,8.2902,8.2756,8.1921,8.1948,8.1899,8.1921,8.197,8.197,8.2365,8.2734,8.2832,8.3027,8.3418,8.3488,8.3586,8.3586,8.3586,8.383,8.4318,8.4877,8.5365,8.595,8.6508,8.6996,8.7435,8.7532,8.7435,8.7191,8.717,8.7435,8.8187,8.8606,8.8508,8.8411,8.8313,8.8264,8.8167,8.8118,8.7943,8.7992,8.7943,8.7943,8.7894,8.7874,8.7874,8.7923,8.802,8.7992,8.8089,8.7992,8.8264,8.8586,8.8313,8.7728,8.8313,8.8703,8.848,8.8284,8.8382,8.8431,8.8431,8.8333,8.7943,9.7537,9.7827,9.6637,9.6252,9.6601,9.7501,9.7944,9.8082,9.9071,9.9559,9.9559,9.9559,9.9559,9.9559,9.9559,9.9559,9.9559,9.9559,9.9559,9.9559,9.9559,9.9559,9.9559,9.9559,9.9152,9.9093,9.8744,9.857,9.8628,9.8919,9.8476,9.8534,9.7814,9.7326,9.7058,9.6462,9.6194,9.631,9.623,9.6172,9.5805,9.534,9.4083,9.1471,8.9682,8.828,8.7301,8.5678,8.4819,8.5081,8.2474,8.231,8.282,8.1359,8.0458,8.0454,8.0627,8.0724,8.0649,8.0454,8.0897,8.1438,8.1757,8.217,8.2658,8.2902,8.2658,8.2729,8.2778,8.2875,8.3076,8.3412,8.4144,8.441,8.4724,8.5337,8.5532,8.5386,8.5016,8.5002,8.5121,8.5337,8.641,8.7093,8.7337,8.7581,8.7532,8.7484,8.7435,8.726,8.6967,8.6772,8.6577,8.6529,8.6529,8.6703,8.6849,8.7045,8.7191,8.7163,8.7065,8.6724,8.648,8.6752,8.6703,8.6703,8.6849,8.7016,8.7114,8.7455,8.7114,8.6772,8.7163,8.7553,8.7114,9.7313,9.9129,9.785,9.7966,9.8896,9.9013,9.8954,9.9071,9.9478,9.9268,9.9559,9.9559,9.9442,9.9559,9.9559,9.9559,9.9559,9.9559,9.9361,9.9384,9.9326,9.9268,9.9152,9.8977,9.8337,9.6543,9.6659,9.6659,9.6601,9.6368,9.6892,9.6485,9.6135,9.6113,9.6077,9.5808,9.5459,9.5401,9.5401,9.5459,9.5495,9.543,9.4258,9.2203,9.0888,8.9975,8.8321,8.7257,8.6235,8.4362,8.3705,8.3605,8.3071,8.112,7.9287,8.0162,8.0015,7.9944,7.9895,8.0064,8.0162,8.0454,8.0529,8.0675,8.087,8.1066,8.1141,8.1017,8.1039,8.1039,8.0822,8.1358,8.1358,8.1283,8.1234,8.1726,8.2268,8.1802,8.2046,8.2294,8.2902,8.3559,8.4605,8.5212,8.609,8.6724,8.6724,8.6724,8.6772,8.6675,8.6431,8.6215,8.602,8.5922,8.5922,8.602,8.6166,8.6361,8.6557,8.6557,8.6557,8.6118,8.5727,8.5581,8.5532,8.595,8.6146,8.5971,8.6118,8.6626,8.648,8.5971,8.6166,8.6626,8.6166,9.6543,9.751,9.6928,9.6615,9.6651,9.7197,9.7161,9.6731,9.7197,9.7872,9.8373,9.8467,9.8896,9.9478,9.9559,9.95,9.9559,9.9536,9.9129,9.8547,9.8489,9.8163,9.7778,9.7393,9.7102,9.6135,9.575,9.5808,9.5808,9.5866,9.5692,9.5808,9.5088,9.4855,9.4797,9.404,9.3924,9.3866,9.3786,9.3728,9.3728,9.3786,9.2851,9.2096,9.1767,9.1401,8.984,8.8786,8.7777,8.715,8.6551,8.523,8.2552,8.0823,7.9405,7.8888,7.8652,7.8604,7.8678,7.8652,7.8871,7.9407,7.9482,7.9749,8.0113,8.0259,8.0259,8.0259,8.021,8.0259,8.0259,8.0259,8.0259,8.0259,8.0308,8.048,8.0702,7.9654,7.9068,8.0045,8.0826,8.1655,8.2165,8.2383,8.3038,8.37,8.3846,8.434,8.4486,8.4849,8.4898,8.5218,8.5169,8.5169,8.5169,8.5288,8.5413,8.5483,8.5532,8.556,8.556,8.5267,8.5023,8.4681,8.4388,8.4855,8.5197,8.4953,8.4877,8.5218,8.5316,8.5121,8.521,8.5771,8.5558,9.5697,9.5786,9.5517,9.4972,9.4564,9.5342,9.5342,9.4564,9.5517,9.6462,9.7058,9.721,9.7733,9.8628,9.8534,9.8767,9.8534,9.8476,9.8199,9.721,9.721,9.644,9.5204,9.4972,9.4913,9.4877,9.4913,9.4913,9.4855,9.4681,9.4972,9.4739,9.3844,9.3517,9.3379,9.266,9.1941,9.1941,9.1999,9.2173,9.2194,9.2173,9.211,9.2004,9.1946,9.193,9.1518,9.0042,8.946,8.9703,8.8811,8.6537,8.3621,8.1721,8.0133,7.8759,7.7888,7.7263,7.7239,7.7434,7.7604,7.8311,7.8408,7.8724,7.9554,7.9456,7.9505,7.9602,7.9602,7.9407,7.9358,7.9528,7.9407,7.931,7.9358,7.9456,7.9358,7.8164,7.7751,7.8336,7.875,7.9066,7.9895,8.0405,8.0698,8.0529,8.1043,8.1611,8.2072,8.2485,8.3,8.3586,8.3662,8.383,8.3976,8.4388,8.4416,8.4367,8.4269,8.4221,8.4221,8.4025,8.4221,8.3976,8.3586,8.3684,8.4123,8.3976,8.4205,8.3906,8.3781,8.4738,8.5432,8.5157,8.5223,9.5288,9.575,9.4564,9.4681,9.5379,9.5692,9.5284,9.5517,9.5459,9.5728,9.5961,9.5961,9.623,9.6216,9.6659,9.631,9.631,9.6601,9.6252,9.6252,9.5844,9.4833,9.303,9.2834,9.2797,9.2739,9.2427,9.2564,9.2776,9.266,9.2485,9.266,9.2485,9.2194,9.2252,9.2136,9.1941,9.1941,9.1941,9.1941,9.1941,9.1766,9.1708,9.1708,9.1708,9.1708,9.1661,9.1587,9.1217,9.1613,8.9471,8.7762,8.6785,8.2764,8.0771,7.9729,7.7991,7.7092,7.719,7.719,7.7311,7.7409,7.7458,7.7458,7.7702,7.7823,7.7848,7.7897,7.7507,7.7799,7.7774,7.7653,7.7751,7.7897,7.7702,7.7555,7.7458,7.7336,7.7239,7.736,7.8239,7.8652,7.9115,7.9602,8.0162,7.9531,8.0041,8.0435,8.0679,8.1141,8.1655,8.2121,8.2392,8.2539,8.2978,8.3439,8.3439,8.3488,8.3488,8.3293,8.3293,8.3293,8.3439,8.3586,8.3586,8.3586,8.3586,8.3667,8.3825,8.3862,8.4595,8.5455,8.6438,8.6964,8.7227,9.5038,9.5071,9.2661,9.1941,9.2427,9.2485,9.2485,9.2623,9.3204,9.3982,9.4622,9.4681,9.5146,9.5808,9.5808,9.5808,9.5808,9.5808,9.5808,9.567,9.503,9.3728,9.2348,9.1941,9.1941,9.1941,9.1962,9.1941,9.1941,9.1941,9.1941,9.1941,9.1941,9.1941,9.1941,9.1941,9.1941,9.1962,9.1941,9.1941,9.1824,9.1243,9.0873,9.0815,9.0815,9.0836,9.0952,9.1554,9.1147,8.9778,8.8705,8.6843,8.4282,8.1959,8.0026,7.7808,7.6929,7.658,7.697,7.719,7.719,7.7165,7.719,7.719,7.7116,7.719,7.719,7.7141,7.719,7.719,7.719,7.719,7.719,7.7165,7.719,7.7165,7.7165,7.7092,7.719,7.7263,7.7555,7.7848,7.7848,7.819,7.8434,7.8555,7.8822,7.9115,7.9261,8.0041,8.0627,8.1167,8.146,8.1708,8.205,8.2685,8.2832,8.3195,8.3195,8.2778,8.268,8.2631,8.2951,8.3342,8.3488,8.3586,8.3586,8.364,8.3747,8.4306,8.5644,8.6832,8.8732,8.9909,9.0087,9.5078,9.3857,9.1518,9.0292,8.998,8.998,9.0038,9.0175,9.1126,9.2252,9.3204,9.3379,9.3924,9.476,9.4739,9.4797,9.4681,9.4681,9.4797,9.4601,9.3786,9.2834,9.2136,9.1941,9.1941,9.1941,9.1941,9.1941,9.1941,9.1941,9.1941,9.1941,9.1941,9.1941,9.1941,9.1941,9.1845,9.1496,9.1417,9.1243,9.0777,8.9885,8.9478,8.9498,8.9498,8.9498,8.9594,9.0449,8.9926,8.8181,8.8006,8.6095,8.2868,8.1567,7.9743,7.6991,7.5772,7.553,7.6091,7.6189,7.6238,7.6286,7.6042,7.6286,7.6286,7.653,7.6751,7.6799,7.7092,7.719,7.719,7.719,7.719,7.7116,7.6433,7.6091,7.614,7.6286,7.6311,7.6262,7.6189,7.6214,7.6214,7.6238,7.6286,7.6384,7.675,7.7237,7.7091,7.7579,7.7846,7.8848,7.9801,8.0315,8.1081,8.1765,8.2152,8.2397,8.1837,8.1103,8.0777,8.0777,8.1535,8.2365,8.1682,8.1753,8.2241,8.2998,8.3598,8.3839,8.4832,8.5538,8.8298,9.1212,9.11,9.559,9.2239,9.185,9.094,8.9885,8.9748,8.9748,8.9943,9.0175,9.0952,9.1962,9.2231,9.2311,9.2231,9.2601,9.2601,9.2231,9.2485,9.2601,9.2485,9.2289,9.2194,9.1962,9.1941,9.1941,9.1941,9.1941,9.1941,9.1941,9.1941,9.1941,9.1941,9.1941,9.1941,9.1787,9.1903,9.1243,9.0233,9.0138,8.9556,8.853,8.8239,8.8181,8.8161,8.8201,8.8181,8.8102,8.8181,8.8181,8.8006,8.7715,8.6389,8.4337,8.2281,7.957,7.7073,7.5112,7.4331,7.4066,7.4407,7.4383,7.4432,7.4432,7.4041,7.4481,7.5188,7.5701,7.575,7.6409,7.6995,7.6946,7.6897,7.6921,7.6872,7.5457,7.4481,7.4115,7.4236,7.4432,7.4334,7.409,7.409,7.4383,7.4334,7.4334,7.4383,7.4481,7.4773,7.4871,7.5213,7.5066,7.5701,7.6751,7.771,7.94,7.9942,7.9897,7.9701,7.8819,7.8101,7.7653,7.7897,7.8434,7.9068,7.9264,7.9726,8.0295,8.1284,8.2082,8.4137,8.4977,8.4212,8.6112,8.9439,9.1021,9.5577,9.3001,9.0852,8.9065,8.7599,8.7559,8.8044,8.8858,8.9594,9.0699,9.1708,9.1962,9.1941,9.1941,9.1941,9.1941,9.1941,9.1941,9.1941,9.1941,9.1941,9.1941,9.1941,9.1941,9.1941,9.1941,9.1941,9.1941,9.1941,9.1941,9.1962,9.1941,9.1941,9.1592,9.0777,9.0699,9.008,8.8975,8.8762,8.8568,8.8006,8.725,8.6843,8.6843,8.6823,8.6823,8.6765,8.6047,8.564,8.566,8.5582,8.3836,8.0448,7.8051,7.5957,7.447,7.3437,7.3163,7.3773,7.3748,7.3846,7.3846,7.3846,7.3846,7.3944,7.4139,7.4481,7.4529,7.492,7.5066,7.5091,7.5091,7.5091,7.5066,7.4236,7.3944,7.3846,7.3846,7.3846,7.3748,7.3748,7.3846,7.3846,7.3846,7.3846,7.3846,7.3846,7.3846,7.3846,7.3845,7.409,7.4456,7.4822,7.587,7.7486,7.7739,7.7669,7.7198,7.633,7.5795,7.5164,7.5384,7.5872,7.6579,7.7214,7.7628,7.8612,7.9566,8.0803,8.5088,8.7689,8.7588,8.8209,9.0481,9.1239,9.5461,9.3537,9.1215,8.9318,8.7927,8.7198,8.7417,8.8318,8.8537,8.9498,9.0566,9.074,9.074,9.074,9.074,9.0915,9.1301,9.0894,9.074,9.0682,9.0682,9.0624,9.0682,9.0682,9.074,9.0798,9.1147,9.1533,9.1845,9.1941,9.165,9.1417,9.1359,9.064,8.944,8.9382,8.8742,8.7599,8.7445,8.725,8.6765,8.5931,8.5524,8.5524,8.5544,8.5524,8.5466,8.4633,8.4226,8.4226,8.4148,8.2153,7.8141,7.5344,7.3415,7.2068,7.1843,7.2185,7.2796,7.2845,7.2796,7.2894,7.2894,7.2894,7.2894,7.3163,7.3358,7.3334,7.37,7.3846,7.3846,7.3846,7.3602,7.2991,7.2894,7.2796,7.2698,7.2796,7.2894,7.2894,7.2894,7.287,7.287,7.2772,7.2698,7.2723,7.2747,7.3216,7.3524,7.3282,7.2988,7.367,7.3715,7.4319,7.4902,7.514,7.5997,7.6632,7.5336,7.4397,7.3531,7.3259,7.387,7.4505,7.5017,7.5774,7.6877,7.7891,7.8829,8.1818,8.5106,8.8098,9.1006,9.1907,9.1727,9.5351,9.353,9.3447,9.2366,9.0859,8.9146,8.8672,8.8461,8.7104,8.7288,8.8472,8.8297,8.853,8.8297,8.853,8.8879,8.9498,8.8742,8.8297,8.8413,8.8375,8.8375,8.8434,8.8492,8.8472,8.8472,8.9498,9.0661,9.1533,9.1475,9.101,9.0175,9.0001,8.9382,8.8064,8.8006,8.7425,8.6416,8.6125,8.5524,8.44,8.44,8.44,8.4323,8.4342,8.4342,8.4284,8.4206,8.4206,8.4284,8.4206,8.2074,7.8144,7.5105,7.2972,7.1253,7.0863,7.084,7.0889,7.1036,7.1133,7.1133,7.0938,7.1133,7.1329,7.1819,7.2308,7.2454,7.3089,7.3651,7.3602,7.3553,7.287,7.1231,7.111,7.1182,7.1036,7.0889,7.084,7.0987,7.1084,7.084,7.084,7.111,7.1208,7.1231,7.1205,7.1735,7.3035,7.222,7.2055,7.2865,7.283,7.3282,7.3049,7.2809,7.478,7.5936,7.4485,7.3151,7.2405,7.1794,7.2429,7.2526,7.3113,7.3431,7.4526,7.6837,7.7642,7.9243,8.0394,8.3284,8.6864,8.9934,9.0644,9.4545,9.2995,9.2798,9.1907,9.0265,8.8432,8.8099,8.856,8.6947,8.6843,8.789,8.8006,8.8006,8.8006,8.8006,8.789,8.7346,8.6978,8.725,8.8026,8.8006,8.8006,8.8006,8.8006,8.8006,8.8123,8.853,8.8879,8.9286,8.9365,8.9111,8.8684,8.8704,8.8064,8.6959,8.6765,8.6125,8.5059,8.4807,8.4633,8.4264,8.4148,8.4148,8.4148,8.4148,8.4148,8.4148,8.4148,8.4516,8.5233,8.4633,8.2494,7.8775,7.4381,7.147,7.088,7.0765,7.0765,7.0765,7.0765,7.0765,7.0765,7.0765,7.0765,7.0765,7.1012,7.1208,7.1329,7.1671,7.1745,7.1745,7.1794,7.1475,7.0938,7.0765,7.0765,7.0765,7.0765,7.0765,7.0765,7.0765,7.0765,7.0742,7.0765,7.0765,7.0765,7.0765,7.0903,7.163,7.1128,7.1128,7.1607,7.1584,7.2865,7.4413,7.5122,7.6647,7.5566,7.4052,7.2854,7.1904,7.1237,7.1084,7.101,7.1133,7.1403,7.2834,7.544,7.7451,7.9286,8.0526,8.2067,8.5112,8.7741,8.9322,9.4547,9.3523,9.3523,9.2858,9.1612,8.9833,8.9046,8.8997,8.7251,8.6538,8.6631,8.6649,8.6668,8.6629,8.6668,8.6183,8.5466,8.5408,8.5834,8.6532,8.6649,8.6649,8.6649,8.6668,8.6649,8.6765,8.7114,8.7579,8.7948,8.8006,8.7852,8.7483,8.7366,8.6707,8.564,8.5408,8.5001,8.4284,8.4148,8.4148,8.4148,8.4148,8.4148,8.4148,8.4148,8.4148,8.4148,8.4148,8.4749,8.6067,8.535,8.3346,8.0004,7.6065,7.2998,7.1066,7.0765,7.0765,7.0765,7.0765,7.0765,7.0765,7.0765,7.0765,7.0765,7.0765,7.0765,7.0814,7.0814,7.0765,7.0742,7.0765,7.0765,7.0765,7.0765,7.0765,7.0765,7.0765,7.0765,7.0765,7.0765,7.0765,7.0765,7.0765,7.0765,7.0811,7.147,7.2416,7.2955,7.3268,7.3883,7.4141,7.3861,7.3994,7.6552,7.6808,7.6851,7.5236,7.4427,7.364,7.1698,7.0903,7.0765,7.0814,7.0814,7.1036,7.1274,7.3709,7.4771,7.7,8.0282,8.23,8.6,8.7233,8.8612,9.5284,9.5254,9.5254,9.5083,9.5038,9.3112,9.1431,8.9647,8.7813,8.5968,8.4458,8.4342,8.4226,8.4342,8.4439,8.4206,8.4226,8.4264,8.4342,8.44,8.4342,8.4206,8.4148,8.4148,8.4264,8.4633,8.5582,8.659,8.7657,8.7774,8.725,8.6105,8.6047,8.5388,8.4458,8.4342,8.4148,8.4148,8.4148,8.4148,8.4148,8.4148,8.4225,8.4437,8.4225,8.4148,8.4168,8.4109,8.4691,8.6047,8.558,8.419,8.1236,7.9439,7.6041,7.1379,7.0645,7.0622,7.0742,7.0765,7.0765,7.0765,7.0765,7.0765,7.0765,7.0765,7.0765,7.0765,7.0765,7.0765,7.0765,7.0765,7.0765,7.0765,7.0765,7.0903,7.0995,7.1292,7.0949,7.1383,7.1675,7.1879,7.1402,7.1063,7.1539,7.197,7.3016,7.4778,7.6338,7.7085,7.7573,7.8359,7.7763,7.6509,7.4865,7.6036,7.623,7.4646,7.4295,7.5539,7.291,7.0765,7.0765,7.0765,7.0765,7.0765,7.0765,7.1478,7.2735,7.5031,7.8346,8.139,8.4198,8.6233,8.7686,9.5284,9.5284,9.5284,9.5284,9.5068,9.3285,9.1514,8.9668,8.7878,8.6024,8.4245,8.4148,8.4148,8.4148,8.4148,8.4148,8.4148,8.4148,8.4148,8.4148,8.4148,8.4148,8.4148,8.4148,8.4148,8.4226,8.4516,8.4943,8.5175,8.5214,8.5059,8.4768,8.471,8.4516,8.4206,8.4148,8.4148,8.4148,8.4148,8.4148,8.4206,8.4148,8.4818,8.5984,8.4914,8.4148,8.4168,8.3353,8.3896,8.5911,8.2723,8.0524,7.968,7.7068,7.3721,7.001,6.9506,6.9844,7.0694,7.0765,7.0765,7.0765,7.0765,7.0765,7.0765,7.0765,7.0765,7.0694,7.0765,7.0694,7.0765,7.0765,7.0765,7.0765,7.0765,7.1493,7.2843,7.315,7.3684,7.5418,7.5148,7.5722,7.5679,7.5527,7.5375,7.5388,7.608,7.7,7.7382,7.7636,7.7213,7.5984,7.5595,7.4791,7.4427,7.5826,7.5331,7.3795,7.3436,7.398,7.1561,7.0857,7.0742,7.0742,7.0742,7.0765,7.0765,7.0903,7.1751,7.4111,7.7479,8.1195,8.2878,8.5027,8.6569,9.5284,9.5284,9.5284,9.5284,9.5113,9.4148,9.2167,8.9788,8.8669,8.6645,8.4379,8.4148,8.4148,8.4148,8.4148,8.4148,8.4148,8.4148,8.4148,8.4148,8.4148,8.4148,8.4148,8.4148,8.4148,8.4168,8.3683,8.3702,8.3993,8.3683,8.3741,8.4109,8.4148,8.4148,8.4148,8.4148,8.4148,8.4148,8.4148,8.4971,8.6184,8.576,8.6281,8.7674,8.5136,8.3716,8.4293,8.2621,8.2809,8.4865,8.2637,8.0753,8.0003,7.7584,7.4434,7.0749,6.9532,6.9359,6.999,7.0062,7.0257,7.0742,7.0765,7.0765,7.0765,7.0765,7.0352,6.9645,6.9401,6.9622,6.9941,7.0062,7.0208,7.0671,7.0765,7.1197,7.2613,7.3411,7.4471,7.5886,7.6936,7.7467,7.7531,7.7531,7.7531,7.7573,7.8455,7.8872,7.9017,7.9753,7.9162,7.7402,7.6393,7.5364,7.3151,7.4572,7.3743,7.1219,7.1285,7.2197,7.0491,7.0062,7.0257,7.0694,7.0742,7.0765,7.0645,7.088,7.104,7.2394,7.5898,7.9107,8.2253,8.4163,8.5097,9.4824,9.4889,9.4955,9.5072,9.5006,9.4976,9.2838,8.9743,8.9601,8.7528,8.4108,8.3993,8.4051,8.4168,8.4148,8.4148,8.4148,8.4148,8.4148,8.4148,8.4148,8.4148,8.4148,8.4148,8.4148,8.4051,8.3042,8.3023,8.3838,8.2925,8.2984,8.3896,8.4168,8.4148,8.4206,8.4379,8.4475,8.4456,8.4589,8.6461,8.9685,8.8245,8.8174,8.98,8.5235,8.3399,8.4683,8.1969,8.1375,8.3586,8.3453,8.2534,8.062,7.9375,7.6687,7.2215,7.0091,6.8924,6.8876,6.8876,6.9311,7.0329,7.0329,7.0352,7.0329,7.04,6.9525,6.8113,6.7555,6.7994,6.8729,6.8898,6.9311,7.0257,7.0475,7.0782,7.1466,7.3016,7.4493,7.4624,7.7404,7.8237,7.8643,7.8685,7.8497,7.8872,8.0306,8.1141,8.1298,8.2451,8.2591,8.0539,7.9352,7.6382,7.2339,7.2502,7.1785,6.8756,6.9319,6.9813,6.9357,6.8947,6.9116,6.9694,7.0205,7.0156,7.0205,7.0449,7.0348,7.0797,7.2638,7.5256,7.9005,8.1957,8.3568,9.1945,9.2062,9.3165,9.361,9.3596,9.361,9.1565,8.8294,8.8131,8.6138,8.3034,8.2809,8.3295,8.4109,8.4148,8.4168,8.4148,8.4148,8.4168,8.4148,8.4148,8.4148,8.4148,8.4148,8.4148,8.3993,8.2984,8.2537,8.277,8.2537,8.2537,8.2867,8.3741,8.4148,8.4187,8.5669,8.641,8.6502,8.7817,8.9616,9.176,9.0112,8.9494,8.996,8.6507,8.4187,8.3361,8.0582,7.9688,8.1087,7.9562,7.8043,7.6937,7.5821,7.3589,7.0252,6.9288,6.8654,6.7874,6.7799,6.7896,6.8211,6.8211,6.8162,6.8211,6.8211,6.7967,6.7555,6.736,6.7506,6.7728,6.7799,6.8238,6.9191,6.9408,7.0307,7.2976,7.5366,7.7361,7.9231,8.1318,8.249,8.2648,8.2648,8.247,8.2334,8.3099,8.3431,8.3431,8.3761,8.2315,7.9299,7.764,7.5684,7.163,7.1234,7.0259,6.8042,6.7944,6.8042,6.7977,6.7776,6.8016,6.826,6.8331,6.8428,6.826,6.826,6.8309,6.8611,7.062,7.3095,7.4762,7.8237,8.1331,9.0944,9.1075,9.1799,9.2128,9.2113,9.2113,9.0083,8.6801,8.6126,8.4179,8.1657,8.1566,8.1878,8.2462,8.2443,8.2462,8.252,8.3139,8.3353,8.3411,8.3896,8.4148,8.4148,8.4148,8.4148,8.4051,8.2383,8.1857,8.2323,8.178,8.1839,8.2498,8.3625,8.4589,8.5519,8.6539,8.7483,8.8334,9.0303,9.1783,9.2708,9.0348,8.9616,9.0559,8.5811,8.321,8.334,7.97,7.8627,8.0637,7.8776,7.759,7.7328,7.5177,7.2915,7.0588,6.8643,6.7506,6.7457,6.704,6.6921,6.7408,6.7435,6.7089,6.6113,6.6037,6.6037,6.6037,6.6037,6.6232,6.6698,6.6747,6.7164,6.8167,6.8264,6.9283,7.1504,7.3857,7.5905,7.7685,8.0616,8.2628,8.2648,8.3528,8.4051,8.3469,8.3334,8.3043,8.2501,8.2462,8.1255,7.8477,7.7645,7.5965,7.2686,7.117,6.9663,6.7777,6.6714,6.6297,6.6698,6.6747,6.6942,6.7311,6.7484,6.7435,6.7484,6.7435,6.7435,6.7638,6.9169,7.0583,7.1898,7.4826,7.7465,8.9544,8.9451,8.9843,9.0141,9.0328,9.0328,8.8691,8.6016,8.3873,8.1879,8.019,8.0209,8.0307,8.05,8.05,8.05,8.054,8.1664,8.2148,8.2188,8.3159,8.3644,8.3664,8.3644,8.3761,8.3722,8.1568,8.1082,8.1974,8.118,8.118,8.2188,8.3489,8.5122,8.698,8.7573,8.874,9.0552,9.2467,9.3282,9.3121,9.036,8.9424,9.0124,8.4808,8.2402,8.3446,7.9554,7.8312,8.0341,7.9295,7.8533,7.8302,7.5544,7.3306,7.1587,6.8304,6.6505,6.6964,6.6183,6.5988,6.6698,6.6942,6.6113,6.4126,6.4008,6.4008,6.3861,6.3882,6.4301,6.5256,6.5381,6.582,6.704,6.7213,6.7652,6.881,7.0821,7.2529,7.3732,7.7459,8.0159,8.0474,8.2196,8.3043,8.2402,8.2111,8.178,8.0889,8.019,7.9474,7.8525,7.8234,7.6887,7.3898,7.1719,6.9713,6.7775,6.593,6.5201,6.5939,6.6232,6.665,6.7333,6.7213,6.7164,6.7164,6.7186,6.6845,6.6796,6.7105,6.797,6.9628,7.1565,7.3149,8.2834,8.1865,8.4116,8.585,8.7139,8.7124,8.7573,8.7887,8.2301,0.0,0.0,7.8874,7.9474,8.0481,8.05,8.05,8.0481,8.0733,8.0831,8.0831,8.1045,8.1161,8.1161,8.1103,8.1685,8.2576,8.118,8.0598,8.0849,8.1664,8.1664,8.1121,8.3043,8.5141,8.718,9.0072,9.2489,9.4176,9.4655,9.4268,9.3121,9.2542,9.0722,8.7472,8.6061,8.4422,8.2418,8.1309,7.9925,7.8154,7.8645,7.7087,7.3172,7.4193,7.3275,6.9592,6.8745,6.7408,6.5083,6.4691,6.4301,6.3478,6.4329,6.398,6.1782,6.2405,6.2571,6.1713,6.1615,6.2055,6.3039,6.3165,6.3966,6.5967,6.6162,6.653,6.7589,6.9001,7.0218,7.1577,7.4576,7.702,7.7913,7.979,8.1045,8.0889,8.0831,8.0674,8.0249,7.87,7.7402,7.6977,7.6803,7.6108,7.3836,7.1684,6.9715,6.7842,6.6433,6.5732,6.5988,6.6622,6.7186,6.7284,6.6698,6.6281,6.6134,6.55,6.4886,6.4908,6.5549,6.6334,6.6785,6.7754,6.9247,8.0164,7.8829,8.0201,8.1565,0.0,8.2938,8.3099,8.2903,7.8923,7.6919,7.6495,7.5425,7.6297,7.8471,7.7395,7.7486,7.8525,7.9183,7.9474,7.9514,8.0172,8.05,8.05,8.05,8.0849,8.1373,8.0056,7.9215,7.8858,8.0542,8.0889,7.9752,8.2682,8.5141,8.7126,8.9816,9.2537,9.5254,9.3852,9.2719,9.1996,9.0615,8.8854,8.6787,8.5762,0.0,0.0,0.0,0.0,0.0,0.0,0.0,0.0,7.2645,0.0,6.8139,6.5402,6.3472,6.2507,6.1255,6.0718,6.1276,6.1169,6.0944,6.0611,6.1317,6.14,6.0375,6.0785,6.1225,6.1742,6.177,6.2474,6.3987,6.421,6.4893,6.6367,6.7182,6.798,6.9216,7.1678,7.3965,7.5474,7.7546,7.8967,7.9426,7.9532,7.9223,7.8525,7.742,7.6297,7.5733,7.5134,7.4234,7.3117,7.1069,6.9036,6.8129,6.6396,6.5258,6.5061,6.557,6.589,6.5863,6.5451,6.5082,6.5033,6.4203,6.3666,6.4224,6.4301,6.4084,6.3602,6.5126,6.7172,7.8149,7.6488,7.672,7.7581,7.8785,7.8262,7.7446,7.6384,7.5218,7.4442,7.3828,7.204,7.2755,7.5128,7.3595,7.3739,7.5419,7.7028,7.7787,7.7827,7.9125,7.9765,7.9765,7.9725,7.9881,8.0074,7.9008,7.7875,7.6768,7.9066,7.9657,7.8751,8.1905,8.4703,8.7071,0.0,0.0,0.0,9.2507,9.109,9.0484,8.8276,8.6828,8.6209,8.4889,0.0,8.1835,8.0631,7.9755,7.9208,7.7787,0.0,0.0,0.0,0.0,0.0,0.0,0.0,0.0,0.0,0.0,0.0,5.8511,5.8217,5.9638,6.0096,5.9888,5.8866,6.0105,6.1147,6.1696,6.1473,6.175,6.2942,6.2864,6.3283,6.4991,6.5256,6.5695,6.6742,6.8641,7.0797,7.3048,7.5276,7.6968,7.7951,7.8158,7.7518,7.6105,7.5815,7.5425,7.4512,7.3506,7.2866,7.3057,7.0973,6.941,6.8701,6.6765,6.5296,6.4866,6.4886,6.4984,6.5082,6.4761,6.4712,6.4712,6.3499,6.2962,6.3833,6.306,6.2035,6.1293,6.3094,6.5516,7.4375,7.194,7.2874,7.4253,7.5599,7.3127,7.1983,7.1865,7.2687,7.2416,7.1347,7.0557,7.0443,7.0821,7.0521,7.0538,7.1,7.3802,7.5169,7.521,7.6489,7.7036,7.7111,7.7094,7.7675,7.8758,7.8641,7.7546,7.5745,7.7973,7.8593,7.7671,8.0093,8.3238,8.7016,8.8915,9.0803,9.2793,9.2829,9.1638,8.9154,8.8774,8.7313,8.4802,8.4483,8.3653,8.225,8.1989,8.0708,7.8269,7.6665,7.4675,7.2248,7.1178,6.8727,0.0,6.479,0.0,0.0,0.0,0.0,0.0,0.0,0.0,0.0,5.8095,5.7281,5.6007,5.881,6.1696,6.4177,6.3,6.2938,6.4964,6.3673,6.2697,6.299,6.299,6.3429,6.4594,6.5679,6.7524,7.0533,7.2647,7.4764,7.6432,7.6785,7.589,7.3797,7.3399,7.3466,7.2983,7.2808,7.3083,7.3746,7.246,7.0813,7.0166,6.8871,6.777,6.591,6.6281,6.6942,6.6845,6.6064,6.5598,6.5695,6.4008,6.2677,6.2795,6.2035,6.1205,6.104,6.1494,6.2857,7.1927,6.8416,6.9994,7.1065,7.1705,7.0458,6.9916,7.0012,7.1311,7.111,6.9932,7.1174,7.1622,7.1416,7.037,7.0457,7.1541,7.2937,7.3581,7.3564,7.4146,7.4436,7.4436,7.521,7.5791,7.639,7.7111,7.6745,7.5446,7.6397,7.6766,7.6451,7.8814,8.0761,8.2423,8.662,8.9072,8.9802,9.1992,9.1704,8.8957,8.805,8.659,8.4473,8.4341,8.3233,8.0917,8.0219,7.8811,7.668,7.5181,7.3487,7.1285,6.8454,6.6129,0.0,0.0,0.0,0.0,0.0,0.0,0.0,0.0,0.0,0.0,0.0,5.6629,5.621,5.8888,6.0418,5.9893,6.0359,6.0958,6.1542,6.0244,5.9973,6.1529,6.1742,6.2132,6.3275,6.4283,6.6312,6.9859,7.1191,7.2674,7.5159,7.4919,7.4029,7.2991,7.3517,7.3715,7.3052,7.2933,7.317,7.3645,7.2515,7.1103,6.9669,6.8726,6.7462,6.5475,6.5402,6.5765,6.5695,6.5375,6.5033,6.4935,6.3206,6.1966,6.2161,6.1331,6.0063,5.9448,5.9789,6.0967,7.086,6.6854,6.7376,6.7747,6.7937,6.8058,6.8447,6.9112,7.0542,7.0345,6.9154,7.1556,7.1732,7.0178,6.8391,6.8542,7.0334,7.1332,7.1994,7.2301,7.2575,7.2675,7.275,7.3755,7.418,7.4238,7.5192,7.5217,7.4401,7.4736,7.4812,7.479,7.6482,7.7402,7.7507,8.3368,8.6664,8.7182,9.0445,9.1047,8.8905,8.7407,8.5973,8.4407,8.4013,8.2416,7.9396,7.8105,7.6595,7.5012,7.3105,7.1485,7.0268,6.5649,0.0,0.0,0.0,0.0,0.0,0.0,0.0,0.0,0.0,5.871,5.4922,0.0,5.6542,0.0,5.9311,6.0474,5.9074,5.9644,0.0,0.0,5.7728,5.7363,5.9696,6.0189,6.0717,6.1742,6.2815,6.5095,6.9055,6.953,7.0555,7.3345,7.2958,7.2168,7.1869,7.3127,7.3731,7.283,7.2892,7.3028,7.2663,7.2175,7.1132,6.8596,6.7755,6.6395,6.3993,6.361,6.361,6.354,6.3715,6.3889,6.3931,6.2641,6.1713,6.1624,6.058,5.9165,5.8149,5.8569,5.9688,7.1604,6.8448,6.5057,6.4072,6.4773,6.525,6.6775,6.9069,7.0498,7.033,6.9128,7.0677,6.8326,6.3193,6.1808,0.0,6.3353,6.7448,6.9916,7.117,7.2168,7.2675,7.2675,7.2808,7.2883,7.2808,7.2924,7.2578,7.1937,7.2948,7.2894,7.1892,7.2091,7.2685,7.3929,7.9398,8.3506,8.5851,8.8021,8.9089,8.884,8.742,8.5973,8.4407,8.3119,8.1061,7.8176,7.6631,7.5144,7.3624,7.0001,6.789,6.76,0.0,0.0,0.0,0.0,0.0,0.0,0.0,0.0,0.0,0.0,0.0,0.0,0.0,0.0,5.5933,5.9762,0.0,6.7622,6.446,0.0,0.0,0.0,5.5804,5.6952,5.7743,5.8569,5.9624,0.0,0.0,6.6672,6.7168,6.8143,7.087,7.117,7.0614,6.9509,7.0715,7.1415,7.1609,7.2606,7.292,7.1981,7.2254,7.1557,6.8162,6.6986,6.56,6.2303,6.144,6.1342,6.142,6.2063,6.2746,6.2726,6.2551,6.1897,6.0111,5.9624,5.9155,5.8081,5.8002,5.8645,6.8385,6.4172,6.2646,6.2156,6.2523,6.3407,6.5431,6.8247,7.034,6.962,6.701,6.8415,6.5511,5.9413,5.8927,0.0,0.0,0.0,6.5423,6.7415,6.7954,6.897,7.0498,7.1254,7.1603,7.1678,7.2359,7.2539,7.2269,7.2216,6.995,6.5511,0.0,6.8302,6.9689,7.6145,8.0702,8.3302,8.6906,8.8728,8.8578,8.8016,8.6641,8.4305,8.2052,7.9534,7.662,7.5136,7.2919,6.9954,6.7405,6.5293,0.0,0.0,0.0,0.0,0.0,0.0,0.0,0.0,0.0,0.0,0.0,5.7347,5.5235,0.0,0.0,0.0,5.672,5.7827,5.9594,6.0945,0.0,0.0,0.0,0.0,0.0,0.0,0.0,5.8292,5.8911,6.1086,6.6102,6.5665,6.5552,6.7726,6.979,7.0893,7.0374,0.0,7.3841,7.3841,7.3602,7.3534,7.366,7.2644,7.1508,7.0564,6.8548,6.5539,6.1808,6.1049,6.1049,6.1098,6.1371,6.1664,6.1644,6.1644,6.1029,5.9008,5.9057,5.8824,5.7214,5.7447,5.8111,6.5064,0.0,0.0,0.0,0.0,6.2231,6.379,6.6194,6.8477,6.7484,6.4147,6.5294,0.0,0.0,0.0,0.0,0.0,0.0,6.2428,6.4565,6.5743,6.7183,6.9028,6.9975,7.0398,7.0398,7.1254,7.1429,7.1031,6.941,6.5754,6.0336,0.0,0.0,0.0,0.0,7.7892,8.1168,8.5802,8.8285,8.8463,8.7979,8.6964,8.5243,8.2241,7.8811,7.5151,7.3303,7.0605,6.6941,6.4005,0.0,0.0,0.0,0.0,0.0,0.0,0.0,0.0,0.0,0.0,0.0,0.0,0.0,0.0,0.0,0.0,0.0,0.0,0.0,5.419,5.8089,5.9545,0.0,0.0,0.0,0.0,0.0,0.0,0.0,0.0,0.0,6.4114,6.4059,6.4259,0.0,0.0,7.0379,7.0036,7.2863,7.4872,7.4491,7.4286,0.0,7.4783,7.2704,7.1226,7.1716,6.8939,6.5484,6.1785,6.1035,6.0808,6.0385,6.0879,6.1467,6.163,6.1425,6.0604,5.9264,5.8752,5.8215,5.7178,5.7107,5.7398,0.0,0.0,0.0,0.0,6.2523,0.0,0.0,0.0,6.4496,6.3465,0.0,6.1226,0.0,0.0,0.0,0.0,5.4203,5.8851,0.0,0.0,6.6876,6.8928,6.8854,6.8912,6.9044,6.9028,6.897,6.8346,6.6981,6.3373,0.0,0.0,0.0,0.0,0.0,0.0,7.4751,7.9696,8.44,8.7344,8.8315,8.6999,8.6683,8.7529,8.3886,7.9232,7.382,7.111,6.833,6.5224,5.9254,0.0,0.0,0.0,0.0,0.0,0.0,0.0,0.0,0.0,0.0,0.0,0.0,0.0,0.0,0.0,0.0,0.0,0.0,0.0,0.0,5.7863,0.0,0.0,0.0,0.0,0.0,0.0,0.0,0.0,0.0,5.7505,5.9541,6.2332,6.477,6.5881,0.0,0.0,0.0,0.0,7.3079,7.1941,7.4002,7.5182,7.3773,7.2316,7.0769,6.9384,0.0,0.0,6.1964,6.0961,6.027,5.9051,6.0706,6.241,6.2997,6.188,6.1051,6.094,5.881,5.7433,5.811,5.7267,5.6445,0.0,0.0,0.0,0.0,0.0,0.0,0.0,0.0,0.0,6.0648,5.821,5.7668,0.0,0.0,0.0,0.0,0.0,0.0,0.0,0.0,6.01,6.1496,6.1613,6.3198,6.3068,6.1554,6.1569,6.0405,0.0,0.0,0.0,0.0,0.0,0.0,0.0,0.0,7.294,7.7269,8.4188,8.7874,8.8083,8.8348,8.7775,8.6257,8.4817,7.9909,7.1065,6.9207,6.6133,0.0,0.0,0.0,0.0,0.0,0.0,0.0,0.0,0.0,0.0,0.0,0.0,0.0,0.0,0.0,0.0,0.0,0.0,0.0,0.0,0.0,0.0,0.0,5.7217,0.0,0.0,0.0,0.0,0.0,0.0,0.0,0.0,0.0,5.5866,5.8637,6.134,6.3405,6.6887,6.908,6.8623,0.0,0.0,0.0,0.0,0.0,0.0,0.0,6.9077,6.7923,6.4718,6.1978,6.0837,6.0256,5.9767,5.9279,0.0,0.0,5.8981,5.8006,5.7457,5.6775,5.7676,5.7919,5.605,5.7054,5.7863,0.0,0.0,0.0,0.0,0.0,0.0,0.0,0.0,0.0,5.7275,5.5197,0.0,0.0,0.0,0.0,0.0,0.0,0.0,0.0,0.0,0.0,0.0,5.7625,5.92,0.0,0.0,0.0,0.0,0.0,0.0,0.0,0.0,0.0,0.0,0.0,0.0,7.2022,7.5993,8.3669,8.7771,8.7836,8.8097,8.7466,8.5886,8.5022,8.0318,7.1527,0.0,0.0,0.0,0.0,0.0,0.0,0.0,0.0,0.0,0.0,0.0,0.0,0.0,0.0,0.0,0.0,0.0,0.0,0.0,0.0,0.0,0.0,0.0,0.0,0.0,5.495,0.0,0.0,0.0,0.0,0.0,0.0,0.0,0.0,0.0,0.0,5.6537,5.9535,6.1473,6.5736,6.8704,6.8704,7.0665,7.2245,0.0,0.0,0.0,0.0,0.0,0.0,0.0,0.0,0.0,0.0,0.0,0.0,0.0,0.0,6.2762,5.9424,5.8102,5.7456,5.7049,0.0,0.0,0.0,0.0,0.0,0.0,0.0,0.0,0.0,0.0,0.0,0.0,0.0,0.0,0.0,5.1908,0.0,0.0,4.8904,0.0,0.0,0.0,0.0,0.0,0.0,0.0,0.0,0.0,0.0,0.0,0.0,0.0,0.0,0.0,0.0,0.0,0.0,0.0,0.0,0.0,0.0,7.1945,7.5652,8.2575,8.6651,8.763,8.6067,8.5811,8.666,8.4379,8.0472,7.4865,0.0,0.0,0.0,0.0,0.0,0.0,0.0,0.0,0.0,0.0,0.0,0.0,0.0,0.0,0.0,0.0,0.0,0.0,0.0,0.0,0.0,0.0,0.0,0.0,0.0,0.0,5.4799,5.8279,6.0743,0.0,0.0,0.0,0.0,0.0,0.0,0.0,0.0,0.0,6.0343,6.4363,6.7212,6.7312,6.851,6.9535,6.9523,6.9471,7.0231,7.2323,7.0704,6.8992,0.0,0.0,0.0,0.0,0.0,0.0,0.0,0.0,0.0,0.0,0.0,0.0,0.0,0.0,0.0,0.0,0.0,0.0,0.0,0.0,0.0,0.0,0.0,0.0,0.0,0.0,0.0,0.0,0.0,0.0,0.0,0.0,0.0,0.0,0.0,0.0,0.0,0.0,0.0,0.0,0.0,0.0,0.0,0.0,0.0,0.0,0.0,0.0,0.0,0.0,0.0,0.0,0.0,0.0,6.9672,7.16,8.1011,8.551,8.4707,8.577,8.6023,8.5249,8.4511,8.1184,0.0,0.0,0.0,0.0,0.0,0.0,0.0,0.0,0.0,0.0,0.0,0.0,0.0,0.0,0.0,0.0,0.0,0.0,0.0,0.0,0.0,0.0,0.0,0.0,0.0,0.0,0.0,0.0,5.9981,6.0796,6.0789,0.0,0.0,0.0,0.0,0.0,0.0,0.0,0.0,0.0,0.0,6.6096,6.712,6.8373,6.9214,6.9279,6.989,7.0232,6.9836,6.8327,6.7192,6.7007,0.0,0.0,0.0,0.0,0.0,0.0,0.0,0.0,0.0,0.0,0.0,0.0,0.0,0.0,0.0,0.0,0.0,0.0,0.0,0.0,0.0,0.0,0.0,0.0,0.0,0.0,0.0,0.0,0.0,0.0,0.0,0.0,0.0,0.0,0.0,0.0,0.0,0.0,0.0,0.0,0.0,0.0,0.0,0.0,0.0,0.0,0.0,0.0,0.0,0.0,0.0,0.0,0.0,6.8637,6.9895,7.9722,8.4396,8.3486,8.5106,8.556,8.4569,8.399,8.011,0.0,0.0,0.0,0.0,0.0,0.0,0.0,0.0,0.0,0.0,0.0,0.0,0.0,0.0,0.0,0.0,0.0,0.0,0.0,0.0,0.0,0.0,0.0,0.0,0.0,0.0,0.0,0.0,5.8344,5.9072,5.8995,0.0,0.0,0.0,0.0,0.0,0.0,0.0,0.0,0.0,0.0,6.5841,6.777,6.7782,0.0,0.0,6.8373,6.8031,6.8777,6.7256,6.5904,6.6015,6.3571,0.0,0.0,0.0,0.0,0.0,0.0,0.0,0.0,0.0,0.0,0.0,0.0,0.0,0.0,0.0,0.0,0.0,0.0,0.0,0.0,0.0,0.0,0.0,0.0,0.0,0.0,0.0,0.0,0.0,0.0,0.0,0.0,0.0,0.0,0.0,0.0,0.0,0.0,0.0,0.0,0.0,0.0,0.0,0.0,0.0,0.0,0.0,0.0,0.0,0.0,0.0,0.0,6.8385,6.9795,7.8576,8.3263,8.3269,8.4057,8.4498,8.4355,8.2982,7.777,0.0,0.0,0.0,0.0,0.0,0.0,0.0,0.0,0.0,0.0,0.0,0.0,0.0,0.0,0.0,0.0,0.0,0.0,0.0,0.0,0.0,0.0,0.0,0.0,0.0,0.0,0.0,0.0,0.0,0.0,0.0,0.0,0.0,0.0,0.0,0.0,0.0,0.0,0.0,0.0,0.0,6.6214,6.873,6.6838,6.6138,0.0,6.5627,6.454,6.8738,6.6794,6.4876,6.5331,0.0,0.0,0.0,0.0,0.0,0.0,0.0,0.0,0.0,0.0,0.0,0.0,0.0,0.0,0.0,0.0,0.0,0.0,0.0,0.0,0.0,0.0,0.0,0.0,0.0,0.0,0.0,0.0,0.0,0.0,0.0,0.0,0.0,0.0,0.0,0.0,0.0,0.0,0.0,0.0,0.0,0.0,0.0,0.0,0.0,0.0,0.0,0.0,0.0,0.0,0.0,0.0,0.0,0.0,6.6932,7.6662,8.1803,8.1865,8.36,8.3998,8.2848,8.2403,0.0,0.0,0.0,0.0,0.0,0.0,0.0,0.0,0.0,0.0,0.0,0.0,0.0,0.0,0.0,0.0,0.0,0.0,0.0,0.0,0.0,0.0,0.0,0.0,0.0,0.0,0.0,5.2755,0.0,0.0,0.0,0.0,0.0,0.0,0.0,0.0,0.0,0.0,0.0,0.0,0.0,0.0,6.682,6.7491,6.7037,6.6482,0.0,0.0,6.4686,6.5442,6.4251,6.36,0.0,0.0,0.0,0.0,0.0,0.0,0.0,0.0,0.0,0.0,0.0,0.0,0.0,0.0,0.0,0.0,0.0,0.0,0.0,0.0,0.0,0.0,0.0,0.0,0.0,0.0,0.0,0.0,0.0,0.0,0.0,0.0,0.0,0.0,0.0,0.0,0.0,0.0,0.0,0.0,0.0,0.0,0.0,0.0,0.0,0.0,0.0,0.0,0.0,0.0,0.0,0.0,0.0,0.0,6.449,6.5949,7.4751,7.9652,8.033,8.2445,8.2931,8.1623,8.0747,7.5803,0.0,0.0,0.0,0.0,0.0,0.0,0.0,0.0,0.0,0.0,0.0,0.0,0.0,0.0,0.0,0.0,0.0,0.0,0.0,0.0,0.0,0.0,0.0,0.0,0.0,0.0,0.0,0.0,0.0,0.0,0.0,0.0,0.0,0.0,0.0,0.0,0.0,0.0,0.0,0.0,0.0,0.0,6.6021,6.5571,0.0,0.0,0.0,6.3284,6.4012,0.0,0.0,0.0,0.0,0.0,0.0,0.0,0.0,0.0,0.0,0.0,0.0,0.0,0.0,0.0,0.0,0.0,0.0,0.0,0.0,0.0,0.0,0.0,0.0,0.0,0.0,0.0,0.0,0.0,0.0,0.0,0.0,0.0,0.0,0.0,0.0,0.0,0.0,0.0,0.0,0.0,0.0,0.0,0.0,0.0,0.0,0.0,0.0,0.0,0.0,0.0,0.0,0.0,0.0,0.0,0.0,0.0,6.5874,7.2872,7.733,7.8903,8.0778,8.1366,8.0469,7.8575,7.4117,0.0,0.0,0.0,0.0,0.0,0.0,0.0,0.0,0.0,0.0,0.0,0.0,0.0,0.0,0.0,0.0,0.0,0.0,0.0,0.0,0.0,0.0,0.0,0.0,0.0,0.0,0.0,0.0,0.0,0.0,0.0,0.0,0.0,0.0,0.0,0.0,0.0,0.0,0.0,0.0,0.0,6.3234,6.4509,6.3608,6.3158,0.0,0.0,6.1423,6.3405,6.2028,0.0,0.0,0.0,0.0,0.0,0.0,0.0,0.0,0.0,0.0,0.0,0.0,0.0,0.0,0.0,0.0,0.0,0.0,0.0,0.0,0.0,0.0,0.0,0.0,0.0,0.0,0.0,0.0,0.0,0.0,0.0,0.0,0.0,0.0,0.0,0.0,0.0,0.0,0.0,0.0,0.0,0.0,0.0,0.0,0.0,0.0,0.0,0.0,0.0,0.0,0.0,0.0,0.0,0.0,0.0,0.0,6.574,7.1159,7.5625,7.8713,7.9015,7.8824,7.8274,7.781,7.389,0.0,0.0,0.0,0.0,0.0,0.0,0.0,0.0,0.0,0.0,0.0,0.0,0.0,0.0,0.0,0.0,0.0,0.0,0.0,0.0,0.0,0.0,0.0,0.0,0.0,0.0,0.0,0.0,0.0,0.0,0.0,0.0,0.0,0.0,0.0,0.0,0.0,0.0,0.0,0.0,0.0,6.2895,6.3158,6.297,0.0,0.0,0.0,0.0,6.1244,6.097,0.0,0.0,0.0,0.0,0.0,0.0,0.0,0.0,0.0,0.0,0.0,0.0,0.0,0.0,0.0,0.0,0.0,0.0,0.0,0.0,0.0,0.0,0.0,0.0,0.0,0.0,0.0,0.0,0.0,0.0,0.0,0.0,0.0,0.0,0.0,0.0,0.0,0.0,0.0,0.0,0.0,0.0,0.0,0.0,0.0,0.0,0.0,0.0,0.0,0.0,0.0,0.0,0.0,0.0,0.0,0.0,6.5592,6.9306,7.3017,7.6643,7.7097,7.7067,7.6791,7.6542,7.3195,0.0,0.0,0.0,0.0,0.0,0.0,0.0,0.0,0.0,0.0,0.0,0.0,0.0,0.0,0.0,0.0,0.0,0.0,0.0,0.0,0.0,0.0,0.0,0.0,0.0,0.0,0.0,0.0,0.0,0.0,0.0,0.0,0.0,0.0,0.0,0.0,0.0,0.0,0.0,0.0,5.8759,5.9934,6.0648,0.0,0.0,0.0,0.0,0.0,0.0,5.906,5.907,0.0,0.0,0.0,0.0,0.0,0.0,0.0,0.0,0.0,0.0,0.0,0.0,0.0,0.0,0.0,0.0,0.0,0.0,0.0,0.0,0.0,0.0,0.0,0.0,0.0,0.0,0.0,0.0,0.0,0.0,0.0,0.0,0.0,0.0,0.0,0.0,0.0,0.0,0.0,0.0,0.0,0.0,0.0,0.0,0.0,0.0,0.0,0.0,0.0,0.0,0.0,0.0,0.0,0.0,0.0,6.4734,6.6973,7.0047,7.4008,7.4922,7.551,7.5857,7.5191,7.2258,6.6708,0.0,0.0,0.0,0.0,0.0,0.0,0.0,0.0,0.0,0.0,0.0,0.0,0.0,0.0,0.0,0.0,0.0,0.0,0.0,0.0,0.0,0.0,0.0,0.0,0.0,0.0,0.0,0.0,0.0,0.0,0.0,0.0,0.0,0.0,0.0,0.0,0.0,0.0,0.0,5.5864,5.6504,0.0,0.0,0.0,0.0,0.0,0.0,0.0,0.0,5.7425,0.0,0.0,0.0,0.0,0.0,0.0,0.0,0.0,0.0,0.0,0.0,0.0,0.0,0.0,0.0,0.0,0.0,0.0,0.0,0.0,0.0,0.0,0.0,0.0,0.0,0.0,0.0,0.0,0.0,0.0,0.0,0.0,0.0,0.0,0.0,0.0,0.0,0.0,0.0,0.0,0.0,0.0,0.0,0.0,0.0,0.0,0.0,0.0,0.0,0.0,0.0,0.0,0.0,0.0,0.0,0.0,6.3407,6.698,7.2371,7.2743,7.3678,7.5245,7.4001,7.094,6.5976,0.0,0.0,0.0,0.0,0.0,0.0,0.0,0.0,0.0,0.0,0.0,0.0,0.0,0.0,0.0,0.0,0.0,0.0,0.0,0.0,0.0,0.0,0.0,0.0,0.0,0.0,0.0,0.0,0.0,0.0,0.0,0.0,0.0,0.0,0.0,0.0,0.0,0.0,5.2549,5.365,0.0,0.0,0.0,0.0,0.0,0.0,0.0,0.0,5.7539,0.0,0.0,0.0,0.0,0.0,0.0,0.0,0.0,0.0,0.0,0.0,0.0,0.0,0.0,0.0,0.0,0.0,0.0,0.0,0.0,0.0,0.0,0.0,0.0,0.0,0.0,0.0,0.0,0.0,0.0,0.0,0.0,0.0,0.0,0.0,0.0,0.0,0.0,0.0,0.0,0.0,0.0,0.0,0.0,0.0,0.0,0.0,0.0,0.0,0.0,0.0,0.0,0.0,0.0,0.0,0.0,0.0,0.0,6.589,7.1002,7.1891,7.3263,7.4965,7.2066,6.8863,0.0,0.0,0.0,0.0,0.0,0.0,0.0,0.0,0.0,0.0,0.0,0.0,0.0,0.0,0.0,0.0,0.0,0.0,0.0,0.0,0.0,0.0,0.0,0.0,0.0,0.0,0.0,0.0,0.0,0.0,0.0,0.0,0.0,0.0,0.0,0.0,0.0,0.0,0.0,0.0,0.0,0.0,0.0,0.0,0.0,0.0,0.0,0.0,0.0,0.0,0.0,0.0,0.0,0.0,0.0,0.0,0.0,0.0,0.0,0.0,0.0,0.0,0.0,0.0,0.0,0.0,0.0,0.0,0.0,0.0,0.0,0.0,0.0,0.0,0.0,0.0,0.0,0.0,0.0,0.0,0.0,0.0,0.0,0.0,0.0,0.0,0.0,0.0,0.0,0.0,0.0,0.0,0.0,0.0,0.0,0.0,0.0,0.0,0.0,0.0,0.0,0.0,0.0,0.0,0.0,0.0,0.0,0.0,6.5449,6.9634,7.1454,7.3254,7.5145,6.9697,6.6097,0.0,0.0,0.0,0.0,0.0,0.0,0.0,0.0,0.0,0.0,0.0,0.0,0.0,0.0,0.0,0.0,0.0,0.0,0.0,0.0,0.0,0.0,0.0,0.0,0.0,0.0,0.0,0.0,0.0,0.0,0.0,0.0,0.0,0.0,0.0,0.0,0.0,0.0,0.0,0.0,0.0,0.0,0.0,0.0,0.0,0.0,0.0,0.0,5.3494,0.0,0.0,0.0,0.0,0.0,0.0,0.0,0.0,0.0,0.0,0.0,0.0,0.0,0.0,0.0,0.0,0.0,0.0,0.0,0.0,0.0,0.0,0.0,0.0,0.0,0.0,0.0,0.0,0.0,0.0,0.0,0.0,0.0,0.0,0.0,0.0,0.0,0.0,0.0,0.0,0.0,0.0,0.0,0.0,0.0,0.0,0.0,0.0,0.0,0.0,0.0,0.0,0.0,0.0,0.0,0.0,0.0,0.0,0.0,6.4892,6.8407,7.0953,7.3263,7.492,6.7008,6.2332,0.0,0.0,0.0,0.0,0.0,0.0,0.0,0.0,0.0,0.0,0.0,0.0,0.0,0.0,0.0,0.0,0.0,0.0,0.0,0.0,0.0,0.0,0.0,0.0,0.0,0.0,0.0,0.0,0.0,0.0,0.0,0.0,0.0,0.0,0.0,0.0,0.0,0.0,0.0,0.0,0.0,0.0,0.0,0.0,0.0,0.0,0.0,0.0,0.0,0.0,0.0,0.0,0.0,0.0,0.0,0.0,0.0,0.0,0.0,0.0,0.0,0.0,0.0,0.0,0.0,0.0,0.0,0.0,0.0,0.0,0.0,0.0,0.0,0.0,0.0,0.0,0.0,0.0,0.0,0.0,0.0,0.0,0.0,0.0,0.0,0.0,0.0,0.0,0.0,0.0,0.0,0.0,0.0,0.0,0.0,0.0,0.0,0.0,0.0,0.0,0.0,0.0,0.0,0.0,0.0,0.0,0.0,0.0,6.3718,6.725,6.9169,7.0035,6.9691,6.434,6.0768,0.0,0.0,0.0,0.0,0.0,0.0,0.0,0.0,0.0,0.0,0.0,0.0,0.0,0.0,0.0,0.0,0.0,0.0,0.0,0.0,0.0,0.0,0.0,0.0,0.0,0.0,0.0,0.0,0.0,0.0,0.0,0.0,0.0,0.0,0.0,0.0,0.0,0.0,0.0,0.0,0.0,0.0,0.0,0.0,0.0,0.0,0.0,0.0,0.0,0.0,0.0,0.0,0.0,0.0,0.0,0.0,0.0,0.0,0.0,0.0,0.0,0.0,0.0,0.0,0.0,0.0,0.0,0.0,0.0,0.0,0.0,0.0,0.0,0.0,0.0,0.0,0.0,0.0,0.0,0.0,0.0,0.0,0.0,0.0,0.0,0.0,0.0,0.0,0.0,0.0,0.0,0.0,0.0,0.0,0.0,0.0,0.0,0.0,0.0,0.0,0.0,0.0,0.0,0.0,0.0,0.0,0.0,0.0,0.0,6.5343,6.6524,6.6317,6.4687,6.152,5.8972,0.0,0.0,0.0,0.0,0.0,0.0,0.0,0.0,0.0,0.0,0.0,0.0,0.0,0.0,0.0,0.0,0.0,0.0,0.0,0.0,0.0,0.0,0.0,0.0,0.0,0.0,0.0,0.0,0.0,0.0,0.0,0.0,0.0,0.0,0.0,0.0,0.0,0.0,0.0,0.0,0.0,0.0,0.0,0.0,0.0,0.0,0.0,0.0,0.0,0.0,0.0,0.0,0.0,0.0,0.0,0.0,0.0,0.0,0.0,0.0,0.0,0.0,0.0,0.0,0.0,0.0,0.0,0.0,0.0,0.0,0.0,0.0,0.0,0.0,0.0,0.0,0.0,0.0,0.0,0.0,0.0,0.0,0.0,0.0,0.0,0.0,0.0,0.0,0.0,0.0,0.0,0.0,0.0,0.0,0.0,0.0,0.0,0.0,0.0,0.0,0.0,0.0,0.0,0.0,0.0,0.0,0.0,0.0,0.0,6.2385,6.2878,6.2739,6.1981,5.8574,5.631,0.0,0.0,0.0,0.0,0.0,0.0,0.0,0.0,0.0,0.0,0.0,0.0,0.0,0.0,0.0,0.0,0.0,0.0,0.0,0.0,0.0,0.0,0.0,0.0,0.0,0.0,0.0,0.0,0.0,0.0,0.0,0.0,0.0,0.0,0.0,0.0,0.0,0.0,0.0,0.0,0.0,0.0,0.0,0.0,0.0,0.0,0.0,0.0,0.0,0.0,0.0,0.0,0.0,0.0,0.0,0.0,0.0,0.0,0.0,0.0,0.0,0.0,0.0,0.0,0.0,0.0,0.0,0.0,0.0,0.0,0.0,0.0,0.0,0.0,0.0,0.0,0.0,0.0,0.0,0.0,0.0,0.0,0.0,0.0,0.0,0.0,0.0,0.0,0.0,0.0,0.0,0.0,0.0,0.0,0.0,0.0,0.0,0.0,0.0,0.0,0.0,0.0,0.0,0.0,0.0,0.0,0.0,0.0,0.0,5.9953,6.0902,6.0433,5.8433,5.7104,5.537,5.3336,0.0,0.0,0.0,0.0,0.0,0.0,0.0,0.0,0.0,0.0,0.0,0.0,0.0,0.0,0.0,0.0,0.0,0.0,0.0,0.0,0.0,0.0,0.0,0.0,0.0,0.0,0.0,0.0,0.0,0.0,0.0,0.0,0.0,0.0,0.0,0.0,0.0,0.0,0.0,0.0,0.0,0.0,0.0,0.0,0.0,0.0,0.0,0.0,0.0,0.0,0.0,0.0,0.0,0.0,0.0,0.0,0.0,0.0,0.0,0.0,0.0,0.0,0.0,0.0,0.0,0.0,0.0,0.0,0.0,0.0,0.0,0.0,0.0,0.0,0.0,0.0,0.0,0.0,0.0,0.0,0.0,0.0,0.0,0.0,0.0,0.0,0.0,0.0,0.0,0.0,0.0,0.0,0.0,0.0,0.0,0.0,0.0,0.0,0.0,0.0,0.0,0.0,0.0,0.0,0.0,0.0,0.0,0.0,5.7933,5.9258,5.8872,5.6531,5.6785,5.5649,0.0,0.0,0.0,0.0,0.0,0.0,0.0,0.0,0.0,0.0,0.0,0.0,0.0,0.0,0.0,0.0,0.0,0.0,0.0,0.0,0.0,0.0,0.0,0.0,0.0,0.0,0.0,0.0,0.0,0.0,0.0,0.0,0.0,0.0,0.0,0.0,0.0,0.0,0.0,0.0,0.0,0.0,0.0,0.0,0.0,0.0,0.0,0.0,0.0,0.0,0.0,0.0,0.0,0.0,0.0,0.0,0.0,0.0,0.0,0.0,0.0,0.0,0.0,0.0,0.0,0.0,0.0,0.0,0.0,0.0,0.0,0.0,0.0,0.0,0.0,0.0,0.0,0.0,0.0,0.0,0.0,0.0,0.0,0.0,0.0,0.0,0.0,0.0,0.0,0.0,0.0,0.0,0.0,0.0,0.0,0.0,0.0,0.0,0.0,0.0,0.0,0.0,0.0,0.0,0.0,0.0,0.0,0.0,5.7933,5.657,5.7858,5.7999,5.6531,5.7679,5.6986,0.0,0.0,0.0,0.0,0.0,0.0,0.0,0.0,0.0,0.0,0.0,0.0,0.0,0.0,0.0,0.0,0.0,0.0,0.0,0.0,0.0,0.0,0.0,0.0,0.0,0.0,0.0,0.0,0.0,0.0,0.0,0.0,0.0,0.0,0.0,0.0,0.0,0.0,0.0,0.0,0.0,0.0,0.0,0.0,0.0,0.0,0.0,0.0,0.0,0.0,0.0,0.0,0.0,0.0,0.0,0.0,0.0,0.0,0.0,0.0,0.0,0.0,0.0,0.0,0.0,0.0,0.0,0.0,0.0,0.0,0.0,0.0,0.0,0.0,0.0,0.0,0.0,0.0,0.0,0.0,0.0,0.0,0.0,0.0,0.0,0.0,0.0,0.0,0.0,0.0,0.0,0.0,0.0,0.0,0.0,0.0,0.0,0.0,0.0,0.0,0.0,0.0,0.0,0.0,0.0,0.0,0.0,0.0,0.0,5.9267,0.0,5.9192,6.046,5.7323,5.554,0.0,0.0,0.0,0.0,0.0,0.0,0.0,0.0,0.0,0.0,0.0,0.0,0.0,0.0,0.0,0.0,0.0,0.0,0.0,0.0,0.0,0.0,0.0,0.0,0.0,0.0,0.0,0.0,0.0,0.0,0.0,0.0,0.0,0.0,0.0,0.0,0.0,0.0,0.0,0.0,0.0,0.0,0.0,0.0,0.0,0.0,0.0,0.0,0.0,0.0,0.0,0.0,0.0,0.0,0.0,0.0,0.0,0.0,0.0,0.0,0.0,0.0,0.0,0.0,0.0,0.0,0.0,0.0,0.0,0.0,0.0,0.0,0.0,0.0,0.0,0.0,0.0,0.0,0.0,0.0,0.0,0.0,0.0,0.0,0.0,0.0,0.0,0.0,0.0,0.0,0.0,0.0,0.0,0.0,0.0,0.0,0.0,0.0,0.0,0.0,0.0,0.0,0.0,0.0,0.0,0.0,0.0,0.0,0.0,5.907,5.8205,5.8609,6.0338,5.8403,5.6675,0.0,0.0,0.0,0.0,0.0,0.0,0.0,0.0,0.0,0.0,0.0,0.0,0.0,0.0,0.0,0.0,0.0,0.0,0.0,0.0,0.0,0.0,0.0,0.0,0.0,0.0,0.0,0.0,0.0,0.0,0.0,0.0,0.0,0.0,0.0,0.0,0.0,0.0,0.0,0.0,0.0,0.0,0.0,0.0,0.0,0.0,0.0,0.0,0.0,0.0,0.0,0.0,0.0,0.0,0.0,0.0,0.0,0.0,0.0,0.0,0.0,0.0,0.0,0.0,0.0,0.0,0.0,0.0,0.0,0.0,0.0,0.0,0.0,0.0,0.0,0.0,0.0,0.0,0.0,0.0,0.0,0.0,0.0,0.0,0.0,0.0,0.0,0.0,0.0,0.0,0.0,0.0,0.0,0.0,0.0,0.0,0.0,0.0,0.0,0.0,0.0,0.0,0.0,0.0,0.0,0.0,0.0,0.0,0.0,5.6719,5.6728,5.6654,5.6645,6.0263,5.985,0.0,0.0,0.0,0.0,0.0,0.0,0.0,0.0,0.0,0.0,0.0,0.0,0.0,0.0,0.0,0.0,0.0,0.0,0.0,0.0,0.0,0.0,0.0,0.0,0.0,0.0,0.0,0.0,0.0,0.0,0.0,0.0,0.0,0.0,0.0,0.0,0.0,0.0,0.0,0.0,0.0,0.0,0.0,0.0,0.0,0.0,0.0,0.0,0.0,0.0,0.0,0.0,0.0,0.0,0.0,0.0,0.0,0.0,0.0,0.0,0.0,0.0,0.0,0.0,0.0,0.0,0.0,0.0,0.0,0.0,0.0,0.0,0.0,0.0,0.0,0.0,0.0,0.0,0.0,0.0,0.0,0.0,0.0,0.0,0.0,0.0,0.0,0.0,0.0,0.0,0.0,0.0,0.0,0.0,0.0,0.0,0.0,0.0,0.0,0.0,0.0,0.0,0.0,0.0,0.0,0.0,0.0,0.0,0.0,0.0,6.0479,5.9991,5.799,5.6938,5.6732,5.7239,0.0,0.0,0.0,0.0,0.0,0.0,0.0,0.0,0.0,0.0,0.0,0.0,0.0,0.0,0.0,0.0,0.0,0.0,0.0,0.0,0.0,0.0,0.0,0.0,0.0,0.0,0.0,0.0,0.0,0.0,0.0,0.0,0.0,0.0,0.0,0.0,0.0,0.0,0.0,0.0,0.0,0.0,0.0,0.0,0.0,0.0,0.0,0.0,0.0,0.0,0.0,0.0,0.0,0.0,0.0,0.0,0.0,0.0,0.0,0.0,0.0,0.0,0.0,0.0,0.0,0.0,0.0,0.0,0.0,0.0,0.0,0.0,0.0,0.0,0.0,0.0,0.0,0.0,0.0,0.0,0.0,0.0,0.0,0.0,0.0,0.0,0.0,0.0,0.0,0.0,0.0,0.0,0.0,0.0,0.0,0.0,0.0,0.0,0.0,0.0,0.0,0.0,0.0,0.0,0.0,0.0,0.0,0.0,0.0,0.0,6.0736,5.9,5.7281,5.6494,0.0,0.0,0.0,0.0,0.0,0.0,0.0,0.0,0.0,0.0,0.0,0.0,0.0,0.0,0.0,0.0,0.0,0.0,0.0,0.0,0.0,0.0,0.0,0.0,0.0,0.0,0.0,0.0,0.0,0.0,0.0,0.0,0.0,0.0,0.0,0.0,0.0,0.0,0.0,0.0,0.0,0.0,0.0,0.0,0.0,0.0,0.0,0.0,0.0,0.0,0.0,0.0,0.0,0.0,0.0,0.0,0.0,0.0,0.0,0.0,0.0,0.0,0.0,0.0,0.0,0.0,0.0,0.0,0.0,0.0,0.0,0.0,0.0,0.0,0.0,0.0,0.0,0.0,0.0,0.0,0.0,0.0,0.0,0.0,0.0,0.0,0.0,0.0,0.0,0.0,0.0,0.0,0.0,0.0,0.0,0.0,0.0,0.0,0.0,0.0,0.0,0.0,0.0,0.0,0.0,0.0,0.0,0.0,0.0,0.0,0.0,5.9682,5.9749,5.9539,0.0,5.4631,0.0,0.0,0.0,0.0,0.0,0.0,0.0,0.0,0.0,0.0,0.0,0.0,0.0,0.0,0.0,0.0,0.0,0.0,0.0,0.0,0.0,0.0,0.0,0.0,0.0,0.0,0.0,0.0,0.0,0.0,0.0,0.0,0.0,0.0,0.0,0.0,0.0,0.0,0.0,0.0,0.0,0.0,0.0,0.0,0.0,0.0,0.0,0.0,0.0,0.0,0.0,0.0,0.0,0.0,0.0,0.0,0.0,0.0,0.0,0.0,0.0,0.0,0.0,0.0,0.0,0.0,0.0,0.0,0.0,0.0,0.0,0.0,0.0,0.0,0.0,0.0,0.0,0.0,0.0,0.0,0.0,0.0,0.0,0.0,0.0,0.0,0.0,0.0,0.0,0.0,0.0,0.0,0.0,0.0,0.0,0.0,0.0,0.0,0.0,0.0,0.0,0.0,0.0,0.0,0.0,0.0,0.0,0.0,0.0,0.0,0.0,0.0,5.8768,5.7205,5.5833,0.0,0.0,0.0,0.0,0.0,0.0,0.0,0.0,0.0,0.0,0.0,0.0,0.0,0.0,0.0,0.0,0.0,0.0,0.0,0.0,0.0,0.0,0.0,0.0,0.0,0.0,0.0,0.0,0.0,0.0,0.0,0.0,0.0,0.0,0.0,0.0,0.0,0.0,0.0,0.0,0.0,0.0,0.0,0.0,0.0,0.0,0.0,0.0,0.0,0.0,0.0,0.0,0.0,0.0,0.0,0.0,0.0,0.0,0.0,0.0,0.0,0.0,0.0,0.0,0.0,0.0,0.0,0.0,0.0,0.0,0.0,0.0,0.0,0.0,0.0,0.0,0.0,0.0,0.0,0.0,0.0,0.0,0.0,0.0,0.0,0.0,0.0,0.0,0.0,0.0,0.0,0.0,0.0,0.0,0.0,0.0,0.0,0.0,0.0,0.0,0.0,0.0,0.0,0.0,0.0,0.0,0.0,0.0,0.0,0.0,6.0441,6.1133,5.9741,5.861,5.7876,0.0,0.0,0.0,0.0,0.0,0.0,0.0,0.0,0.0,0.0,0.0,0.0,0.0,0.0,0.0,0.0,0.0,0.0,0.0,0.0,0.0,0.0,0.0,0.0,0.0,0.0,0.0,0.0,0.0,0.0,0.0,0.0,0.0,0.0,0.0,0.0,0.0,0.0,0.0,0.0,0.0,0.0,0.0,0.0,0.0,0.0,0.0,0.0,0.0,0.0,0.0,0.0,0.0,0.0,0.0,0.0,0.0,0.0,0.0,0.0,0.0,0.0,0.0,0.0,0.0,0.0,0.0,0.0,0.0,0.0,0.0,0.0,0.0,0.0,0.0,0.0,0.0,0.0,0.0,0.0,0.0,0.0,0.0,0.0,0.0,0.0,0.0,0.0,0.0,0.0,0.0,0.0,0.0,0.0,0.0,0.0,0.0,0.0,0.0,0.0,0.0,0.0,0.0,0.0,0.0,0.0,0.0,0.0,0.0,0.0,0.0,0.0,0.0,0.0,5.9623,0.0,0.0,0.0,0.0,0.0,0.0,0.0,0.0,0.0,0.0,0.0,0.0,0.0,0.0,0.0,0.0,0.0,0.0,0.0,0.0,0.0,0.0,0.0,0.0,0.0,0.0,0.0,0.0,0.0,0.0,0.0,0.0,0.0,0.0,0.0,0.0,0.0,0.0,0.0,0.0,0.0,0.0,0.0,0.0,0.0,0.0,0.0,0.0,0.0,0.0,0.0,0.0,0.0,0.0,0.0,0.0,0.0,0.0,0.0,0.0,0.0,0.0,0.0,0.0,0.0,0.0,0.0,0.0,0.0,0.0,0.0,0.0,0.0,0.0,0.0,0.0,0.0,0.0,0.0,0.0,0.0,0.0,0.0,0.0,0.0,0.0,0.0,0.0,0.0,0.0,0.0,0.0,0.0,0.0,0.0,0.0,0.0,0.0,0.0,0.0,0.0,0.0,0.0,0.0,0.0,0.0,0.0,0.0,0.0,0.0,0.0,0.0,0.0,0.0,0.0,0.0,0.0,0.0,0.0,0.0,0.0,0.0,0.0,0.0,0.0,0.0,0.0,0.0,0.0,0.0,0.0,0.0,0.0,0.0,0.0,0.0,0.0,0.0,0.0,0.0,0.0,0.0,0.0,0.0,0.0,0.0,0.0,0.0,0.0,0.0,0.0,0.0,0.0,0.0,0.0,0.0,0.0,0.0,0.0,0.0,0.0,0.0,0.0,0.0,0.0,0.0,0.0,0.0,0.0,0.0,0.0,0.0,0.0,0.0,0.0,0.0,0.0,0.0,0.0,0.0,0.0,0.0,0.0,0.0,0.0,0.0,0.0,0.0,0.0,0.0,0.0,0.0,0.0,0.0,0.0,0.0,0.0,0.0,0.0,0.0,0.0,0.0,0.0,0.0,0.0,0.0,0.0,0.0,0.0,0.0,0.0,0.0,0.0,0.0,0.0,0.0,0.0,0.0,0.0,0.0,0.0,0.0,0.0,0.0,0.0,0.0,0.0,0.0,0.0,0.0,0.0,0.0,0.0,0.0,0.0,0.0,0.0,0.0,0.0,0.0,0.0,0.0,0.0,0.0,0.0,0.0,0.0,0.0,0.0,0.0,0.0,0.0,0.0,0.0,0.0,0.0,0.0,0.0,0.0,0.0,0.0,0.0,0.0,0.0,0.0,0.0,0.0,0.0,0.0,0.0,0.0,0.0,0.0,0.0,0.0,0.0,0.0,0.0,0.0,0.0,0.0,0.0,0.0,0.0,0.0,0.0,0.0,0.0,0.0,0.0,0.0,0.0,0.0,0.0,0.0,0.0,0.0,0.0,0.0,0.0,0.0,0.0,0.0,0.0,0.0,0.0,0.0,0.0,0.0,0.0,0.0,0.0,0.0,0.0,0.0,0.0,0.0,0.0,0.0,0.0,0.0,0.0,0.0,0.0,0.0,0.0,0.0,0.0,0.0,0.0,0.0,0.0,0.0,0.0,0.0,0.0,0.0,0.0,0.0,0.0,0.0,0.0,0.0,0.0,0.0,0.0,0.0,0.0,0.0,0.0,0.0,0.0,0.0,0.0,0.0,0.0,0.0,0.0,0.0,0.0,0.0,0.0,0.0,0.0,0.0,0.0,0.0,0.0,0.0,0.0,0.0,0.0,0.0,0.0,0.0,0.0,0.0,0.0,0.0,0.0,0.0,0.0,0.0,0.0,0.0,0.0,0.0,0.0,0.0,0.0,0.0,0.0,0.0,0.0,0.0,0.0,0.0,0.0,0.0,0.0,0.0,0.0,0.0,0.0,0.0,0.0,0.0,0.0,0.0,0.0,0.0,0.0,0.0,0.0,0.0,0.0,0.0,0.0,0.0,0.0,0.0,0.0,0.0,0.0,0.0,0.0,0.0,0.0,0.0,0.0,0.0,0.0,0.0,0.0,0.0,0.0,0.0,0.0,0.0,0.0,0.0,0.0,0.0,0.0,0.0,0.0,0.0,0.0,0.0,0.0,0.0,0.0,0.0,0.0,0.0,0.0,0.0,0.0,0.0,0.0,0.0,0.0,0.0,0.0,0.0,0.0,0.0,0.0,0.0,0.0,0.0,0.0,0.0,0.0,0.0,0.0,0.0,0.0,0.0,0.0,0.0,0.0,0.0,0.0,0.0,0.0,0.0,0.0,0.0,0.0,0.0,0.0,0.0,0.0,0.0,0.0,0.0,0.0,0.0,0.0,0.0,0.0,0.0,0.0,0.0,0.0,0.0,0.0,0.0,0.0,0.0,0.0,0.0,0.0,0.0,0.0,0.0,0.0,0.0,0.0,0.0,0.0,0.0,0.0,0.0,0.0,0.0,0.0,0.0,0.0,0.0,0.0,0.0,0.0,0.0,0.0,0.0,0.0,0.0,0.0,0.0,0.0,0.0,0.0,0.0,0.0,0.0,0.0,0.0,0.0,0.0,0.0,0.0,0.0,0.0,0.0,0.0,0.0,0.0,0.0,0.0,0.0,0.0,0.0,0.0,0.0,0.0,0.0,0.0,0.0,0.0,0.0,0.0,0.0,0.0,0.0,0.0,0.0,0.0,0.0,0.0,0.0,0.0,0.0,0.0,0.0,0.0,0.0,0.0,0.0,0.0,0.0,0.0,0.0,0.0,0.0,0.0,0.0,0.0,0.0,0.0,0.0,0.0,0.0,0.0,0.0,0.0,0.0,0.0,0.0,0.0,0.0,0.0,0.0,0.0,0.0,0.0,0.0,0.0,0.0,0.0,0.0,0.0,0.0,0.0,0.0,0.0,0.0,0.0,0.0,0.0,0.0,0.0,0.0,0.0,0.0,0.0,0.0,0.0,0.0,0.0,0.0,0.0,0.0,0.0,0.0,0.0,0.0,0.0,0.0,0.0,0.0,0.0,0.0,0.0,0.0,0.0,0.0,0.0,0.0,0.0,0.0,0.0,0.0,0.0,0.0,0.0,0.0,0.0,0.0,0.0,0.0,0.0,0.0,0.0,0.0,0.0,0.0,0.0,0.0,0.0,0.0,0.0,0.0,0.0,0.0,0.0,0.0,0.0,0.0,0.0,0.0,0.0,0.0,0.0,0.0,0.0,0.0,0.0,0.0,0.0,0.0,0.0,0.0,0.0,0.0,0.0,0.0,0.0,0.0,0.0,0.0,0.0,0.0,0.0,0.0,0.0,0.0,0.0,0.0,0.0,0.0,0.0,0.0,0.0,0.0,0.0,0.0,0.0,0.0,0.0,0.0,0.0,0.0,0.0,0.0,0.0,0.0,0.0,0.0,0.0,0.0,0.0,0.0,0.0,0.0,0.0,0.0,0.0,0.0,0.0,0.0,0.0,0.0,0.0,0.0,0.0,0.0,0.0,0.0,0.0,0.0,0.0,0.0,0.0,0.0,0.0,0.0,0.0,0.0,0.0,0.0,0.0,0.0,0.0,0.0,0.0,0.0,0.0,0.0,0.0,0.0,0.0,0.0,0.0,0.0,0.0,0.0,0.0,0.0,0.0,0.0,0.0,0.0,0.0,0.0,0.0,0.0,0.0,0.0,0.0,0.0,0.0,0.0,0.0,0.0,0.0,0.0,0.0,0.0,0.0,0.0,0.0,0.0,0.0,0.0,0.0,0.0,0.0,0.0,0.0,0.0,0.0,0.0,0.0,0.0,0.0,0.0,0.0,0.0,0.0,0.0,0.0,0.0,0.0,0.0,0.0,0.0,0.0,0.0,0.0,0.0,0.0,0.0,0.0,0.0,0.0,0.0,0.0,0.0,0.0,0.0,0.0,0.0,0.0,0.0,0.0,0.0,0.0,0.0,0.0,0.0,0.0,0.0,0.0,0.0,0.0,0.0,0.0,0.0,0.0,0.0,0.0,0.0,0.0,0.0,0.0,0.0,0.0,0.0,0.0,0.0,0.0,0.0,0.0,0.0,0.0,0.0,0.0,0.0,0.0,0.0,0.0,0.0,0.0,0.0,0.0,0.0,0.0,0.0,0.0,0.0,0.0,0.0,0.0,0.0,0.0,0.0,0.0,0.0,0.0,0.0,0.0,0.0,0.0,0.0,0.0,0.0,0.0,0.0,0.0,0.0,0.0,0.0,0.0,0.0,0.0,0.0,0.0,0.0,0.0,0.0,0.0,0.0,0.0,0.0,0.0,0.0,0.0,0.0,0.0,0.0,0.0,0.0,0.0,0.0,0.0,0.0,0.0,0.0,0.0,0.0,0.0,0.0,0.0,0.0,0.0,0.0,0.0,0.0,0.0,0.0,0.0,0.0,0.0,0.0,0.0,0.0,0.0,0.0,0.0,0.0,0.0,0.0,0.0,0.0,0.0,0.0,0.0,0.0,0.0,0.0,0.0,0.0,0.0,0.0,0.0,0.0]}],[{"header":{"parameterUnit":"kt","parameterCategory":2,"dx":1,"dy":1,"la1":29.587661999999998,"la2":31.0,"lo1":-88.76705300000003,"lo2":-86.6583820000003,"nx":115,"ny":88,"refTime":"2022-09-19T12:00:00:Z","depth":0,"parameterNumber":2,"parameterNumberName":"V-component_of_WINDS"},"data":[9.0021,9.0021,9.0021,9.0021,9.0021,9.0021,9.0021,9.0021,9.0021,9.0021,9.0021,9.0021,9.0021,9.0021,9.0021,9.0235,9.1203,9.3487,9.596,9.8362,10.1887,10.4285,10.5857,10.666,10.7161,10.7342,10.7342,10.7342,10.7342,10.7342,10.7342,10.7342,10.7342,10.7342,10.7342,10.7342,10.7342,10.7342,10.7342,10.7342,10.7342,10.7342,10.7342,10.7342,10.7342,10.7342,10.7342,10.7342,10.7342,10.7575,10.8273,10.9112,10.9786,11.0342,11.0982,11.1622,11.2818,11.3457,11.4155,11.4588,11.4879,11.4879,11.4879,11.4879,11.4879,11.4879,11.4879,11.4879,11.4879,11.4879,11.4879,11.4879,11.4879,11.4879,11.4879,11.4879,11.4879,11.4879,11.4879,11.4879,11.4879,11.4879,11.4879,11.4879,11.4879,11.4879,11.4879,11.4879,11.4879,11.4879,11.4879,11.4879,11.4879,11.4879,11.4879,11.4879,11.4879,11.4879,11.4879,11.4879,11.4879,11.4879,11.4879,11.4879,11.4879,11.4879,11.4879,11.4879,11.4879,11.4879,11.4879,11.4879,11.4879,11.4879,11.4879,9.0021,9.0021,9.0021,9.0021,9.0021,9.0021,9.0021,9.0021,9.0021,9.0021,9.0021,9.0021,9.0021,9.0021,9.0021,9.0021,9.0681,9.2513,9.3911,9.6454,10.0313,10.2487,10.4209,10.5907,10.6816,10.7161,10.7259,10.7342,10.7342,10.7342,10.7342,10.7342,10.7342,10.7342,10.7342,10.7342,10.7342,10.7342,10.7342,10.7342,10.7342,10.7342,10.7342,10.7342,10.7342,10.7342,10.7342,10.7342,10.7342,10.7517,10.7633,10.804,10.8389,10.9029,10.9636,11.0426,11.1564,11.2585,11.3457,11.4213,11.4588,11.4879,11.4879,11.4879,11.4879,11.4879,11.4879,11.4879,11.4879,11.4879,11.4879,11.4879,11.4879,11.4879,11.4879,11.4879,11.4879,11.4879,11.4879,11.4879,11.4879,11.4879,11.4879,11.4879,11.4879,11.4879,11.4879,11.4879,11.4879,11.4879,11.4879,11.4879,11.4879,11.4879,11.4879,11.4879,11.4879,11.4879,11.4879,11.4879,11.4879,11.4879,11.4879,11.4879,11.4879,11.4879,11.4879,11.4879,11.4879,11.4879,11.4879,11.4879,11.4879,11.4879,11.4879,9.0021,9.0021,9.0021,9.0021,9.0021,9.0021,9.0021,9.0021,9.0021,9.0021,9.0021,9.0021,9.0021,9.0021,9.0021,9.0021,9.0264,9.1472,9.2627,9.4141,9.7139,9.9968,10.2384,10.4209,10.5508,10.7112,10.7235,10.721,10.7342,10.7342,10.7342,10.7342,10.7342,10.7342,10.7342,10.7342,10.7342,10.7342,10.7342,10.7342,10.7342,10.7342,10.7342,10.7342,10.7342,10.7342,10.7342,10.7342,10.7342,10.7342,10.7342,10.7342,10.7517,10.7949,10.8506,10.932,11.0309,11.1506,11.2617,11.3489,11.4039,11.4647,11.4879,11.4821,11.4821,11.4879,11.4879,11.4879,11.4879,11.4879,11.4879,11.4879,11.4879,11.4879,11.4879,11.4879,11.4879,11.4879,11.4879,11.4879,11.4879,11.4879,11.4879,11.4879,11.4879,11.4879,11.4879,11.4879,11.4879,11.4879,11.4879,11.4879,11.4879,11.4879,11.4879,11.4879,11.4879,11.4879,11.4879,11.4879,11.4879,11.4879,11.4879,11.4879,11.4879,11.4879,11.4879,11.4879,11.4879,11.4879,11.4879,11.4879,11.4879,11.4879,11.4879,9.0021,9.0021,9.0021,9.0021,9.0021,9.0021,9.0021,9.0021,9.0021,9.0021,9.0021,9.0021,9.0021,9.0021,9.0021,9.0021,9.0021,9.0643,9.1443,9.2684,9.4394,9.7358,9.9967,10.1232,10.3541,10.5433,10.6462,10.6363,10.7063,10.7342,10.7342,10.7342,10.7342,10.7342,10.7342,10.7342,10.7342,10.7342,10.7342,10.7342,10.7342,10.7342,10.7342,10.7342,10.7342,10.7342,10.7342,10.7342,10.7342,10.7342,10.7342,10.7342,10.7342,10.7342,10.7866,10.8622,10.9229,11.0309,11.1389,11.2204,11.305,11.3832,11.4356,11.4562,11.4737,11.4879,11.4879,11.4879,11.4879,11.4879,11.4879,11.4879,11.4879,11.4879,11.4879,11.4879,11.4879,11.4879,11.4879,11.4879,11.4879,11.4879,11.4879,11.4879,11.4879,11.4879,11.4879,11.4879,11.4879,11.4879,11.4879,11.4879,11.4879,11.4879,11.4879,11.4879,11.4879,11.4879,11.4879,11.4879,11.4879,11.4879,11.4879,11.4879,11.4879,11.4879,11.4879,11.4879,11.4879,11.4879,11.4879,11.4879,11.4879,11.4879,11.4879,9.0021,9.0021,9.0021,9.0021,9.0021,9.0021,9.0021,9.0021,9.0021,9.0021,9.0021,9.0021,9.0021,9.0021,9.0021,9.0021,9.0021,9.0021,9.0585,9.0439,9.257,9.4422,9.6456,9.7714,10.0522,10.2406,10.3827,10.4999,10.6536,10.7342,10.7342,10.7342,10.7342,10.7342,10.7342,10.7342,10.7342,10.7342,10.7342,10.7342,10.7342,10.7342,10.7342,10.7342,10.7342,10.7342,10.7342,10.7342,10.7342,10.7342,10.7342,10.7342,10.7342,10.7342,10.7342,10.7808,10.8506,10.9378,11.0102,11.0833,11.1796,11.2585,11.3167,11.3748,11.4213,11.4472,11.4763,11.4821,11.4879,11.4879,11.4879,11.4879,11.4879,11.4879,11.4879,11.4879,11.4879,11.4879,11.4879,11.4879,11.4879,11.4879,11.4879,11.4879,11.4879,11.4879,11.4879,11.4879,11.4879,11.4879,11.4879,11.4879,11.4879,11.4879,11.4879,11.4879,11.4879,11.4879,11.4879,11.4879,11.4879,11.4879,11.4879,11.4879,11.4879,11.4879,11.4879,11.4879,11.4879,11.4879,11.4879,11.4879,11.4879,11.4879,11.4879,9.0021,9.0021,9.0021,9.0021,9.0021,9.0021,9.0021,9.0021,9.0021,9.0021,9.0021,9.0021,9.0021,9.0021,9.0021,9.0021,9.0021,9.0021,8.9972,9.0206,9.1067,9.2548,9.3972,9.5684,9.7767,10.0179,10.2043,10.308,10.4671,10.5932,10.7259,10.7259,10.7342,10.7342,10.7342,10.7342,10.7342,10.7342,10.7342,10.7342,10.7342,10.7342,10.7342,10.7342,10.7342,10.7342,10.7342,10.7342,10.7342,10.7342,10.7342,10.7342,10.7342,10.7342,10.7342,10.74,10.7982,10.8414,10.9054,10.9669,11.0542,11.1564,11.2527,11.305,11.3457,11.369,11.4155,11.4588,11.4763,11.4879,11.4879,11.4879,11.4879,11.4879,11.4879,11.4879,11.4879,11.4879,11.4879,11.4879,11.4879,11.4879,11.4879,11.4879,11.4879,11.4879,11.4879,11.4879,11.4879,11.4879,11.4879,11.4879,11.4879,11.4879,11.4879,11.4879,11.4879,11.4879,11.4879,11.4879,11.4879,11.4879,11.4879,11.4879,11.4879,11.4879,11.4879,11.4879,11.4879,11.4879,11.4879,11.4879,11.4879,11.4879,11.4879,9.0021,9.0021,9.0021,9.0021,9.0021,9.0021,9.0021,9.0021,9.0021,9.0021,9.0021,9.0021,9.0021,9.0021,9.0021,9.0021,9.0021,9.0021,9.0021,9.006,9.0352,9.1443,9.2341,9.3146,9.4846,9.7114,9.9141,10.039,10.2043,10.4646,10.6015,10.7112,10.7284,10.7342,10.7342,10.7342,10.7342,10.7342,10.7342,10.7342,10.7342,10.7342,10.7342,10.7342,10.7342,10.7342,10.7342,10.7342,10.7342,10.7342,10.7342,10.7342,10.7342,10.7342,10.7342,10.7342,10.74,10.7658,10.8472,10.8705,10.9204,11.0426,11.1157,11.1771,11.2003,11.2236,11.2934,11.3574,11.4039,11.453,11.4763,11.4821,11.4879,11.4879,11.4879,11.4879,11.4879,11.4879,11.4879,11.4879,11.4879,11.4879,11.4879,11.4879,11.4879,11.4879,11.4879,11.4879,11.4879,11.4879,11.4879,11.4879,11.4879,11.4879,11.4879,11.4879,11.4879,11.4879,11.4879,11.4879,11.4879,11.4879,11.4879,11.4879,11.4879,11.4879,11.4879,11.4879,11.4879,11.4879,11.4879,11.4879,11.4879,11.4879,11.4879,9.0021,9.0021,9.0021,9.0021,9.0021,9.0021,9.0021,9.0021,9.0021,9.0021,9.0021,9.0021,9.0021,9.0021,9.0021,9.0021,9.0021,9.0021,9.0021,9.0021,9.0021,9.0118,9.0449,9.071,9.2341,9.3826,9.5431,9.7468,9.89,10.1705,10.462,10.6338,10.7014,10.7342,10.7342,10.7342,10.7342,10.7342,10.7342,10.7342,10.7342,10.7342,10.7342,10.7342,10.7342,10.7342,10.7342,10.7342,10.7342,10.7342,10.7342,10.7342,10.7342,10.7342,10.7342,10.7342,10.7342,10.7342,10.7633,10.7691,10.8273,10.9088,10.9495,10.9462,10.9844,11.0691,11.168,11.2527,11.3399,11.3981,11.4647,11.4763,11.4879,11.4879,11.4879,11.4879,11.4879,11.4879,11.4879,11.4879,11.4879,11.4879,11.4879,11.4879,11.4879,11.4879,11.4879,11.4879,11.4879,11.4879,11.4879,11.4879,11.4879,11.4879,11.4879,11.4879,11.4879,11.4879,11.4879,11.4879,11.4879,11.4879,11.4879,11.4879,11.4879,11.4879,11.4879,11.4879,11.4879,11.4879,11.4879,11.4879,11.4879,11.4879,11.4763,9.0021,9.0021,9.0021,9.0021,9.0021,9.0021,9.0021,9.0021,9.0021,9.0021,9.0021,9.0021,9.0021,9.0021,9.0021,9.0021,9.0021,9.0021,9.0021,9.0021,9.0021,9.0021,9.0021,9.0206,9.0885,9.1645,9.3146,9.4478,9.585,9.8658,10.1496,10.4107,10.6313,10.6725,10.6987,10.706,10.7109,10.6993,10.6993,10.7051,10.7051,10.7226,10.7226,10.7226,10.7284,10.7342,10.7342,10.7342,10.7342,10.7342,10.7342,10.7342,10.7342,10.7342,10.7342,10.7342,10.7342,10.7342,10.7342,10.7342,10.7517,10.804,10.7982,10.8414,10.9229,10.9495,11.0484,11.1506,11.2527,11.3108,11.3632,11.4679,11.4737,11.4879,11.4879,11.4879,11.4879,11.4879,11.4879,11.4879,11.4879,11.4879,11.4879,11.4879,11.4588,11.4705,11.4763,11.4879,11.4879,11.4879,11.4879,11.4879,11.4821,11.4763,11.4705,11.4705,11.4705,11.4879,11.4879,11.4879,11.4879,11.4879,11.4879,11.4879,11.4879,11.4879,11.4879,11.4821,11.4673,11.4673,11.453,11.453,11.4879,11.4705,11.4446,9.0021,9.0021,9.0021,8.9777,8.9562,8.9855,9.0021,9.0021,9.0021,9.0021,9.0021,9.0021,9.0021,9.0021,9.0021,9.0021,9.0021,9.0021,9.0021,9.0021,9.0021,8.9972,9.0021,9.0021,9.006,9.0614,9.1443,9.2634,9.2954,9.5736,9.8362,10.0762,10.3127,10.5124,10.4971,10.5727,10.598,10.598,10.6062,10.6062,10.6004,10.6329,10.662,10.6561,10.7085,10.7284,10.7342,10.7342,10.7342,10.7342,10.7342,10.7342,10.7342,10.7342,10.7342,10.7342,10.7342,10.7342,10.7342,10.7284,10.7284,10.7342,10.7458,10.7832,10.8356,10.8531,10.9287,11.0251,11.1007,11.1596,11.2327,11.3399,11.3981,11.4097,11.4562,11.4647,11.4588,11.4647,11.4588,11.453,11.4879,11.4879,11.4879,11.4879,11.4007,11.3716,11.3018,11.3076,11.3425,11.3658,11.4065,11.4065,11.4123,11.4298,11.4356,11.4007,11.3923,11.4472,11.4763,11.4647,11.4763,11.4879,11.4821,11.4705,11.4763,11.4879,11.4879,11.4821,11.4615,11.3916,11.3218,11.2986,11.3076,11.3192,11.3283,8.9972,8.9972,8.9972,8.9367,8.8391,8.9464,8.9728,8.9582,8.966,8.9679,8.9806,8.9972,9.0021,8.9972,8.9728,8.9826,8.9874,8.9728,8.9679,8.9582,8.9435,8.9631,8.9631,8.9484,8.924,8.9777,9.0007,9.0079,9.0105,9.2404,9.3853,9.6038,9.8993,10.086,9.958,10.1848,10.3326,10.3502,10.3701,10.3817,10.4084,10.4899,10.5248,10.5539,10.612,10.6411,10.6411,10.6411,10.6411,10.6411,10.6528,10.6528,10.6702,10.676,10.6993,10.7109,10.7168,10.7342,10.7226,10.7168,10.6877,10.6668,10.6295,10.661,10.6993,10.7168,10.7458,10.7949,10.8938,10.9611,11.0691,11.1829,11.2352,11.2876,11.369,11.4039,11.3949,11.389,11.3716,11.3626,11.4239,11.4705,11.4705,11.4356,11.3134,11.2204,11.1273,11.1098,11.1447,11.1855,11.232,11.2436,11.2494,11.2785,11.3192,11.305,11.3283,11.4181,11.4414,11.3949,11.389,11.3774,11.4007,11.4472,11.4181,11.3541,11.4065,11.4647,11.3567,11.2404,11.1822,11.1531,11.1273,11.1273,11.1447,8.9533,8.9025,8.9708,8.8537,8.6292,8.6438,8.6996,8.7581,8.7699,8.8069,8.8928,8.9679,9.0021,8.9728,8.9318,8.9172,8.9367,8.8635,8.8439,8.8391,8.8244,8.7728,8.7679,8.7776,8.802,8.765,8.7679,8.7776,8.7951,8.856,9.0084,9.1916,9.3799,9.4471,9.4799,9.7977,10.1573,10.2901,10.341,10.341,10.3328,10.3793,10.4026,10.4142,10.4491,10.484,10.4899,10.4957,10.4899,10.484,10.4782,10.4724,10.4957,10.5306,10.5805,10.6212,10.6678,10.7284,10.676,10.5946,10.4573,10.4923,10.484,10.4782,10.4573,10.455,10.5073,10.5563,10.6179,10.662,10.691,10.9179,11.0459,11.1215,11.2087,11.2818,11.2785,11.2843,11.2727,11.2637,11.2378,11.2436,11.2494,11.2553,11.1622,11.0982,11.04,11.0309,11.0284,11.04,11.0808,11.0982,11.0866,11.1389,11.2029,11.1855,11.1913,11.2753,11.296,11.2669,11.2553,11.2055,11.2055,11.2669,11.2785,11.2262,11.2145,11.2229,11.1647,11.0891,11.0949,11.0891,11.0517,11.0168,11.0168,8.7122,8.6613,8.7268,8.6585,8.5121,8.5121,8.5727,8.6577,8.6675,8.7142,8.7776,8.8411,8.8703,8.8557,8.802,8.8167,8.8411,8.7142,8.7337,8.7289,8.7142,8.6801,8.6703,8.6772,8.6626,8.6772,8.6724,8.6675,8.6626,8.7152,8.7952,8.7764,8.8293,8.8674,9.0122,9.2889,9.6547,9.8909,10.0242,10.1066,10.1545,10.228,10.2688,10.2746,10.292,10.341,10.3351,10.3351,10.341,10.3468,10.3526,10.3642,10.3817,10.4259,10.4526,10.47,10.5131,10.548,10.5189,10.4457,10.341,10.341,10.3351,10.3526,10.3701,10.3526,10.341,10.3584,10.4317,10.5189,10.5398,10.7168,10.8705,10.9403,11.0193,11.0982,11.1331,11.1564,11.1506,11.1706,11.1215,11.0691,11.0749,11.0808,11.0342,10.9844,10.9669,10.9495,10.9262,10.9237,10.9611,10.9786,10.9295,10.9586,11.1098,11.1007,11.0567,11.0949,11.1273,11.1447,11.1622,11.0982,11.0658,11.0982,11.1215,11.1273,11.1007,11.0251,10.9611,10.9146,10.9262,10.9786,10.9669,10.932,10.8971,8.3515,8.3244,8.3217,8.3781,8.4605,8.4779,8.5288,8.5922,8.6236,8.641,8.6605,8.6703,8.6849,8.6772,8.6821,8.6752,8.6801,8.6557,8.6431,8.6431,8.6431,8.6166,8.6069,8.602,8.6215,8.6215,8.602,8.6069,8.6361,8.5922,8.5072,8.3933,8.494,8.5651,8.6981,8.8784,9.1656,9.4123,9.6505,9.7564,9.9031,10.0502,10.128,10.1559,10.2397,10.3095,10.3095,10.2804,10.263,10.263,10.2571,10.2571,10.2513,10.2979,10.327,10.3386,10.3735,10.3677,10.327,10.2769,10.292,10.3037,10.2862,10.2571,10.2397,10.2862,10.306,10.2746,10.2548,10.342,10.47,10.6212,10.7226,10.804,10.8913,10.9528,10.9819,11.0051,11.0284,11.0658,11.0484,10.996,10.9819,10.9644,10.9237,10.8622,10.8389,10.8448,10.8215,10.8273,10.8564,10.8564,10.7982,10.8564,11.0193,11.0077,10.9437,10.9495,10.9644,10.9935,11.0342,11.0342,10.9877,10.9993,10.9761,11.0251,11.0426,10.932,10.8389,10.7633,10.7458,10.8157,10.8273,10.8331,10.804,8.217,7.9996,7.9947,8.0555,8.1505,8.1505,8.2214,8.3293,8.4123,8.4855,8.5365,8.5532,8.5999,8.641,8.5922,8.5874,8.6508,8.5023,8.4925,8.5023,8.4828,8.4514,8.4584,8.4486,8.4514,8.4367,8.4681,8.4633,8.4562,8.4416,8.4318,8.3635,8.3586,8.4106,8.5051,8.6359,8.7671,9.0264,9.328,9.5442,9.6837,9.8767,9.9703,10.0048,10.0338,10.0489,10.0512,10.0628,10.0628,10.0664,10.0803,10.0919,10.0954,10.1559,10.1908,10.2083,10.263,10.2397,10.1326,10.0861,10.0489,10.0489,10.0512,10.0861,10.0745,10.0489,10.0547,10.0803,10.078,10.1385,10.2315,10.3711,10.5248,10.6586,10.7783,10.7982,10.8215,10.8389,10.8622,10.8913,10.8971,10.8738,10.8738,10.8481,10.8074,10.7517,10.7342,10.74,10.7458,10.7575,10.7749,10.7866,10.7517,10.7808,10.8506,10.8331,10.8157,10.7982,10.7982,10.8215,10.8506,10.8564,10.883,10.8481,10.8016,10.8506,10.9088,10.8157,10.7342,10.7342,10.7342,10.7342,10.7342,10.74,10.7342,8.0949,8.0071,7.8629,7.9215,8.0874,8.048,8.119,8.2587,8.332,8.3928,8.4367,8.4437,8.473,8.5072,8.4779,8.4828,8.5002,8.4172,8.3976,8.4221,8.3976,8.3635,8.3586,8.3586,8.3586,8.3732,8.3586,8.3586,8.3586,8.3635,8.3586,8.3586,8.3586,8.3586,8.4051,8.5108,8.5667,8.6991,8.9627,9.2537,9.4255,9.6308,9.7854,9.782,9.9032,9.9561,9.9675,9.9559,9.9559,9.9559,9.9559,9.9559,9.9791,10.0198,10.0687,10.0745,10.1385,10.1036,9.9849,9.9675,9.9675,9.9617,9.9617,9.9559,9.9559,9.9675,9.9675,9.9559,9.9559,10.0256,10.1501,10.2606,10.3886,10.5282,10.691,10.7259,10.7575,10.7342,10.7226,10.7284,10.74,10.7691,10.7866,10.7808,10.7633,10.7342,10.7342,10.7342,10.7342,10.7342,10.7342,10.7342,10.7342,10.7342,10.7342,10.7342,10.7458,10.7517,10.7517,10.7458,10.7342,10.7342,10.7691,10.7575,10.7284,10.7284,10.74,10.7342,10.7342,10.7342,10.7342,10.7342,10.7342,10.7284,10.7284,8.0337,8.1784,7.8973,7.9338,8.1611,8.0972,8.1629,8.3271,8.3467,8.3586,8.376,8.3635,8.3711,8.3781,8.3711,8.3635,8.3684,8.3586,8.3684,8.3781,8.3662,8.3586,8.3586,8.3586,8.3586,8.3586,8.3586,8.3586,8.3586,8.3586,8.3586,8.3586,8.3586,8.3586,8.3586,8.4024,8.3586,8.4051,8.5962,8.8448,9.1043,9.369,9.5251,9.6284,9.7657,9.8975,9.949,9.9559,9.9559,9.9559,9.9559,9.9559,9.9559,9.9559,9.9559,9.9559,9.9559,9.9559,9.9617,9.9559,9.9559,9.9559,9.9559,9.9559,9.9559,9.9559,9.9559,9.9559,9.9559,10.014,10.1385,10.2455,10.3653,10.4816,10.5689,10.6295,10.691,10.6561,10.6935,10.6993,10.6702,10.6819,10.7109,10.7226,10.7284,10.7284,10.7342,10.7342,10.7342,10.7342,10.7342,10.7342,10.7342,10.7342,10.7342,10.7342,10.74,10.7342,10.7342,10.7342,10.7342,10.7342,10.7284,10.7051,10.6852,10.6794,10.7109,10.7342,10.7342,10.7342,10.7342,10.7342,10.7226,10.7226,10.7168,8.2365,8.1979,8.1295,8.1442,8.193,8.1784,8.1979,8.2441,8.3222,8.3586,8.3586,8.3586,8.3586,8.3586,8.3586,8.3586,8.3586,8.3586,8.3586,8.3586,8.3586,8.3586,8.3586,8.3586,8.3586,8.3586,8.3586,8.3586,8.3586,8.3586,8.3586,8.3537,8.3586,8.3586,8.3439,8.3244,8.3586,8.3749,8.4348,8.5721,8.8268,9.0943,9.3329,9.5562,9.6086,9.7286,9.8444,9.8742,9.8914,9.9133,9.9316,9.95,9.9559,9.9559,9.9559,9.9559,9.9559,9.9559,9.9442,9.9384,9.921,9.9303,9.95,9.9536,9.9536,9.9559,9.9559,9.9559,9.9559,10.0082,10.1036,10.1757,10.2548,10.3537,10.4142,10.455,10.5398,10.5805,10.612,10.598,10.6096,10.6212,10.6586,10.6727,10.6411,10.6411,10.6295,10.6411,10.6353,10.6528,10.6528,10.676,10.6819,10.6819,10.6702,10.6528,10.6411,10.6295,10.6353,10.6353,10.6644,10.6877,10.6993,10.6678,10.6445,10.5922,10.6935,10.7342,10.6702,10.6552,10.7051,10.7109,10.6586,10.6469,10.6237,8.2516,8.1979,8.1389,8.1167,8.1291,8.1757,8.2028,8.2175,8.3125,8.3586,8.3586,8.3586,8.3586,8.3586,8.3586,8.3586,8.3586,8.3586,8.3586,8.3586,8.3586,8.3586,8.3586,8.3586,8.3586,8.3537,8.3537,8.3586,8.3586,8.3537,8.3586,8.3467,8.3027,8.2832,8.2734,8.2365,8.197,8.1921,8.2028,8.2721,8.4039,8.5077,8.7446,8.9777,9.1332,9.2756,9.4294,9.5013,9.624,9.687,9.7403,9.8341,9.8744,9.857,9.7684,9.7662,9.7604,9.7684,9.7742,9.7742,9.8105,9.8489,9.8606,9.8838,9.9303,9.9442,9.9559,9.9559,9.9559,9.9849,10.0431,10.1152,10.1734,10.2432,10.3153,10.3735,10.4259,10.4375,10.4259,10.3968,10.3886,10.4259,10.5214,10.5655,10.5539,10.5422,10.5306,10.5248,10.5131,10.5073,10.4923,10.4981,10.4923,10.4923,10.4864,10.4782,10.4782,10.484,10.4957,10.4981,10.5097,10.4981,10.5248,10.5573,10.5306,10.4608,10.5306,10.5771,10.5563,10.533,10.5446,10.5504,10.5504,10.5388,10.4923,8.1979,8.2223,8.1043,8.0675,8.0968,8.1904,8.2321,8.2392,8.3222,8.3586,8.3586,8.3586,8.3586,8.3586,8.3586,8.3586,8.3586,8.3586,8.3586,8.3586,8.3586,8.3586,8.3586,8.3586,8.3244,8.3195,8.2902,8.2756,8.2805,8.3049,8.2631,8.268,8.2121,8.1757,8.1486,8.0897,8.0627,8.0724,8.0702,8.0653,8.097,8.1518,8.2736,8.5392,8.7269,8.8473,8.9226,9.0681,9.2209,9.3513,9.4615,9.616,9.7023,9.6371,9.5939,9.6041,9.6194,9.631,9.6274,9.6041,9.6462,9.7,9.7326,9.7872,9.8454,9.8744,9.8454,9.8593,9.8651,9.8767,9.8896,9.9407,10.0279,10.0651,10.1082,10.1757,10.199,10.1815,10.1431,10.1245,10.1443,10.1757,10.3037,10.3851,10.4142,10.4433,10.4375,10.4317,10.4259,10.4108,10.3759,10.3526,10.3293,10.3235,10.3235,10.3386,10.356,10.3793,10.3968,10.3991,10.3875,10.3468,10.3177,10.3444,10.3386,10.3386,10.356,10.3817,10.3933,10.4341,10.3933,10.3526,10.3991,10.4457,10.3933,8.1655,8.3271,8.2197,8.2294,8.3076,8.3173,8.3125,8.3222,8.3564,8.3342,8.3586,8.3586,8.3488,8.3586,8.3586,8.3586,8.3586,8.3586,8.3467,8.3439,8.3391,8.3342,8.3244,8.3098,8.2561,8.0919,8.1017,8.1017,8.0968,8.0773,8.1212,8.087,8.0578,8.0604,8.0529,8.0259,7.9967,7.9918,7.9918,7.9967,8.0041,8.0119,8.1263,8.3248,8.4569,8.543,8.703,8.8311,8.9837,9.2216,9.2608,9.2903,9.338,9.3678,9.4543,9.5692,9.5517,9.5379,9.5321,9.5575,9.5692,9.6041,9.6077,9.6252,9.6485,9.6717,9.6753,9.6659,9.6739,9.6739,9.6426,9.7066,9.7066,9.703,9.6972,9.7452,9.7988,9.7487,9.7778,9.7966,9.8744,9.9581,10.0884,10.1664,10.2711,10.3468,10.3468,10.3468,10.3526,10.341,10.3119,10.2804,10.2571,10.2455,10.2455,10.2571,10.2746,10.2979,10.3211,10.3211,10.3211,10.2688,10.2222,10.2048,10.199,10.2432,10.2664,10.2513,10.2688,10.3351,10.3177,10.2513,10.2746,10.3351,10.2746,8.0919,8.1775,8.1287,8.107,8.1145,8.1558,8.1482,8.1167,8.1558,8.217,8.2636,8.2761,8.3076,8.3564,8.3586,8.3537,8.3586,8.3613,8.3271,8.2783,8.2734,8.2414,8.2046,8.1677,8.1434,8.0578,8.021,8.0259,8.0259,8.0308,8.0162,8.0259,7.97,7.9505,7.9456,7.8822,7.8724,7.8676,7.8652,7.8604,7.8604,7.8652,7.9521,8.0279,8.0655,8.0954,8.2684,8.3704,8.5415,8.6487,8.6551,8.711,8.9549,9.0604,9.1849,9.329,9.3786,9.3728,9.3765,9.3786,9.4099,9.4739,9.4775,9.5146,9.5633,9.5808,9.5808,9.5808,9.575,9.5808,9.5808,9.5808,9.5808,9.5808,9.5866,9.6019,9.623,9.4928,9.423,9.5393,9.6324,9.7313,9.7975,9.8289,9.9126,9.986,10.0034,10.0512,10.0687,10.1175,10.1233,10.1559,10.1501,10.1501,10.1501,10.1699,10.1792,10.1931,10.199,10.1966,10.1966,10.1617,10.1326,10.0919,10.057,10.1071,10.1478,10.1187,10.1152,10.1559,10.1675,10.1443,10.1268,10.1093,10.0675,7.9325,8.0285,8.0015,7.9602,7.9261,7.9869,7.9869,7.9261,8.0015,8.0897,8.1486,8.1659,8.2099,8.2805,8.268,8.2875,8.268,8.2631,8.249,8.1659,8.1659,8.0923,7.9797,7.9602,7.9554,7.9479,7.9554,7.9554,7.9505,7.9358,7.9602,7.9407,7.8701,7.8383,7.8311,7.7751,7.719,7.719,7.7239,7.7385,7.736,7.7385,7.7461,7.7586,7.7537,7.7438,7.769,7.9052,8.0506,8.1257,8.1559,8.3203,8.6027,8.7731,8.9388,9.0902,9.1549,9.2078,9.1999,9.2231,9.2485,9.3379,9.3495,9.3924,9.4913,9.4797,9.4855,9.4972,9.4972,9.4739,9.4681,9.4935,9.4739,9.4622,9.4681,9.4797,9.4681,9.3204,9.266,9.3358,9.3903,9.4331,9.5321,9.5983,9.6332,9.6077,9.6637,9.7152,9.7756,9.8302,9.8861,9.9559,9.9594,9.9849,10.0024,10.057,10.0547,10.0489,10.0373,10.0315,10.0315,10.0082,10.0315,10.0024,9.9559,9.9675,10.0198,10.0024,10.0129,9.9885,9.9791,9.938,9.8984,9.872,9.8362,7.622,8.021,7.9261,7.9358,7.9944,8.0162,7.982,8.0015,7.9967,8.0236,8.0432,8.0432,8.0702,8.06,8.1017,8.0724,8.0724,8.0968,8.0675,8.0675,8.0334,7.9531,7.8018,7.7897,7.7823,7.7774,7.7555,7.7628,7.7848,7.7751,7.7604,7.7751,7.7604,7.736,7.7409,7.7311,7.719,7.719,7.719,7.719,7.719,7.7044,7.6995,7.6995,7.6995,7.6995,7.7169,7.7491,7.7692,7.7814,7.9812,8.0905,8.1952,8.6221,8.8194,8.9035,9.0762,9.1824,9.1941,9.1941,9.2136,9.2252,9.2311,9.2311,9.2601,9.2797,9.2776,9.2834,9.2369,9.2718,9.2739,9.2543,9.266,9.2834,9.2601,9.2427,9.2311,9.2115,9.1999,9.2194,9.3241,9.3786,9.439,9.4972,9.5692,9.4833,9.5495,9.5859,9.615,9.6753,9.7313,9.7814,9.8082,9.8257,9.878,9.9384,9.9384,9.9442,9.9442,9.921,9.921,9.921,9.9384,9.9559,9.9559,9.9559,9.9559,9.949,9.9457,9.9227,9.8503,9.7657,9.6686,9.6213,9.5872,7.4085,7.6005,7.6681,7.719,7.7555,7.7604,7.7604,7.7677,7.8164,7.8773,7.931,7.9358,7.9749,8.0259,8.0259,8.0259,8.0259,8.0259,8.0259,8.0188,7.9651,7.8604,7.7532,7.719,7.719,7.719,7.7165,7.719,7.719,7.719,7.719,7.719,7.719,7.719,7.719,7.719,7.719,7.7165,7.719,7.719,7.7092,7.6604,7.6336,7.6287,7.6287,7.6262,7.636,7.6823,7.6482,7.5751,7.6307,7.8193,8.0727,8.3085,8.5677,8.9213,9.0172,9.1164,9.1729,9.1941,9.1941,9.1962,9.1941,9.1941,9.1903,9.1941,9.1941,9.1882,9.1941,9.1941,9.1941,9.1941,9.1941,9.1962,9.1941,9.1962,9.1962,9.1824,9.1941,9.2078,9.2427,9.2776,9.2776,9.3183,9.3474,9.367,9.404,9.439,9.4564,9.5495,9.6194,9.6731,9.708,9.7268,9.7675,9.8431,9.8606,9.9093,9.9093,9.8651,9.8534,9.8476,9.8803,9.9268,9.9442,9.9559,9.9559,9.9513,9.8926,9.795,9.739,9.6332,9.4376,9.3256,9.3084,7.2668,7.4115,7.5442,7.5848,7.5628,7.5628,7.5677,7.575,7.6506,7.7409,7.8164,7.8311,7.8724,7.9381,7.9407,7.9456,7.9358,7.9358,7.9456,7.9335,7.8652,7.7897,7.7311,7.719,7.719,7.719,7.719,7.719,7.719,7.719,7.719,7.719,7.719,7.719,7.719,7.719,7.7067,7.6774,7.6751,7.6604,7.6214,7.5506,7.5164,7.5139,7.5139,7.5139,7.5261,7.5896,7.5457,7.3992,7.3846,7.5836,7.9459,8.0902,8.3437,8.7405,8.8963,8.9963,9.0682,9.0798,9.0856,9.0915,9.0624,9.0915,9.0915,9.1205,9.1417,9.1475,9.1824,9.1941,9.1941,9.1941,9.1941,9.1903,9.1089,9.0682,9.074,9.0915,9.0894,9.0935,9.0798,9.0777,9.0777,9.0856,9.0915,9.1031,9.1517,9.2099,9.1924,9.2506,9.2877,9.4019,9.5103,9.5662,9.6308,9.7121,9.7689,9.7979,9.726,9.6388,9.6266,9.6266,9.7116,9.8105,9.7291,9.7429,9.8011,9.8367,9.7557,9.6446,9.5675,9.4636,9.2591,9.037,9.016,7.1992,7.6714,7.6943,7.6138,7.5506,7.5432,7.5432,7.5555,7.575,7.636,7.7165,7.7434,7.7458,7.7434,7.7702,7.7702,7.7434,7.7604,7.7702,7.7604,7.7483,7.736,7.7165,7.719,7.719,7.719,7.719,7.719,7.719,7.719,7.719,7.719,7.719,7.719,7.7019,7.7116,7.6604,7.5799,7.5676,7.5188,7.4285,7.4041,7.3992,7.4016,7.3968,7.3992,7.3968,7.3992,7.3992,7.3846,7.3602,7.4807,7.745,7.9849,8.2128,8.499,8.7028,8.8095,8.8317,8.8725,8.8646,8.8704,8.8704,8.8239,8.8762,8.9556,9.0117,9.0175,9.101,9.1708,9.165,9.1592,9.1671,9.1613,8.9926,8.8762,8.8375,8.8472,8.8704,8.8588,8.8297,8.8297,8.8646,8.8588,8.8588,8.8646,8.8762,8.9111,8.9228,8.9635,8.946,9.0217,9.1417,9.1999,9.2454,9.329,9.4326,9.4094,9.295,9.2563,9.2543,9.2834,9.3474,9.423,9.4463,9.5066,9.548,9.5539,9.5156,9.3752,9.2888,9.2558,9.0793,8.8276,8.6754,6.6575,7.0002,7.1181,7.2325,7.3504,7.3552,7.3919,7.4602,7.5261,7.6189,7.6995,7.7165,7.719,7.719,7.719,7.719,7.719,7.719,7.719,7.719,7.719,7.719,7.719,7.719,7.719,7.719,7.719,7.719,7.719,7.719,7.7165,7.719,7.719,7.6897,7.6214,7.6189,7.5628,7.47,7.4481,7.4358,7.3846,7.3212,7.287,7.287,7.2894,7.2894,7.2845,7.2282,7.194,7.1917,7.1892,7.3806,7.7265,7.9686,8.2305,8.487,8.6364,8.7192,8.7968,8.789,8.8006,8.8006,8.8006,8.8006,8.8123,8.8355,8.8762,8.8821,8.9286,8.946,8.9539,8.9539,8.9539,8.946,8.8472,8.8123,8.8006,8.8006,8.8006,8.789,8.789,8.8006,8.8006,8.8006,8.8006,8.8006,8.8006,8.8006,8.8006,8.7908,8.8297,8.8684,8.8972,8.898,8.899,8.9675,9.0838,8.9741,8.8585,8.8744,8.9378,8.9789,9.037,9.1264,9.202,9.2564,9.3324,9.3212,9.2545,9.0402,8.8845,8.7875,8.6494,8.456,8.3742,6.3371,6.5914,6.7188,6.8575,6.9862,7.0769,7.1462,7.228,7.3922,7.5139,7.5994,7.614,7.614,7.614,7.614,7.6286,7.6653,7.6311,7.614,7.6091,7.6091,7.6042,7.6091,7.6091,7.614,7.6189,7.6482,7.6848,7.7067,7.719,7.6946,7.6751,7.6702,7.6141,7.5091,7.5042,7.4505,7.3504,7.3334,7.3212,7.2845,7.2185,7.1843,7.1843,7.1819,7.1843,7.1794,7.1133,7.0791,7.0791,7.0765,7.2843,7.6915,7.9657,8.2254,8.5036,8.5524,8.5931,8.6707,8.6765,8.6707,8.6823,8.6823,8.6823,8.6823,8.7192,8.7425,8.7445,8.7832,8.8006,8.8006,8.8006,8.7715,8.6939,8.6823,8.6707,8.659,8.6707,8.6823,8.6823,8.6823,8.6843,8.6843,8.6727,8.659,8.6668,8.6649,8.6153,8.599,8.5897,8.6743,8.6066,8.7124,8.7209,8.6307,8.6201,8.5852,8.4365,8.4407,8.4833,8.6284,8.721,8.7986,8.8742,8.9402,9.0155,9.1012,9.0948,9.0035,8.8365,8.6699,8.4428,8.1853,8.0955,8.093,6.3261,6.5528,6.6042,6.5467,6.5485,6.7673,6.8541,6.9308,7.1485,7.3284,7.4236,7.409,7.4285,7.409,7.4285,7.4578,7.5139,7.4505,7.409,7.4188,7.4115,7.4115,7.4164,7.4212,7.4236,7.4236,7.5139,7.6116,7.6848,7.6799,7.6409,7.575,7.5603,7.5042,7.3895,7.3846,7.3358,7.2552,7.2308,7.1843,7.0938,7.0938,7.0938,7.0912,7.0889,7.0889,7.084,7.0814,7.0814,7.084,7.0814,7.2933,7.7128,7.9883,8.1938,8.3935,8.4264,8.4284,8.4342,8.4516,8.4633,8.4633,8.44,8.4633,8.4865,8.5544,8.6125,8.63,8.7056,8.7774,8.7715,8.7657,8.6843,8.4749,8.4652,8.4691,8.4516,8.4342,8.4284,8.4458,8.4574,8.4284,8.4284,8.4652,8.4768,8.4749,8.4671,8.4223,8.3098,8.3908,8.3348,8.254,8.3781,8.4394,8.3389,8.2386,8.0808,7.9933,8.1286,8.2591,8.4449,8.5466,8.6222,8.6338,8.7036,8.7463,8.8327,8.7136,8.6419,8.6195,8.5228,8.3375,8.1091,7.9174,7.8709,5.8756,6.1042,6.1203,6.1992,6.3572,6.6224,6.7792,6.8686,7.1197,7.287,7.3748,7.3846,7.3846,7.3846,7.3846,7.3748,7.3333,7.3064,7.3212,7.3822,7.3846,7.3846,7.3846,7.3846,7.3846,7.3944,7.4285,7.4578,7.492,7.4944,7.4773,7.4456,7.4432,7.3895,7.2967,7.2845,7.2308,7.1452,7.128,7.1133,7.0863,7.0765,7.0765,7.0765,7.0765,7.0765,7.0765,7.0765,7.1036,7.1599,7.1133,7.3145,7.8218,8.1485,8.345,8.4052,8.4148,8.4148,8.4148,8.4148,8.4148,8.4148,8.4148,8.4148,8.4148,8.4536,8.4768,8.4865,8.5272,8.5408,8.5408,8.5466,8.5039,8.44,8.4148,8.4148,8.4148,8.4148,8.4148,8.4148,8.4148,8.4148,8.4168,8.4148,8.4148,8.4148,8.4148,8.4032,8.3314,8.3742,8.3742,8.3333,8.3353,8.2134,8.0631,8.0075,7.8723,7.9761,8.1168,8.2347,8.3679,8.4148,8.4574,8.4439,8.4633,8.5001,8.4481,8.319,8.2784,8.2823,8.2257,8.1044,7.8849,7.7414,7.722,5.5971,5.7522,5.7522,5.8447,6.0242,6.2865,6.4881,6.6609,6.9247,7.1217,7.2531,7.2747,7.2723,7.2771,7.2723,7.2356,7.1794,7.1745,7.2064,7.2649,7.2747,7.2747,7.2747,7.2723,7.2747,7.2845,7.3138,7.3528,7.3797,7.3846,7.3676,7.3407,7.3309,7.2796,7.194,7.1745,7.1403,7.084,7.0765,7.0765,7.0765,7.0765,7.0765,7.0765,7.0765,7.0765,7.0765,7.0765,7.1231,7.2259,7.1696,7.3901,7.9136,8.148,8.2827,8.3994,8.4148,8.4148,8.4148,8.4148,8.4148,8.4148,8.4148,8.4148,8.4148,8.4148,8.4148,8.4206,8.4206,8.4148,8.4168,8.4148,8.4148,8.4148,8.4148,8.4148,8.4148,8.4148,8.4148,8.4148,8.4148,8.4148,8.4148,8.4148,8.4148,8.411,8.345,8.253,8.2054,8.1775,8.1117,8.0778,8.1137,8.1016,7.8497,7.8246,7.8204,7.976,8.0515,8.1338,8.3255,8.4032,8.4148,8.4206,8.4206,8.4516,8.4613,8.3313,8.2362,8.1853,7.9933,7.8185,7.4676,7.5456,7.5598,5.5012,5.5064,5.5064,5.5208,5.5286,5.8042,6.0517,6.3393,6.591,6.8421,7.0751,7.0889,7.0791,7.0889,7.101,7.0814,7.0791,7.0863,7.0889,7.0938,7.0889,7.0814,7.0765,7.0765,7.0863,7.1133,7.1892,7.2698,7.3553,7.3651,7.3212,7.2331,7.2282,7.1768,7.0987,7.0889,7.0765,7.0765,7.0765,7.0765,7.0765,7.0765,7.0674,7.0421,7.0674,7.0765,7.0742,7.0694,7.1182,7.2282,7.2248,7.4895,8.0049,7.9917,8.0878,8.3528,8.4051,8.4071,8.4168,8.4148,8.4148,8.4148,8.4148,8.4148,8.4148,8.4148,8.4148,8.4148,8.4148,8.4148,8.4148,8.4148,8.4148,8.4148,8.4148,8.4032,8.3955,8.3703,8.3994,8.3625,8.3275,8.3099,8.3509,8.3897,8.3392,8.302,8.1898,8.0189,7.8705,7.7973,7.7488,7.6584,7.7298,7.8539,8.0107,7.8996,7.8809,8.0311,8.0636,7.9472,8.2094,8.4148,8.4148,8.4148,8.4148,8.4148,8.4148,8.3644,8.2756,8.099,7.9076,7.6606,7.4084,7.4058,7.4109,5.5012,5.5012,5.5012,5.5012,5.5234,5.7762,6.0392,6.2968,6.5697,6.835,7.0651,7.0765,7.0765,7.0765,7.0765,7.0765,7.0765,7.0765,7.0765,7.0765,7.0765,7.0765,7.0765,7.0765,7.0765,7.0791,7.1036,7.1354,7.155,7.1622,7.1452,7.1208,7.1159,7.1036,7.0814,7.0765,7.0765,7.0765,7.0765,7.0765,7.0696,7.0765,6.9841,6.828,6.9726,7.0765,7.0742,6.9941,7.0358,7.2208,7.2426,7.464,7.9246,8.0111,8.1161,8.2699,8.2925,8.3237,8.4109,8.4148,8.4148,8.4148,8.4148,8.4148,8.4148,8.4148,8.4148,8.4109,8.4148,8.4109,8.4148,8.4148,8.4148,8.4148,8.4148,8.3431,8.2153,8.1778,8.1298,7.9691,7.9842,7.9403,7.9444,7.9589,7.9733,7.9616,7.8955,7.8057,7.7678,7.7425,7.7847,7.8942,7.9314,8.0072,8.0515,7.8778,7.9774,8.1197,8.1113,8.0514,8.3372,8.4071,8.4168,8.4168,8.4168,8.4148,8.4148,8.4032,8.3409,8.1011,7.7903,7.481,7.3284,7.2781,7.2842,5.5012,5.5012,5.5012,5.5012,5.5156,5.664,5.939,6.2797,6.4496,6.7315,7.049,7.0765,7.0765,7.0765,7.0765,7.0765,7.0765,7.0765,7.0765,7.0765,7.0765,7.0765,7.0765,7.0765,7.0765,7.0742,7.0257,7.0234,7.0596,7.0257,7.0306,7.0694,7.0765,7.0765,7.0765,7.0765,7.0765,7.0765,7.0765,6.9656,6.7904,6.8561,6.7904,6.5842,6.8367,6.9626,6.8565,6.8448,6.9408,7.1447,7.1716,7.428,7.9568,8.0035,8.123,8.3665,8.3003,8.2751,8.3411,8.345,8.3683,8.4168,8.4148,8.4148,8.4148,8.4148,8.3703,8.2908,8.2617,8.2927,8.3353,8.345,8.3625,8.4129,8.4148,8.3684,8.2255,8.1442,8.0474,7.9141,7.812,7.7594,7.7531,7.7531,7.7531,7.7488,7.6595,7.6166,7.6015,7.5353,7.5864,7.7444,7.7696,7.7957,7.9005,7.756,7.8349,8.0853,8.0795,8.0491,8.2489,8.345,8.3683,8.4109,8.4168,8.4148,8.4051,8.4052,8.3916,8.2549,7.9024,7.5811,7.2731,7.1922,7.1643,5.4746,5.4784,5.4822,5.4924,5.4886,5.4938,5.7906,6.233,6.2667,6.5658,7.0341,7.0596,7.0645,7.0742,7.0765,7.0765,7.0765,7.0765,7.0765,7.0765,7.0765,7.0765,7.0765,7.0765,7.0765,7.0645,6.9603,6.9626,7.0426,6.9506,6.9554,7.0475,7.0742,7.0765,7.0696,7.049,7.0374,7.0398,7.0118,6.7551,6.2944,6.5075,6.5171,6.2514,6.6406,6.7498,6.5384,6.6488,6.8282,7.0254,7.0648,7.3786,7.9484,7.9766,8.1209,8.521,8.3624,8.2323,8.2265,8.2265,8.2693,8.3722,8.3722,8.3703,8.3722,8.3761,8.281,8.1219,8.0598,8.1121,8.209,8.2246,8.2693,8.3683,8.3896,8.3936,8.3354,8.1898,8.0454,8.0332,7.7657,7.6926,7.6402,7.6359,7.6552,7.6166,7.4764,7.3744,7.3684,7.2506,7.2231,7.3277,7.3112,7.4043,7.6647,7.5653,7.6854,7.9575,7.8782,7.9257,8.1162,8.2304,8.246,8.2966,8.3528,8.347,8.3528,8.3819,8.3606,8.2527,8.1116,7.9217,7.5589,7.2949,7.1098,5.3051,5.3152,5.3823,5.4114,5.414,5.4114,5.7078,6.1753,6.1853,6.4726,6.902,6.9408,6.9893,7.0694,7.0765,7.0742,7.0765,7.0765,7.0742,7.0765,7.0765,7.0765,7.0765,7.0765,7.0765,7.0596,6.9554,6.9142,6.9337,6.9142,6.9142,6.9457,7.0306,7.0765,7.0719,6.8795,6.7739,6.7621,6.5651,6.3042,6.0017,6.2331,6.2156,5.9438,6.3466,6.5405,6.4363,6.5546,6.6867,6.8153,6.9927,7.2737,7.6728,7.9203,8.1282,8.2893,8.2712,8.1955,8.1024,8.0889,8.1005,8.1336,8.1336,8.1277,8.1336,8.1336,8.1045,8.0598,8.0365,8.054,8.0849,8.0889,8.1412,8.2595,8.2809,8.2547,8.1628,7.9636,7.7699,7.5682,7.3662,7.2461,7.2281,7.2281,7.2484,7.2524,7.1879,7.1493,7.1493,7.1223,7.0927,7.1479,7.1496,7.2689,7.6479,7.6641,7.7434,7.9888,7.9772,7.9888,8.0342,8.0907,8.1103,8.1394,8.1433,8.155,8.1394,8.1394,8.1452,8.1496,8.0571,7.9161,7.7588,7.5183,7.2511,5.2506,5.2582,5.3,5.319,5.3215,5.3215,5.6154,6.0708,6.0481,6.3289,6.8064,6.8291,6.8628,6.9232,6.9254,6.9232,6.9281,6.9723,6.9941,6.999,7.0475,7.0765,7.0765,7.0765,7.0765,7.0645,6.9089,6.8534,6.8924,6.8508,6.8557,6.9071,7.0208,7.0118,6.8982,6.7574,6.6223,6.4954,6.0839,5.8016,5.6672,5.8708,5.8441,5.5529,6.0927,6.306,6.1492,6.3859,6.5176,6.5117,6.7356,6.9632,7.1834,7.5588,7.8707,8.08,8.0772,8.054,8.0481,7.9939,7.9841,8.0423,8.05,7.9998,7.8834,7.87,7.87,7.87,7.87,7.8932,7.9532,7.959,8.0132,8.1373,8.1489,8.1524,8.131,7.9593,7.7961,7.7052,7.4317,7.2304,7.2281,7.1379,7.0645,7.0039,6.9964,6.972,6.9303,6.9232,6.913,6.8746,6.8657,6.9952,7.2173,7.3457,7.4991,7.6903,7.8026,7.8878,7.9532,7.959,7.9823,8.0307,8.0558,8.05,8.0558,8.05,8.05,8.0429,7.9921,7.9082,7.7992,7.5936,7.3352,5.2647,5.2954,5.3186,5.313,5.281,5.281,5.5085,5.8773,5.8933,6.2051,6.7213,6.7191,6.7311,6.7435,6.7435,6.7435,6.7506,6.841,6.8778,6.8849,6.9818,7.0303,7.028,7.0303,7.04,7.0329,6.8406,6.7923,6.8632,6.8042,6.8042,6.8849,7.0133,6.9471,6.7006,6.6103,6.4399,6.1691,5.6629,5.3924,5.3899,5.5271,5.4765,5.2559,5.8117,6.0075,5.7686,6.1217,6.2677,6.1439,6.3393,6.517,6.6508,7.0407,7.4556,7.8381,7.8359,7.8603,7.9805,7.8874,7.8641,7.9532,7.9823,7.8834,7.6338,7.6239,7.6239,7.6065,7.6047,7.6588,7.7769,7.7961,7.8485,7.9939,8.019,8.0714,8.1824,7.9785,7.8547,7.9502,7.6201,7.3131,7.2897,7.1413,6.972,6.9067,6.8823,6.8508,6.7799,6.7213,6.665,6.589,6.5646,6.6177,6.8049,6.9144,7.1484,7.3118,7.5594,7.7617,7.8583,7.8932,7.9474,8.0288,8.019,8.0132,8.0132,8.0114,7.9707,7.9648,7.9884,7.945,7.7798,7.5497,7.375,5.3408,5.5154,5.6704,5.6152,5.4417,5.4441,5.3862,5.32,5.8131,0.0,0.0,6.6183,6.665,6.7457,6.7435,6.7435,6.7457,6.763,6.775,6.775,6.7967,6.8065,6.8065,6.8016,6.8504,6.9213,6.8042,6.7555,6.7728,6.841,6.841,6.7994,6.972,6.9447,6.6745,6.2522,5.9029,5.6447,5.5339,5.4494,5.3899,5.4138,5.304,5.047,5.4136,5.5284,5.3491,5.6636,5.767,5.6101,5.7237,5.9318,6.246,6.4994,6.9384,7.578,7.614,7.6317,7.722,7.7053,7.6588,7.5692,7.6664,7.6164,7.3547,7.4412,7.457,7.3506,7.339,7.3913,7.5169,7.536,7.6274,7.8659,7.8892,7.9376,8.0371,7.7949,7.6546,7.6841,7.3285,7.0037,7.1199,6.9552,6.7967,6.7799,6.775,6.7581,6.7262,6.6037,6.4984,6.4663,6.4517,6.5218,6.7105,6.8961,7.1058,7.2951,7.5961,7.8163,7.8641,7.9398,8.0114,8.023,7.9532,7.899,7.8816,7.806,7.7286,7.7268,7.8118,7.8748,7.8066,7.5704,7.3091,5.2777,5.475,5.5703,5.5731,0.0,5.5189,5.4255,5.2878,5.7242,6.1013,6.4293,6.5314,6.5814,6.5955,6.6982,6.6877,6.589,6.6406,6.665,6.672,6.7235,6.7435,6.7435,6.7435,6.7728,6.8167,6.7138,6.7544,6.9118,6.8562,6.8857,7.0056,7.05,6.9447,6.6816,6.289,5.8953,5.5064,5.4151,5.3532,5.3114,5.2317,5.1267,5.0138,5.2748,0.0,0.0,0.0,0.0,0.0,0.0,0.0,0.0,6.0017,0.0,6.8773,6.8469,6.8513,6.9497,6.9695,6.9963,7.0685,7.1977,7.187,6.9955,7.2151,7.3174,7.1952,7.2401,7.2924,7.3581,7.3656,7.4453,7.6257,7.6565,7.7379,7.8918,7.7925,7.7432,7.8063,7.5285,7.2606,7.225,7.0361,6.8531,6.6942,6.6698,6.6476,6.589,6.4963,6.4056,6.3548,6.308,6.3087,6.4263,6.6965,7.0022,7.1325,7.4677,7.7171,7.7536,7.81,7.8525,7.8449,7.8002,7.7518,7.746,7.6472,7.5832,7.6454,7.6588,7.6373,7.5588,7.3976,7.1915,5.2651,5.4906,5.5104,5.5466,5.6002,5.6211,5.5785,5.5052,5.7262,5.9613,6.2155,6.4334,6.4901,6.4378,6.6012,6.5851,6.4272,6.4957,6.5235,6.5305,6.6357,6.6894,6.6894,6.6823,6.6991,6.7116,6.6259,6.7472,7.0537,6.9111,6.9704,7.2083,7.1631,6.9862,6.6887,0.0,0.0,0.0,5.3746,5.2558,5.2241,5.0902,5.0067,4.9773,5.1702,0.0,5.5198,5.4675,5.4208,5.3931,5.3587,0.0,0.0,0.0,0.0,0.0,0.0,0.0,0.0,0.0,0.0,0.0,6.6244,6.6603,6.6562,6.9095,7.0275,6.9152,7.049,7.1397,7.1326,7.1618,7.238,7.3859,7.4423,7.5459,7.7496,7.7769,7.8292,7.9496,7.7457,7.5178,7.3208,7.1357,6.8847,6.61,6.5619,6.5082,6.3931,6.3687,6.3324,6.2523,6.1713,6.1176,6.1302,6.5285,6.8358,6.9606,7.3221,7.6241,7.7005,7.7286,7.7402,7.7518,7.7094,7.7036,7.7036,7.5675,7.5035,7.5989,7.5151,7.393,7.2966,7.2223,7.1069,5.5097,5.8843,5.974,5.8998,5.7389,5.8461,5.891,5.8814,6.0086,6.0294,6.0033,6.2802,6.3951,6.3873,6.4092,6.4072,6.3788,6.3242,6.3039,6.3108,6.4182,6.4712,6.474,6.4761,6.5249,6.6086,6.5988,6.704,6.9294,7.102,7.1467,7.09,7.2751,7.1368,6.6959,6.4157,6.132,5.8407,5.5296,5.2974,5.1506,5.1254,5.0442,4.9022,4.9269,4.9183,4.8721,4.8567,4.7897,4.6652,4.8109,4.9514,5.0647,5.3667,5.6654,0.0,6.0451,0.0,0.0,0.0,0.0,0.0,0.0,0.0,0.0,6.4273,6.3269,6.2066,6.4958,6.6742,6.6276,6.7707,6.9517,7.1677,7.3531,7.4761,7.511,7.511,7.5634,7.6937,7.4196,7.1898,7.0997,6.9053,6.7097,6.4956,6.4538,6.3715,6.1957,6.1486,6.1406,6.1274,6.1127,6.0917,6.2017,6.4319,6.7125,6.9861,7.3132,7.6097,7.7813,7.899,7.9823,7.9707,7.8776,7.8176,7.8292,7.6239,7.4778,7.4878,7.393,7.2941,7.2584,7.2399,7.132,5.5316,6.0065,5.9517,5.8712,5.7807,5.8372,5.8667,5.8552,5.7811,5.7938,5.8648,5.9293,6.0532,6.2287,6.3466,6.337,6.2258,6.1916,6.1742,6.1762,6.225,6.2494,6.2494,6.3108,6.3596,6.4064,6.474,6.6457,6.9058,7.0043,7.1546,7.3426,7.3134,7.0748,6.641,6.344,6.1432,6.0359,5.6097,5.3012,5.1392,5.0836,5.0024,4.8832,4.8756,4.8998,4.9465,4.8858,4.8829,4.95,4.985,5.0861,5.2508,5.1731,5.2867,0.0,0.0,0.0,0.0,0.0,0.0,0.0,0.0,0.0,0.0,0.0,5.9838,6.178,6.4476,6.4613,6.1015,6.2469,6.4835,6.7605,6.8056,6.9603,7.3165,7.3581,7.4046,7.5367,7.481,7.3325,7.0703,6.9579,6.7695,6.3874,6.2864,6.2152,6.1145,6.0033,5.9063,5.8434,5.8339,5.8529,5.8908,6.2759,6.6595,6.9177,7.2225,7.5048,7.7087,7.7943,7.8333,7.8292,7.7867,7.746,7.7344,7.5326,7.3889,7.4121,7.3132,7.162,7.0847,7.1254,7.0951,5.4835,5.9768,5.7672,5.7352,5.8184,5.7456,5.7465,5.7735,5.5611,5.5861,5.7803,5.641,5.741,6.0236,6.1579,6.1411,6.0171,6.0287,6.0444,6.0668,6.0932,6.1049,6.1078,6.1888,6.221,6.2258,6.3129,6.5205,6.8288,6.8596,7.0299,7.3175,7.1516,6.9159,6.627,6.2218,6.0507,6.1223,5.6003,5.2632,5.133,5.0432,4.9574,4.8794,4.8566,4.9185,5.0611,4.9669,5.0188,5.2524,5.1935,5.2235,5.3736,5.0774,0.0,0.0,0.0,0.0,0.0,0.0,0.0,0.0,0.0,5.3153,5.1104,0.0,5.7068,0.0,6.3049,6.2146,5.7642,5.858,0.0,0.0,6.2964,6.4623,6.9741,7.1216,7.2359,7.3581,7.4861,7.4104,7.0003,6.953,6.7616,6.2608,6.1185,6.059,6.0238,5.8461,5.6832,5.6011,5.5429,5.525,5.6103,6.0227,6.4435,6.7778,7.0316,7.2736,7.5258,7.5681,7.5681,7.564,7.589,7.614,7.6105,7.4611,7.3506,7.3481,7.2276,7.0589,6.9261,6.98,6.9847,5.4111,5.7817,5.4771,5.5574,5.8674,5.6068,5.6031,5.7668,5.5545,5.588,5.7716,5.5686,5.5825,5.759,5.6854,0.0,5.764,5.8053,5.8667,5.9653,6.059,6.1049,6.1049,6.1127,6.1156,6.1127,6.1225,6.2918,6.5918,6.7175,6.7346,6.6529,6.6313,6.6676,6.7115,6.0547,5.8133,6.0079,5.4436,5.1468,5.1292,5.0409,4.9574,4.8794,4.7989,4.8196,4.9415,4.8732,4.9354,5.1462,5.1562,5.1595,5.1725,0.0,0.0,0.0,0.0,0.0,0.0,0.0,0.0,0.0,0.0,0.0,0.0,0.0,0.0,5.7135,5.7806,0.0,5.7851,5.766,0.0,0.0,0.0,6.1841,6.3565,6.7014,6.98,7.1096,0.0,0.0,6.7661,6.7168,6.5304,6.0362,5.9653,5.9253,5.8325,5.6249,5.4861,5.4607,5.3146,5.2585,5.4242,5.6134,5.9546,6.5394,6.7242,6.9015,7.2306,7.314,7.3024,7.3157,7.4005,7.482,7.4837,7.4587,7.3847,7.1678,7.1096,7.0498,6.9218,6.9086,6.8741,5.1444,5.3936,5.2683,5.3027,5.4231,5.2124,5.228,5.3862,5.058,5.0669,5.2856,5.0769,5.0581,5.1789,5.1422,0.0,0.0,0.0,5.4926,5.6568,5.6989,5.7905,5.9155,5.9789,6.0082,6.0111,6.0717,6.1681,6.2926,6.5274,6.3364,5.7389,0.0,5.8691,5.7992,5.5896,5.5109,5.5464,5.2768,5.0264,4.8188,4.7789,4.6981,4.5714,4.6334,4.7347,4.8607,4.9643,5.0615,5.1498,5.2722,5.2815,0.0,0.0,0.0,0.0,0.0,0.0,0.0,0.0,0.0,0.0,0.0,4.8013,4.604,0.0,0.0,0.0,5.0596,4.991,5.006,5.234,0.0,0.0,0.0,0.0,0.0,0.0,0.0,6.9239,7.0207,6.954,6.7156,6.5665,6.3615,6.0614,5.8108,5.6391,5.5946,0.0,5.0749,5.0749,4.9616,4.9308,5.0744,5.3479,5.6594,6.0135,6.3992,6.8128,7.193,7.2675,7.2675,7.2733,7.3099,7.3448,7.3465,7.3465,7.2692,7.0324,7.0382,7.0181,6.8261,6.8462,6.8796,4.738,0.0,0.0,0.0,0.0,4.7995,4.8206,4.943,4.608,4.5921,4.7983,4.6279,0.0,0.0,0.0,0.0,0.0,0.0,5.2471,5.4177,5.5135,5.6373,5.7954,5.8716,5.9038,5.9038,5.9789,5.9936,5.9701,6.1005,5.7919,5.0712,0.0,0.0,0.0,0.0,5.2353,5.2209,5.1364,4.9347,4.6143,4.5921,4.4909,4.2937,4.4421,4.6481,4.9066,5.0057,5.1121,5.2329,5.2353,0.0,0.0,0.0,0.0,0.0,0.0,0.0,0.0,0.0,0.0,0.0,0.0,0.0,0.0,0.0,0.0,0.0,0.0,0.0,4.5396,4.8071,4.9882,0.0,0.0,0.0,0.0,0.0,0.0,0.0,0.0,0.0,6.5171,6.3295,6.1784,0.0,0.0,5.4463,5.5027,5.096,4.8101,4.8549,4.7183,0.0,4.7958,5.0525,5.3097,5.5341,6.0159,6.5093,6.8921,7.0291,7.0688,7.0351,7.0927,7.1022,7.0275,6.9849,6.8953,6.7503,6.7848,6.801,6.6799,6.7458,6.8404,0.0,0.0,0.0,0.0,4.4933,0.0,0.0,0.0,4.3018,4.2783,0.0,4.322,0.0,0.0,0.0,0.0,4.5381,4.9409,0.0,0.0,5.6147,5.7837,5.7807,5.7856,5.7935,5.7954,5.7905,5.7349,5.6141,5.3353,0.0,0.0,0.0,0.0,0.0,0.0,4.9947,5.0986,5.0306,4.8696,4.6097,4.55,4.3959,4.1369,4.2254,4.5457,5.0913,4.9359,5.0245,5.4216,4.9638,0.0,0.0,0.0,0.0,0.0,0.0,0.0,0.0,0.0,0.0,0.0,0.0,0.0,0.0,0.0,0.0,0.0,0.0,0.0,0.0,4.6181,0.0,0.0,0.0,0.0,0.0,0.0,0.0,0.0,0.0,6.2447,6.0722,5.9735,5.9579,6.0501,0.0,0.0,0.0,0.0,4.7657,4.9357,4.6354,4.4562,4.6716,4.646,4.7706,5.2641,0.0,0.0,6.1526,6.4415,6.599,6.5046,6.6723,6.722,6.4246,6.3107,6.2432,6.2115,6.279,6.3541,6.4362,6.5517,6.6824,0.0,0.0,0.0,0.0,0.0,0.0,0.0,0.0,0.0,3.792,3.8757,3.9426,0.0,0.0,0.0,0.0,0.0,0.0,0.0,0.0,5.0402,5.1573,5.1671,5.3088,5.3008,5.1622,5.1605,5.0629,0.0,0.0,0.0,0.0,0.0,0.0,0.0,0.0,4.7453,4.64,4.7027,4.5958,4.302,4.1051,3.9195,3.7366,3.7625,4.036,4.5738,4.6763,4.8491,0.0,0.0,0.0,0.0,0.0,0.0,0.0,0.0,0.0,0.0,0.0,0.0,0.0,0.0,0.0,0.0,0.0,0.0,0.0,0.0,0.0,0.0,0.0,4.4177,0.0,0.0,0.0,0.0,0.0,0.0,0.0,0.0,0.0,5.6881,5.6348,5.6578,5.8259,5.3742,5.0507,5.1127,0.0,0.0,0.0,0.0,0.0,0.0,0.0,4.3059,4.622,5.0364,5.3699,5.4989,5.9149,6.2196,6.1822,0.0,0.0,5.9889,5.8931,5.8405,5.7585,5.9465,6.0602,5.8711,6.0584,6.222,0.0,0.0,0.0,0.0,0.0,0.0,0.0,0.0,0.0,3.3822,3.4032,0.0,0.0,0.0,0.0,0.0,0.0,0.0,0.0,0.0,0.0,0.0,4.8272,4.9702,0.0,0.0,0.0,0.0,0.0,0.0,0.0,0.0,0.0,0.0,0.0,0.0,4.6215,4.393,4.5134,4.433,4.1251,3.8277,3.5867,3.4102,3.4621,3.6524,3.9955,0.0,0.0,0.0,0.0,0.0,0.0,0.0,0.0,0.0,0.0,0.0,0.0,0.0,0.0,0.0,0.0,0.0,0.0,0.0,0.0,0.0,0.0,0.0,0.0,0.0,4.101,0.0,0.0,0.0,0.0,0.0,0.0,0.0,0.0,0.0,0.0,5.2377,5.3371,5.5078,5.1157,4.8163,4.8163,4.5236,4.3115,0.0,0.0,0.0,0.0,0.0,0.0,0.0,0.0,0.0,0.0,0.0,0.0,0.0,0.0,5.6822,5.3948,5.2805,5.2161,5.1706,0.0,0.0,0.0,0.0,0.0,0.0,0.0,0.0,0.0,0.0,0.0,0.0,0.0,0.0,0.0,3.0064,0.0,0.0,3.4342,0.0,0.0,0.0,0.0,0.0,0.0,0.0,0.0,0.0,0.0,0.0,0.0,0.0,0.0,0.0,0.0,0.0,0.0,0.0,0.0,0.0,0.0,4.6194,4.376,4.4602,4.3854,4.1154,3.7423,3.4289,3.1863,3.3371,3.4288,3.4389,0.0,0.0,0.0,0.0,0.0,0.0,0.0,0.0,0.0,0.0,0.0,0.0,0.0,0.0,0.0,0.0,0.0,0.0,0.0,0.0,0.0,0.0,0.0,0.0,0.0,0.0,3.5375,3.5104,3.6161,0.0,0.0,0.0,0.0,0.0,0.0,0.0,0.0,0.0,5.1056,4.8832,4.7117,4.7105,4.5346,4.39,4.3919,4.3859,4.2486,3.8657,3.9091,3.9958,0.0,0.0,0.0,0.0,0.0,0.0,0.0,0.0,0.0,0.0,0.0,0.0,0.0,0.0,0.0,0.0,0.0,0.0,0.0,0.0,0.0,0.0,0.0,0.0,0.0,0.0,0.0,0.0,0.0,0.0,0.0,0.0,0.0,0.0,0.0,0.0,0.0,0.0,0.0,0.0,0.0,0.0,0.0,0.0,0.0,0.0,0.0,0.0,0.0,0.0,0.0,0.0,0.0,0.0,4.5652,4.3742,4.2368,4.1016,3.9697,3.5199,3.227,3.1081,3.1545,3.2569,0.0,0.0,0.0,0.0,0.0,0.0,0.0,0.0,0.0,0.0,0.0,0.0,0.0,0.0,0.0,0.0,0.0,0.0,0.0,0.0,0.0,0.0,0.0,0.0,0.0,0.0,0.0,0.0,3.6689,3.7393,3.6233,0.0,0.0,0.0,0.0,0.0,0.0,0.0,0.0,0.0,0.0,4.3489,4.4006,4.2465,4.1229,4.1268,4.0072,3.8531,3.6864,3.6306,3.6174,3.6358,0.0,0.0,0.0,0.0,0.0,0.0,0.0,0.0,0.0,0.0,0.0,0.0,0.0,0.0,0.0,0.0,0.0,0.0,0.0,0.0,0.0,0.0,0.0,0.0,0.0,0.0,0.0,0.0,0.0,0.0,0.0,0.0,0.0,0.0,0.0,0.0,0.0,0.0,0.0,0.0,0.0,0.0,0.0,0.0,0.0,0.0,0.0,0.0,0.0,0.0,0.0,0.0,0.0,4.543,4.3755,4.106,3.9466,3.8902,3.4008,3.1115,3.0728,3.0544,3.1153,0.0,0.0,0.0,0.0,0.0,0.0,0.0,0.0,0.0,0.0,0.0,0.0,0.0,0.0,0.0,0.0,0.0,0.0,0.0,0.0,0.0,0.0,0.0,0.0,0.0,0.0,0.0,0.0,3.5143,3.5846,3.419,0.0,0.0,0.0,0.0,0.0,0.0,0.0,0.0,0.0,0.0,4.1643,4.1708,4.1106,0.0,0.0,3.9054,3.7492,3.5114,3.5245,3.5042,3.3342,3.567,0.0,0.0,0.0,0.0,0.0,0.0,0.0,0.0,0.0,0.0,0.0,0.0,0.0,0.0,0.0,0.0,0.0,0.0,0.0,0.0,0.0,0.0,0.0,0.0,0.0,0.0,0.0,0.0,0.0,0.0,0.0,0.0,0.0,0.0,0.0,0.0,0.0,0.0,0.0,0.0,0.0,0.0,0.0,0.0,0.0,0.0,0.0,0.0,0.0,0.0,0.0,0.0,4.5397,4.3772,4.0632,3.902,3.8829,3.3562,3.0702,3.0651,3.0203,3.0048,0.0,0.0,0.0,0.0,0.0,0.0,0.0,0.0,0.0,0.0,0.0,0.0,0.0,0.0,0.0,0.0,0.0,0.0,0.0,0.0,0.0,0.0,0.0,0.0,0.0,0.0,0.0,0.0,0.0,0.0,0.0,0.0,0.0,0.0,0.0,0.0,0.0,0.0,0.0,0.0,0.0,4.1049,4.0107,4.0758,4.1027,0.0,4.0118,3.8541,3.3665,3.5469,3.5823,3.1292,0.0,0.0,0.0,0.0,0.0,0.0,0.0,0.0,0.0,0.0,0.0,0.0,0.0,0.0,0.0,0.0,0.0,0.0,0.0,0.0,0.0,0.0,0.0,0.0,0.0,0.0,0.0,0.0,0.0,0.0,0.0,0.0,0.0,0.0,0.0,0.0,0.0,0.0,0.0,0.0,0.0,0.0,0.0,0.0,0.0,0.0,0.0,0.0,0.0,0.0,0.0,0.0,0.0,0.0,4.4565,4.0361,3.82,3.8066,3.3274,3.0521,3.0129,3.0018,0.0,0.0,0.0,0.0,0.0,0.0,0.0,0.0,0.0,0.0,0.0,0.0,0.0,0.0,0.0,0.0,0.0,0.0,0.0,0.0,0.0,0.0,0.0,0.0,0.0,0.0,0.0,3.042,0.0,0.0,0.0,0.0,0.0,0.0,0.0,0.0,0.0,0.0,0.0,0.0,0.0,0.0,3.9311,3.9064,3.9242,3.9137,0.0,0.0,3.7088,3.3795,3.5067,3.5618,0.0,0.0,0.0,0.0,0.0,0.0,0.0,0.0,0.0,0.0,0.0,0.0,0.0,0.0,0.0,0.0,0.0,0.0,0.0,0.0,0.0,0.0,0.0,0.0,0.0,0.0,0.0,0.0,0.0,0.0,0.0,0.0,0.0,0.0,0.0,0.0,0.0,0.0,0.0,0.0,0.0,0.0,0.0,0.0,0.0,0.0,0.0,0.0,0.0,0.0,0.0,0.0,0.0,0.0,4.4245,4.4667,3.9589,3.7063,3.7405,3.2892,2.9673,2.813,2.8792,2.8814,0.0,0.0,0.0,0.0,0.0,0.0,0.0,0.0,0.0,0.0,0.0,0.0,0.0,0.0,0.0,0.0,0.0,0.0,0.0,0.0,0.0,0.0,0.0,0.0,0.0,0.0,0.0,0.0,0.0,0.0,0.0,0.0,0.0,0.0,0.0,0.0,0.0,0.0,0.0,0.0,0.0,0.0,3.8117,3.7834,0.0,0.0,0.0,3.5714,3.3745,0.0,0.0,0.0,0.0,0.0,0.0,0.0,0.0,0.0,0.0,0.0,0.0,0.0,0.0,0.0,0.0,0.0,0.0,0.0,0.0,0.0,0.0,0.0,0.0,0.0,0.0,0.0,0.0,0.0,0.0,0.0,0.0,0.0,0.0,0.0,0.0,0.0,0.0,0.0,0.0,0.0,0.0,0.0,0.0,0.0,0.0,0.0,0.0,0.0,0.0,0.0,0.0,0.0,0.0,0.0,0.0,0.0,4.4642,3.9079,3.6471,3.6872,3.256,2.8863,2.6073,2.7416,2.7688,0.0,0.0,0.0,0.0,0.0,0.0,0.0,0.0,0.0,0.0,0.0,0.0,0.0,0.0,0.0,0.0,0.0,0.0,0.0,0.0,0.0,0.0,0.0,0.0,0.0,0.0,0.0,0.0,0.0,0.0,0.0,0.0,0.0,0.0,0.0,0.0,0.0,0.0,0.0,0.0,0.0,3.6416,3.7244,3.6678,3.6395,0.0,0.0,3.4685,3.3757,3.4383,0.0,0.0,0.0,0.0,0.0,0.0,0.0,0.0,0.0,0.0,0.0,0.0,0.0,0.0,0.0,0.0,0.0,0.0,0.0,0.0,0.0,0.0,0.0,0.0,0.0,0.0,0.0,0.0,0.0,0.0,0.0,0.0,0.0,0.0,0.0,0.0,0.0,0.0,0.0,0.0,0.0,0.0,0.0,0.0,0.0,0.0,0.0,0.0,0.0,0.0,0.0,0.0,0.0,0.0,0.0,0.0,4.484,4.1968,3.9394,3.7097,3.3642,3.048,2.7814,2.7984,2.8502,0.0,0.0,0.0,0.0,0.0,0.0,0.0,0.0,0.0,0.0,0.0,0.0,0.0,0.0,0.0,0.0,0.0,0.0,0.0,0.0,0.0,0.0,0.0,0.0,0.0,0.0,0.0,0.0,0.0,0.0,0.0,0.0,0.0,0.0,0.0,0.0,0.0,0.0,0.0,0.0,0.0,3.6244,3.6395,3.6264,0.0,0.0,0.0,0.0,3.4694,3.4869,0.0,0.0,0.0,0.0,0.0,0.0,0.0,0.0,0.0,0.0,0.0,0.0,0.0,0.0,0.0,0.0,0.0,0.0,0.0,0.0,0.0,0.0,0.0,0.0,0.0,0.0,0.0,0.0,0.0,0.0,0.0,0.0,0.0,0.0,0.0,0.0,0.0,0.0,0.0,0.0,0.0,0.0,0.0,0.0,0.0,0.0,0.0,0.0,0.0,0.0,0.0,0.0,0.0,0.0,0.0,0.0,4.4922,4.2108,3.9131,3.6147,3.3298,2.997,2.6301,2.7246,2.7982,0.0,0.0,0.0,0.0,0.0,0.0,0.0,0.0,0.0,0.0,0.0,0.0,0.0,0.0,0.0,0.0,0.0,0.0,0.0,0.0,0.0,0.0,0.0,0.0,0.0,0.0,0.0,0.0,0.0,0.0,0.0,0.0,0.0,0.0,0.0,0.0,0.0,0.0,0.0,0.0,3.3839,3.4538,3.4971,0.0,0.0,0.0,0.0,0.0,0.0,3.4077,3.4061,0.0,0.0,0.0,0.0,0.0,0.0,0.0,0.0,0.0,0.0,0.0,0.0,0.0,0.0,0.0,0.0,0.0,0.0,0.0,0.0,0.0,0.0,0.0,0.0,0.0,0.0,0.0,0.0,0.0,0.0,0.0,0.0,0.0,0.0,0.0,0.0,0.0,0.0,0.0,0.0,0.0,0.0,0.0,0.0,0.0,0.0,0.0,0.0,0.0,0.0,0.0,0.0,0.0,0.0,0.0,4.4829,4.1697,3.8553,3.5499,3.2966,2.9364,2.4785,2.6281,2.7241,2.7249,0.0,0.0,0.0,0.0,0.0,0.0,0.0,0.0,0.0,0.0,0.0,0.0,0.0,0.0,0.0,0.0,0.0,0.0,0.0,0.0,0.0,0.0,0.0,0.0,0.0,0.0,0.0,0.0,0.0,0.0,0.0,0.0,0.0,0.0,0.0,0.0,0.0,0.0,0.0,3.2172,3.2582,0.0,0.0,0.0,0.0,0.0,0.0,0.0,0.0,3.3113,0.0,0.0,0.0,0.0,0.0,0.0,0.0,0.0,0.0,0.0,0.0,0.0,0.0,0.0,0.0,0.0,0.0,0.0,0.0,0.0,0.0,0.0,0.0,0.0,0.0,0.0,0.0,0.0,0.0,0.0,0.0,0.0,0.0,0.0,0.0,0.0,0.0,0.0,0.0,0.0,0.0,0.0,0.0,0.0,0.0,0.0,0.0,0.0,0.0,0.0,0.0,0.0,0.0,0.0,0.0,0.0,4.3274,4.1398,3.7423,3.4624,3.1251,2.7039,2.6683,2.7498,2.9353,0.0,0.0,0.0,0.0,0.0,0.0,0.0,0.0,0.0,0.0,0.0,0.0,0.0,0.0,0.0,0.0,0.0,0.0,0.0,0.0,0.0,0.0,0.0,0.0,0.0,0.0,0.0,0.0,0.0,0.0,0.0,0.0,0.0,0.0,0.0,0.0,0.0,0.0,3.032,3.0995,0.0,0.0,0.0,0.0,0.0,0.0,0.0,0.0,3.322,0.0,0.0,0.0,0.0,0.0,0.0,0.0,0.0,0.0,0.0,0.0,0.0,0.0,0.0,0.0,0.0,0.0,0.0,0.0,0.0,0.0,0.0,0.0,0.0,0.0,0.0,0.0,0.0,0.0,0.0,0.0,0.0,0.0,0.0,0.0,0.0,0.0,0.0,0.0,0.0,0.0,0.0,0.0,0.0,0.0,0.0,0.0,0.0,0.0,0.0,0.0,0.0,0.0,0.0,0.0,0.0,0.0,0.0,4.185,3.7257,3.4821,3.1642,2.7586,2.623,2.6974,0.0,0.0,0.0,0.0,0.0,0.0,0.0,0.0,0.0,0.0,0.0,0.0,0.0,0.0,0.0,0.0,0.0,0.0,0.0,0.0,0.0,0.0,0.0,0.0,0.0,0.0,0.0,0.0,0.0,0.0,0.0,0.0,0.0,0.0,0.0,0.0,0.0,0.0,0.0,0.0,0.0,0.0,0.0,0.0,0.0,0.0,0.0,0.0,0.0,0.0,0.0,0.0,0.0,0.0,0.0,0.0,0.0,0.0,0.0,0.0,0.0,0.0,0.0,0.0,0.0,0.0,0.0,0.0,0.0,0.0,0.0,0.0,0.0,0.0,0.0,0.0,0.0,0.0,0.0,0.0,0.0,0.0,0.0,0.0,0.0,0.0,0.0,0.0,0.0,0.0,0.0,0.0,0.0,0.0,0.0,0.0,0.0,0.0,0.0,0.0,0.0,0.0,0.0,0.0,0.0,0.0,0.0,0.0,4.127,3.7244,3.4851,3.1662,2.7536,2.6711,2.7336,0.0,0.0,0.0,0.0,0.0,0.0,0.0,0.0,0.0,0.0,0.0,0.0,0.0,0.0,0.0,0.0,0.0,0.0,0.0,0.0,0.0,0.0,0.0,0.0,0.0,0.0,0.0,0.0,0.0,0.0,0.0,0.0,0.0,0.0,0.0,0.0,0.0,0.0,0.0,0.0,0.0,0.0,0.0,0.0,0.0,0.0,0.0,0.0,3.0962,0.0,0.0,0.0,0.0,0.0,0.0,0.0,0.0,0.0,0.0,0.0,0.0,0.0,0.0,0.0,0.0,0.0,0.0,0.0,0.0,0.0,0.0,0.0,0.0,0.0,0.0,0.0,0.0,0.0,0.0,0.0,0.0,0.0,0.0,0.0,0.0,0.0,0.0,0.0,0.0,0.0,0.0,0.0,0.0,0.0,0.0,0.0,0.0,0.0,0.0,0.0,0.0,0.0,0.0,0.0,0.0,0.0,0.0,0.0,4.001,3.9147,3.5521,3.1642,2.7709,2.9834,3.017,0.0,0.0,0.0,0.0,0.0,0.0,0.0,0.0,0.0,0.0,0.0,0.0,0.0,0.0,0.0,0.0,0.0,0.0,0.0,0.0,0.0,0.0,0.0,0.0,0.0,0.0,0.0,0.0,0.0,0.0,0.0,0.0,0.0,0.0,0.0,0.0,0.0,0.0,0.0,0.0,0.0,0.0,0.0,0.0,0.0,0.0,0.0,0.0,0.0,0.0,0.0,0.0,0.0,0.0,0.0,0.0,0.0,0.0,0.0,0.0,0.0,0.0,0.0,0.0,0.0,0.0,0.0,0.0,0.0,0.0,0.0,0.0,0.0,0.0,0.0,0.0,0.0,0.0,0.0,0.0,0.0,0.0,0.0,0.0,0.0,0.0,0.0,0.0,0.0,0.0,0.0,0.0,0.0,0.0,0.0,0.0,0.0,0.0,0.0,0.0,0.0,0.0,0.0,0.0,0.0,0.0,0.0,0.0,3.9166,3.8876,3.6175,3.2891,2.8978,2.947,2.9393,0.0,0.0,0.0,0.0,0.0,0.0,0.0,0.0,0.0,0.0,0.0,0.0,0.0,0.0,0.0,0.0,0.0,0.0,0.0,0.0,0.0,0.0,0.0,0.0,0.0,0.0,0.0,0.0,0.0,0.0,0.0,0.0,0.0,0.0,0.0,0.0,0.0,0.0,0.0,0.0,0.0,0.0,0.0,0.0,0.0,0.0,0.0,0.0,0.0,0.0,0.0,0.0,0.0,0.0,0.0,0.0,0.0,0.0,0.0,0.0,0.0,0.0,0.0,0.0,0.0,0.0,0.0,0.0,0.0,0.0,0.0,0.0,0.0,0.0,0.0,0.0,0.0,0.0,0.0,0.0,0.0,0.0,0.0,0.0,0.0,0.0,0.0,0.0,0.0,0.0,0.0,0.0,0.0,0.0,0.0,0.0,0.0,0.0,0.0,0.0,0.0,0.0,0.0,0.0,0.0,0.0,0.0,0.0,0.0,3.7773,3.6449,3.4087,3.0703,2.9756,2.9262,0.0,0.0,0.0,0.0,0.0,0.0,0.0,0.0,0.0,0.0,0.0,0.0,0.0,0.0,0.0,0.0,0.0,0.0,0.0,0.0,0.0,0.0,0.0,0.0,0.0,0.0,0.0,0.0,0.0,0.0,0.0,0.0,0.0,0.0,0.0,0.0,0.0,0.0,0.0,0.0,0.0,0.0,0.0,0.0,0.0,0.0,0.0,0.0,0.0,0.0,0.0,0.0,0.0,0.0,0.0,0.0,0.0,0.0,0.0,0.0,0.0,0.0,0.0,0.0,0.0,0.0,0.0,0.0,0.0,0.0,0.0,0.0,0.0,0.0,0.0,0.0,0.0,0.0,0.0,0.0,0.0,0.0,0.0,0.0,0.0,0.0,0.0,0.0,0.0,0.0,0.0,0.0,0.0,0.0,0.0,0.0,0.0,0.0,0.0,0.0,0.0,0.0,0.0,0.0,0.0,0.0,0.0,0.0,0.0,3.6063,3.612,3.4822,3.2222,3.2155,3.1072,0.0,0.0,0.0,0.0,0.0,0.0,0.0,0.0,0.0,0.0,0.0,0.0,0.0,0.0,0.0,0.0,0.0,0.0,0.0,0.0,0.0,0.0,0.0,0.0,0.0,0.0,0.0,0.0,0.0,0.0,0.0,0.0,0.0,0.0,0.0,0.0,0.0,0.0,0.0,0.0,0.0,0.0,0.0,0.0,0.0,0.0,0.0,0.0,0.0,0.0,0.0,0.0,0.0,0.0,0.0,0.0,0.0,0.0,0.0,0.0,0.0,0.0,0.0,0.0,0.0,0.0,0.0,0.0,0.0,0.0,0.0,0.0,0.0,0.0,0.0,0.0,0.0,0.0,0.0,0.0,0.0,0.0,0.0,0.0,0.0,0.0,0.0,0.0,0.0,0.0,0.0,0.0,0.0,0.0,0.0,0.0,0.0,0.0,0.0,0.0,0.0,0.0,0.0,0.0,0.0,0.0,0.0,0.0,0.0,3.4657,3.514,3.4431,3.2411,3.2452,3.1506,2.9546,0.0,0.0,0.0,0.0,0.0,0.0,0.0,0.0,0.0,0.0,0.0,0.0,0.0,0.0,0.0,0.0,0.0,0.0,0.0,0.0,0.0,0.0,0.0,0.0,0.0,0.0,0.0,0.0,0.0,0.0,0.0,0.0,0.0,0.0,0.0,0.0,0.0,0.0,0.0,0.0,0.0,0.0,0.0,0.0,0.0,0.0,0.0,0.0,0.0,0.0,0.0,0.0,0.0,0.0,0.0,0.0,0.0,0.0,0.0,0.0,0.0,0.0,0.0,0.0,0.0,0.0,0.0,0.0,0.0,0.0,0.0,0.0,0.0,0.0,0.0,0.0,0.0,0.0,0.0,0.0,0.0,0.0,0.0,0.0,0.0,0.0,0.0,0.0,0.0,0.0,0.0,0.0,0.0,0.0,0.0,0.0,0.0,0.0,0.0,0.0,0.0,0.0,0.0,0.0,0.0,0.0,0.0,0.0,3.3448,3.4191,3.3947,3.2535,3.2702,3.2089,0.0,0.0,0.0,0.0,0.0,0.0,0.0,0.0,0.0,0.0,0.0,0.0,0.0,0.0,0.0,0.0,0.0,0.0,0.0,0.0,0.0,0.0,0.0,0.0,0.0,0.0,0.0,0.0,0.0,0.0,0.0,0.0,0.0,0.0,0.0,0.0,0.0,0.0,0.0,0.0,0.0,0.0,0.0,0.0,0.0,0.0,0.0,0.0,0.0,0.0,0.0,0.0,0.0,0.0,0.0,0.0,0.0,0.0,0.0,0.0,0.0,0.0,0.0,0.0,0.0,0.0,0.0,0.0,0.0,0.0,0.0,0.0,0.0,0.0,0.0,0.0,0.0,0.0,0.0,0.0,0.0,0.0,0.0,0.0,0.0,0.0,0.0,0.0,0.0,0.0,0.0,0.0,0.0,0.0,0.0,0.0,0.0,0.0,0.0,0.0,0.0,0.0,0.0,0.0,0.0,0.0,0.0,0.0,3.3448,3.262,3.3426,3.3486,3.2535,3.328,3.2963,0.0,0.0,0.0,0.0,0.0,0.0,0.0,0.0,0.0,0.0,0.0,0.0,0.0,0.0,0.0,0.0,0.0,0.0,0.0,0.0,0.0,0.0,0.0,0.0,0.0,0.0,0.0,0.0,0.0,0.0,0.0,0.0,0.0,0.0,0.0,0.0,0.0,0.0,0.0,0.0,0.0,0.0,0.0,0.0,0.0,0.0,0.0,0.0,0.0,0.0,0.0,0.0,0.0,0.0,0.0,0.0,0.0,0.0,0.0,0.0,0.0,0.0,0.0,0.0,0.0,0.0,0.0,0.0,0.0,0.0,0.0,0.0,0.0,0.0,0.0,0.0,0.0,0.0,0.0,0.0,0.0,0.0,0.0,0.0,0.0,0.0,0.0,0.0,0.0,0.0,0.0,0.0,0.0,0.0,0.0,0.0,0.0,0.0,0.0,0.0,0.0,0.0,0.0,0.0,0.0,0.0,0.0,0.0,0.0,3.4175,0.0,3.4153,3.4841,3.3137,3.2126,0.0,0.0,0.0,0.0,0.0,0.0,0.0,0.0,0.0,0.0,0.0,0.0,0.0,0.0,0.0,0.0,0.0,0.0,0.0,0.0,0.0,0.0,0.0,0.0,0.0,0.0,0.0,0.0,0.0,0.0,0.0,0.0,0.0,0.0,0.0,0.0,0.0,0.0,0.0,0.0,0.0,0.0,0.0,0.0,0.0,0.0,0.0,0.0,0.0,0.0,0.0,0.0,0.0,0.0,0.0,0.0,0.0,0.0,0.0,0.0,0.0,0.0,0.0,0.0,0.0,0.0,0.0,0.0,0.0,0.0,0.0,0.0,0.0,0.0,0.0,0.0,0.0,0.0,0.0,0.0,0.0,0.0,0.0,0.0,0.0,0.0,0.0,0.0,0.0,0.0,0.0,0.0,0.0,0.0,0.0,0.0,0.0,0.0,0.0,0.0,0.0,0.0,0.0,0.0,0.0,0.0,0.0,0.0,0.0,3.4061,3.3584,3.3795,3.4749,3.3698,3.2742,0.0,0.0,0.0,0.0,0.0,0.0,0.0,0.0,0.0,0.0,0.0,0.0,0.0,0.0,0.0,0.0,0.0,0.0,0.0,0.0,0.0,0.0,0.0,0.0,0.0,0.0,0.0,0.0,0.0,0.0,0.0,0.0,0.0,0.0,0.0,0.0,0.0,0.0,0.0,0.0,0.0,0.0,0.0,0.0,0.0,0.0,0.0,0.0,0.0,0.0,0.0,0.0,0.0,0.0,0.0,0.0,0.0,0.0,0.0,0.0,0.0,0.0,0.0,0.0,0.0,0.0,0.0,0.0,0.0,0.0,0.0,0.0,0.0,0.0,0.0,0.0,0.0,0.0,0.0,0.0,0.0,0.0,0.0,0.0,0.0,0.0,0.0,0.0,0.0,0.0,0.0,0.0,0.0,0.0,0.0,0.0,0.0,0.0,0.0,0.0,0.0,0.0,0.0,0.0,0.0,0.0,0.0,0.0,0.0,3.2665,3.2649,3.2627,3.2642,3.4727,3.4532,0.0,0.0,0.0,0.0,0.0,0.0,0.0,0.0,0.0,0.0,0.0,0.0,0.0,0.0,0.0,0.0,0.0,0.0,0.0,0.0,0.0,0.0,0.0,0.0,0.0,0.0,0.0,0.0,0.0,0.0,0.0,0.0,0.0,0.0,0.0,0.0,0.0,0.0,0.0,0.0,0.0,0.0,0.0,0.0,0.0,0.0,0.0,0.0,0.0,0.0,0.0,0.0,0.0,0.0,0.0,0.0,0.0,0.0,0.0,0.0,0.0,0.0,0.0,0.0,0.0,0.0,0.0,0.0,0.0,0.0,0.0,0.0,0.0,0.0,0.0,0.0,0.0,0.0,0.0,0.0,0.0,0.0,0.0,0.0,0.0,0.0,0.0,0.0,0.0,0.0,0.0,0.0,0.0,0.0,0.0,0.0,0.0,0.0,0.0,0.0,0.0,0.0,0.0,0.0,0.0,0.0,0.0,0.0,0.0,0.0,3.4808,3.4592,3.3501,3.2894,3.2795,3.3131,0.0,0.0,0.0,0.0,0.0,0.0,0.0,0.0,0.0,0.0,0.0,0.0,0.0,0.0,0.0,0.0,0.0,0.0,0.0,0.0,0.0,0.0,0.0,0.0,0.0,0.0,0.0,0.0,0.0,0.0,0.0,0.0,0.0,0.0,0.0,0.0,0.0,0.0,0.0,0.0,0.0,0.0,0.0,0.0,0.0,0.0,0.0,0.0,0.0,0.0,0.0,0.0,0.0,0.0,0.0,0.0,0.0,0.0,0.0,0.0,0.0,0.0,0.0,0.0,0.0,0.0,0.0,0.0,0.0,0.0,0.0,0.0,0.0,0.0,0.0,0.0,0.0,0.0,0.0,0.0,0.0,0.0,0.0,0.0,0.0,0.0,0.0,0.0,0.0,0.0,0.0,0.0,0.0,0.0,0.0,0.0,0.0,0.0,0.0,0.0,0.0,0.0,0.0,0.0,0.0,0.0,0.0,0.0,0.0,0.0,3.358,3.2641,3.167,3.1678,0.0,0.0,0.0,0.0,0.0,0.0,0.0,0.0,0.0,0.0,0.0,0.0,0.0,0.0,0.0,0.0,0.0,0.0,0.0,0.0,0.0,0.0,0.0,0.0,0.0,0.0,0.0,0.0,0.0,0.0,0.0,0.0,0.0,0.0,0.0,0.0,0.0,0.0,0.0,0.0,0.0,0.0,0.0,0.0,0.0,0.0,0.0,0.0,0.0,0.0,0.0,0.0,0.0,0.0,0.0,0.0,0.0,0.0,0.0,0.0,0.0,0.0,0.0,0.0,0.0,0.0,0.0,0.0,0.0,0.0,0.0,0.0,0.0,0.0,0.0,0.0,0.0,0.0,0.0,0.0,0.0,0.0,0.0,0.0,0.0,0.0,0.0,0.0,0.0,0.0,0.0,0.0,0.0,0.0,0.0,0.0,0.0,0.0,0.0,0.0,0.0,0.0,0.0,0.0,0.0,0.0,0.0,0.0,0.0,0.0,0.0,3.1048,3.1248,3.0994,0.0,3.1422,0.0,0.0,0.0,0.0,0.0,0.0,0.0,0.0,0.0,0.0,0.0,0.0,0.0,0.0,0.0,0.0,0.0,0.0,0.0,0.0,0.0,0.0,0.0,0.0,0.0,0.0,0.0,0.0,0.0,0.0,0.0,0.0,0.0,0.0,0.0,0.0,0.0,0.0,0.0,0.0,0.0,0.0,0.0,0.0,0.0,0.0,0.0,0.0,0.0,0.0,0.0,0.0,0.0,0.0,0.0,0.0,0.0,0.0,0.0,0.0,0.0,0.0,0.0,0.0,0.0,0.0,0.0,0.0,0.0,0.0,0.0,0.0,0.0,0.0,0.0,0.0,0.0,0.0,0.0,0.0,0.0,0.0,0.0,0.0,0.0,0.0,0.0,0.0,0.0,0.0,0.0,0.0,0.0,0.0,0.0,0.0,0.0,0.0,0.0,0.0,0.0,0.0,0.0,0.0,0.0,0.0,0.0,0.0,0.0,0.0,0.0,0.0,3.1639,3.0858,3.2073,0.0,0.0,0.0,0.0,0.0,0.0,0.0,0.0,0.0,0.0,0.0,0.0,0.0,0.0,0.0,0.0,0.0,0.0,0.0,0.0,0.0,0.0,0.0,0.0,0.0,0.0,0.0,0.0,0.0,0.0,0.0,0.0,0.0,0.0,0.0,0.0,0.0,0.0,0.0,0.0,0.0,0.0,0.0,0.0,0.0,0.0,0.0,0.0,0.0,0.0,0.0,0.0,0.0,0.0,0.0,0.0,0.0,0.0,0.0,0.0,0.0,0.0,0.0,0.0,0.0,0.0,0.0,0.0,0.0,0.0,0.0,0.0,0.0,0.0,0.0,0.0,0.0,0.0,0.0,0.0,0.0,0.0,0.0,0.0,0.0,0.0,0.0,0.0,0.0,0.0,0.0,0.0,0.0,0.0,0.0,0.0,0.0,0.0,0.0,0.0,0.0,0.0,0.0,0.0,0.0,0.0,0.0,0.0,0.0,0.0,3.1234,3.3647,3.0934,3.0146,3.169,0.0,0.0,0.0,0.0,0.0,0.0,0.0,0.0,0.0,0.0,0.0,0.0,0.0,0.0,0.0,0.0,0.0,0.0,0.0,0.0,0.0,0.0,0.0,0.0,0.0,0.0,0.0,0.0,0.0,0.0,0.0,0.0,0.0,0.0,0.0,0.0,0.0,0.0,0.0,0.0,0.0,0.0,0.0,0.0,0.0,0.0,0.0,0.0,0.0,0.0,0.0,0.0,0.0,0.0,0.0,0.0,0.0,0.0,0.0,0.0,0.0,0.0,0.0,0.0,0.0,0.0,0.0,0.0,0.0,0.0,0.0,0.0,0.0,0.0,0.0,0.0,0.0,0.0,0.0,0.0,0.0,0.0,0.0,0.0,0.0,0.0,0.0,0.0,0.0,0.0,0.0,0.0,0.0,0.0,0.0,0.0,0.0,0.0,0.0,0.0,0.0,0.0,0.0,0.0,0.0,0.0,0.0,0.0,0.0,0.0,0.0,0.0,0.0,0.0,3.0832,0.0,0.0,0.0,0.0,0.0,0.0,0.0,0.0,0.0,0.0,0.0,0.0,0.0,0.0,0.0,0.0,0.0,0.0,0.0,0.0,0.0,0.0,0.0,0.0,0.0,0.0,0.0,0.0,0.0,0.0,0.0,0.0,0.0,0.0,0.0,0.0,0.0,0.0,0.0,0.0,0.0,0.0,0.0,0.0,0.0,0.0,0.0,0.0,0.0,0.0,0.0,0.0,0.0,0.0,0.0,0.0,0.0,0.0,0.0,0.0,0.0,0.0,0.0,0.0,0.0,0.0,0.0,0.0,0.0,0.0,0.0,0.0,0.0,0.0,0.0,0.0,0.0,0.0,0.0,0.0,0.0,0.0,0.0,0.0,0.0,0.0,0.0,0.0,0.0,0.0,0.0,0.0,0.0,0.0,0.0,0.0,0.0,0.0,0.0,0.0,0.0,0.0,0.0,0.0,0.0,0.0,0.0,0.0,0.0,0.0,0.0,0.0,0.0,0.0,0.0,0.0,0.0,0.0,0.0,0.0,0.0,0.0,0.0,0.0,0.0,0.0,0.0,0.0,0.0,0.0,0.0,0.0,0.0,0.0,0.0,0.0,0.0,0.0,0.0,0.0,0.0,0.0,0.0,0.0,0.0,0.0,0.0,0.0,0.0,0.0,0.0,0.0,0.0,0.0,0.0,0.0,0.0,0.0,0.0,0.0,0.0,0.0,0.0,0.0,0.0,0.0,0.0,0.0,0.0,0.0,0.0,0.0,0.0,0.0,0.0,0.0,0.0,0.0,0.0,0.0,0.0,0.0,0.0,0.0,0.0,0.0,0.0,0.0,0.0,0.0,0.0,0.0,0.0,0.0,0.0,0.0,0.0,0.0,0.0,0.0,0.0,0.0,0.0,0.0,0.0,0.0,0.0,0.0,0.0,0.0,0.0,0.0,0.0,0.0,0.0,0.0,0.0,0.0,0.0,0.0,0.0,0.0,0.0,0.0,0.0,0.0,0.0,0.0,0.0,0.0,0.0,0.0,0.0,0.0,0.0,0.0,0.0,0.0,0.0,0.0,0.0,0.0,0.0,0.0,0.0,0.0,0.0,0.0,0.0,0.0,0.0,0.0,0.0,0.0,0.0,0.0,0.0,0.0,0.0,0.0,0.0,0.0,0.0,0.0,0.0,0.0,0.0,0.0,0.0,0.0,0.0,0.0,0.0,0.0,0.0,0.0,0.0,0.0,0.0,0.0,0.0,0.0,0.0,0.0,0.0,0.0,0.0,0.0,0.0,0.0,0.0,0.0,0.0,0.0,0.0,0.0,0.0,0.0,0.0,0.0,0.0,0.0,0.0,0.0,0.0,0.0,0.0,0.0,0.0,0.0,0.0,0.0,0.0,0.0,0.0,0.0,0.0,0.0,0.0,0.0,0.0,0.0,0.0,0.0,0.0,0.0,0.0,0.0,0.0,0.0,0.0,0.0,0.0,0.0,0.0,0.0,0.0,0.0,0.0,0.0,0.0,0.0,0.0,0.0,0.0,0.0,0.0,0.0,0.0,0.0,0.0,0.0,0.0,0.0,0.0,0.0,0.0,0.0,0.0,0.0,0.0,0.0,0.0,0.0,0.0,0.0,0.0,0.0,0.0,0.0,0.0,0.0,0.0,0.0,0.0,0.0,0.0,0.0,0.0,0.0,0.0,0.0,0.0,0.0,0.0,0.0,0.0,0.0,0.0,0.0,0.0,0.0,0.0,0.0,0.0,0.0,0.0,0.0,0.0,0.0,0.0,0.0,0.0,0.0,0.0,0.0,0.0,0.0,0.0,0.0,0.0,0.0,0.0,0.0,0.0,0.0,0.0,0.0,0.0,0.0,0.0,0.0,0.0,0.0,0.0,0.0,0.0,0.0,0.0,0.0,0.0,0.0,0.0,0.0,0.0,0.0,0.0,0.0,0.0,0.0,0.0,0.0,0.0,0.0,0.0,0.0,0.0,0.0,0.0,0.0,0.0,0.0,0.0,0.0,0.0,0.0,0.0,0.0,0.0,0.0,0.0,0.0,0.0,0.0,0.0,0.0,0.0,0.0,0.0,0.0,0.0,0.0,0.0,0.0,0.0,0.0,0.0,0.0,0.0,0.0,0.0,0.0,0.0,0.0,0.0,0.0,0.0,0.0,0.0,0.0,0.0,0.0,0.0,0.0,0.0,0.0,0.0,0.0,0.0,0.0,0.0,0.0,0.0,0.0,0.0,0.0,0.0,0.0,0.0,0.0,0.0,0.0,0.0,0.0,0.0,0.0,0.0,0.0,0.0,0.0,0.0,0.0,0.0,0.0,0.0,0.0,0.0,0.0,0.0,0.0,0.0,0.0,0.0,0.0,0.0,0.0,0.0,0.0,0.0,0.0,0.0,0.0,0.0,0.0,0.0,0.0,0.0,0.0,0.0,0.0,0.0,0.0,0.0,0.0,0.0,0.0,0.0,0.0,0.0,0.0,0.0,0.0,0.0,0.0,0.0,0.0,0.0,0.0,0.0,0.0,0.0,0.0,0.0,0.0,0.0,0.0,0.0,0.0,0.0,0.0,0.0,0.0,0.0,0.0,0.0,0.0,0.0,0.0,0.0,0.0,0.0,0.0,0.0,0.0,0.0,0.0,0.0,0.0,0.0,0.0,0.0,0.0,0.0,0.0,0.0,0.0,0.0,0.0,0.0,0.0,0.0,0.0,0.0,0.0,0.0,0.0,0.0,0.0,0.0,0.0,0.0,0.0,0.0,0.0,0.0,0.0,0.0,0.0,0.0,0.0,0.0,0.0,0.0,0.0,0.0,0.0,0.0,0.0,0.0,0.0,0.0,0.0,0.0,0.0,0.0,0.0,0.0,0.0,0.0,0.0,0.0,0.0,0.0,0.0,0.0,0.0,0.0,0.0,0.0,0.0,0.0,0.0,0.0,0.0,0.0,0.0,0.0,0.0,0.0,0.0,0.0,0.0,0.0,0.0,0.0,0.0,0.0,0.0,0.0,0.0,0.0,0.0,0.0,0.0,0.0,0.0,0.0,0.0,0.0,0.0,0.0,0.0,0.0,0.0,0.0,0.0,0.0,0.0,0.0,0.0,0.0,0.0,0.0,0.0,0.0,0.0,0.0,0.0,0.0,0.0,0.0,0.0,0.0,0.0,0.0,0.0,0.0,0.0,0.0,0.0,0.0,0.0,0.0,0.0,0.0,0.0,0.0,0.0,0.0,0.0,0.0,0.0,0.0,0.0,0.0,0.0,0.0,0.0,0.0,0.0,0.0,0.0,0.0,0.0,0.0,0.0,0.0,0.0,0.0,0.0,0.0,0.0,0.0,0.0,0.0,0.0,0.0,0.0,0.0,0.0,0.0,0.0,0.0,0.0,0.0,0.0,0.0,0.0,0.0,0.0,0.0,0.0,0.0,0.0,0.0,0.0,0.0,0.0,0.0,0.0,0.0,0.0,0.0,0.0,0.0,0.0,0.0,0.0,0.0,0.0,0.0,0.0,0.0,0.0,0.0,0.0,0.0,0.0,0.0,0.0,0.0,0.0,0.0,0.0,0.0,0.0,0.0,0.0,0.0,0.0,0.0,0.0,0.0,0.0,0.0,0.0,0.0,0.0,0.0,0.0,0.0,0.0,0.0,0.0,0.0,0.0,0.0,0.0,0.0,0.0,0.0,0.0,0.0,0.0,0.0,0.0,0.0,0.0,0.0,0.0,0.0,0.0,0.0,0.0,0.0,0.0,0.0,0.0,0.0,0.0,0.0,0.0,0.0,0.0,0.0,0.0,0.0,0.0,0.0,0.0,0.0,0.0,0.0,0.0,0.0,0.0,0.0,0.0,0.0,0.0,0.0,0.0,0.0,0.0,0.0,0.0,0.0,0.0,0.0,0.0,0.0,0.0,0.0,0.0,0.0,0.0,0.0,0.0,0.0,0.0,0.0,0.0,0.0,0.0,0.0,0.0,0.0,0.0,0.0,0.0,0.0,0.0,0.0,0.0,0.0,0.0,0.0,0.0,0.0,0.0,0.0,0.0,0.0,0.0,0.0,0.0,0.0,0.0,0.0,0.0,0.0,0.0,0.0,0.0,0.0,0.0,0.0,0.0,0.0,0.0,0.0,0.0,0.0,0.0,0.0,0.0,0.0,0.0,0.0,0.0,0.0,0.0,0.0,0.0,0.0,0.0,0.0,0.0,0.0,0.0,0.0,0.0,0.0,0.0,0.0,0.0,0.0,0.0,0.0,0.0,0.0,0.0,0.0,0.0,0.0,0.0,0.0,0.0,0.0,0.0,0.0,0.0,0.0,0.0,0.0,0.0,0.0,0.0,0.0,0.0,0.0,0.0,0.0,0.0,0.0,0.0,0.0,0.0]}]]]